GFSSGP_250_spd_000.txt.gz
Wind_Speed
10 14 20 22 26 27 26 25 25 25 25 17 15 22 21 27 27 28 30 31 32 35 34 34 34 37 37 35 36 40 43 43 45 46 48 49 48 49 51 54 56 56 55 52 53 46 45 45 37
11 10 13 23 26 28 31 30 28 27 24 23 16 22 17 17 22 27 30 31 33 34 38 39 39 40 40 41 44 46 47 50 51 50 48 50 49 50 53 56 54 56 53 52 47 44 42 33 28
8 11 12 13 17 23 27 30 30 32 31 29 27 24 21 22 22 23 25 29 32 35 37 38 40 41 42 43 44 46 47 48 48 52 52 52 54 54 54 56 56 54 53 51 45 41 36 30 23
8 7 9 11 12 12 14 21 29 32 35 36 36 35 34 33 31 32 31 31 32 35 38 40 41 41 43 45 46 48 48 50 50 52 54 56 56 55 54 53 52 51 49 45 41 34 26 24 15
9 10 6 6 10 12 15 17 20 24 29 33 35 38 39 40 39 38 37 38 39 40 39 40 43 45 45 45 46 46 45 49 52 52 53 54 53 53 53 51 47 43 42 36 27 26 19 14 11
12 11 11 9 13 12 14 15 17 19 20 21 22 24 28 31 33 35 36 38 40 41 43 45 46 45 44 44 43 43 45 45 45 45 45 46 48 47 45 43 40 35 34 27 28 22 15 13 9
9 11 9 10 11 11 11 10 9 10 10 12 15 15 17 19 22 23 23 23 25 28 31 34 34 34 33 32 32 33 33 35 35 36 35 36 38 37 36 35 33 31 27 25 25 17 12 13 10
8 8 7 8 9 10 11 11 9 7 7 4 3 4 7 10 11 11 12 13 13 13 14 15 16 17 17 19 20 22 24 23 24 27 29 30 30 30 30 31 30 29 25 22 18 13 11 10 9
12 5 3 3 7 9 11 11 11 9 7 3 3 1 1 2 4 5 6 7 7 8 9 8 6 9 11 14 17 19 20 21 22 24 25 25 26 26 25 24 24 25 22 18 18 15 10 11 13
20 10 3 0 3 7 8 10 10 8 5 4 3 2 2 0 1 1 3 3 4 4 5 8 9 11 13 15 16 17 17 18 20 21 21 21 20 20 19 19 20 22 20 18 17 13 7 10 12
27 19 10 3 3 1 6 5 5 5 4 2 1 1 1 1 3 4 5 6 7 7 8 11 12 13 15 17 17 17 18 20 20 20 20 18 16 13 13 15 17 19 17 16 15 15 19 15 17
32 28 17 6 2 5 5 5 5 5 5 5 3 2 2 4 7 9 11 10 11 12 13 15 15 14 15 17 17 18 20 20 20 19 16 12 13 11 13 15 15 15 14 12 12 16 22 19 20
35 29 25 17 5 2 8 9 8 7 6 6 5 5 5 6 6 8 10 10 12 14 15 15 15 15 16 17 17 17 20 20 18 14 14 12 11 10 13 12 12 10 9 8 9 8 17 21 20
36 31 28 22 13 3 2 6 6 7 8 8 7 7 8 9 10 11 10 10 11 12 13 13 14 15 16 16 18 19 20 21 19 12 12 10 9 10 10 11 17 11 6 7 6 5 9 17 12
36 33 29 23 18 11 5 2 2 2 4 4 5 7 7 9 10 11 12 12 11 9 10 11 11 13 15 16 17 19 19 18 14 13 8 8 9 12 14 15 15 14 10 13 7 4 6 12 13
35 32 30 24 20 14 10 6 3 3 4 4 5 6 8 9 11 11 11 12 12 9 11 12 15 17 19 19 18 19 21 19 17 13 9 7 8 14 17 16 14 16 10 11 10 7 7 14 14
31 32 29 29 21 16 12 8 6 6 5 5 5 8 10 10 11 12 12 11 11 13 14 15 17 20 21 22 21 21 20 21 18 17 15 15 15 17 15 18 18 16 15 13 7 5 11 12 16
26 29 27 27 27 20 15 10 6 6 6 7 8 11 13 14 13 13 14 13 13 13 15 16 18 21 23 24 24 21 20 20 20 19 19 20 21 21 23 24 27 21 22 19 16 12 13 15 16
22 24 26 24 25 25 22 16 13 11 11 12 12 14 17 20 19 20 20 20 20 20 20 20 22 24 26 27 28 28 28 26 25 25 23 20 24 27 33 32 30 30 29 26 23 22 19 18 19
16 19 23 23 24 24 22 22 20 18 18 16 17 18 18 19 22 22 23 24 24 24 25 27 28 30 31 33 34 34 33 29 28 27 26 26 26 27 28 31 38 37 37 34 29 29 28 26 25
14 15 16 19 22 22 22 20 21 21 21 21 20 21 22 22 24 26 26 27 29 29 29 30 31 32 34 36 36 37 38 35 33 33 32 32 34 35 35 34 33 35 41 43 41 36 37 36 35
18 18 19 19 18 21 21 20 20 20 20 23 23 23 25 26 26 26 28 29 29 32 33 34 36 38 40 40 40 40 40 40 40 40 38 37 39 40 42 42 41 38 36 41 47 50 45 43 43
21 18 17 19 20 18 20 20 19 21 18 18 22 24 26 28 28 29 31 32 32 32 34 36 37 39 41 43 44 45 45 45 45 43 42 42 42 43 44 45 45 45 44 42 40 50 56 55 53
23 22 21 21 22 21 19 20 20 23 22 22 23 25 26 28 30 30 32 34 36 36 37 39 41 42 42 43 45 45 45 45 46 45 45 45 46 46 47 49 50 51 50 48 47 47 49 60 63
26 26 26 26 26 26 26 24 20 24 24 25 26 27 28 28 31 32 33 36 39 41 43 44 46 46 46 45 47 47 47 48 47 47 46 47 48 49 49 50 51 52 53 52 51 52 51 51 64
30 29 28 29 31 31 31 31 28 26 27 29 30 31 32 32 33 35 36 36 40 42 43 44 46 48 50 49 49 50 49 49 49 47 48 49 50 52 53 52 51 51 52 51 52 53 53 53 55
32 32 33 32 32 35 36 35 33 34 33 32 33 36 37 37 36 37 37 39 41 44 45 45 48 49 50 53 52 51 51 51 51 49 49 50 51 54 56 57 58 58 57 53 49 48 50 54 57
34 35 36 37 36 38 39 40 40 39 39 38 38 38 41 43 41 41 43 43 46 48 48 47 49 50 52 54 55 54 53 52 54 52 51 51 54 55 59 61 63 63 62 59 54 50 49 51 58
37 38 38 38 41 43 42 43 43 44 44 44 43 44 46 47 46 46 46 49 50 52 50 49 54 56 54 55 55 54 53 55 56 55 53 53 56 59 63 65 65 66 66 62 59 51 51 49 56
42 41 41 42 43 46 47 49 47 46 47 48 47 47 48 50 51 51 52 53 54 55 57 58 59 59 56 57 57 55 54 57 56 55 54 55 58 62 67 70 69 68 68 61 59 55 50 47 51

GFSSGP_250_spd_003.txt.gz
Wind_Speed
18 19 22 21 27 28 26 27 28 29 29 23 18 24 34 33 28 28 28 33 30 27 29 33 32 28 28 35 38 37 38 41 43 49 51 55 55 58 59 57 58 58 57 53 51 49 47 42 32
14 18 20 24 24 28 30 27 26 26 24 27 18 21 28 34 34 30 30 33 34 35 32 32 31 32 34 34 36 40 45 48 50 49 54 57 58 60 60 60 62 62 60 54 50 47 42 33 27
11 12 17 22 27 28 29 30 28 26 25 24 22 20 21 26 30 32 32 31 33 36 35 34 36 40 44 45 46 46 48 50 52 55 58 59 59 59 59 59 59 57 55 48 41 35 28 22 21
12 9 11 17 20 26 32 33 32 31 29 27 24 24 22 23 24 23 25 24 25 30 33 35 37 41 45 45 46 47 51 54 57 57 58 58 56 58 58 56 51 49 49 44 34 26 20 19 17
6 6 7 10 16 18 19 22 27 31 32 33 33 32 32 31 30 30 29 29 29 31 33 34 37 41 44 48 49 51 52 53 54 54 54 53 52 49 48 46 46 41 38 36 29 21 19 13 10
6 6 5 7 11 13 15 18 20 23 26 30 35 38 38 38 37 36 37 37 38 39 40 41 43 45 46 48 48 46 46 45 43 41 40 39 38 37 37 37 35 33 29 29 24 16 15 8 7
9 6 8 8 10 13 15 16 16 19 21 21 23 24 27 26 24 24 26 28 29 31 34 36 36 38 39 34 31 31 30 30 30 30 29 31 33 33 31 30 28 28 24 20 21 15 6 6 7
9 8 6 6 7 9 12 12 11 12 12 10 10 10 11 11 14 15 16 19 20 22 23 22 20 20 21 22 22 22 24 26 28 29 29 29 29 28 25 24 24 21 19 16 16 9 6 3 6
5 9 6 2 4 6 8 9 9 9 10 8 8 7 7 8 7 8 9 11 12 12 11 10 10 10 13 15 17 21 23 22 22 22 25 25 26 24 23 18 18 17 15 11 10 9 3 2 7
15 7 8 6 5 6 10 10 10 9 8 6 4 2 2 2 1 1 1 1 0 1 3 5 8 11 14 13 15 15 16 18 19 19 20 21 21 20 15 14 15 15 12 7 6 8 8 4 8
23 12 6 6 6 8 8 9 8 8 5 5 3 1 1 1 1 2 4 5 5 5 5 8 10 10 11 12 14 15 15 17 15 15 15 17 15 15 12 13 13 13 12 8 5 6 14 14 12
26 22 13 4 3 4 3 4 5 6 4 0 2 3 4 5 7 8 9 8 8 9 10 11 11 12 14 14 14 13 15 16 16 10 12 11 11 13 14 19 21 16 11 9 4 2 14 18 17
32 26 22 13 6 3 2 5 4 3 3 3 5 8 9 9 9 9 10 11 10 10 10 10 11 12 11 10 13 14 15 14 14 10 6 5 6 9 13 14 18 19 15 16 9 4 11 17 18
34 32 27 24 16 8 4 3 7 7 7 6 6 7 7 8 8 10 10 10 9 10 9 10 11 11 11 13 15 16 17 18 13 8 5 3 3 7 12 15 16 16 16 19 13 6 3 5 8
33 33 30 23 21 18 15 8 3 4 5 6 8 9 9 7 7 8 8 8 9 9 8 7 8 10 13 14 16 18 18 16 15 11 9 9 6 8 10 18 20 12 10 11 13 9 4 2 4
30 31 31 26 23 17 17 22 11 5 4 2 2 3 4 6 7 8 9 10 11 10 11 14 14 13 13 15 17 18 16 17 15 15 12 13 11 16 20 19 20 18 13 9 8 7 4 6 8
25 27 28 28 24 16 3 7 9 8 6 5 5 5 7 7 8 9 11 12 13 15 16 17 16 16 15 16 16 17 18 18 19 18 15 15 19 21 22 20 21 26 21 21 15 11 7 8 12
20 23 23 24 24 22 13 12 11 11 9 7 5 6 7 8 9 9 10 12 14 17 20 20 20 20 21 20 21 20 20 19 19 19 17 16 18 19 22 26 28 27 28 29 26 21 17 16 15
14 17 19 20 20 19 19 19 18 16 14 14 12 13 15 16 15 15 15 16 16 16 18 21 23 24 24 24 24 24 25 25 23 22 21 20 22 23 23 24 26 27 28 33 32 33 30 24 18
10 12 13 15 16 15 14 14 15 14 15 17 18 18 19 19 19 19 19 18 18 18 19 21 23 25 26 27 30 31 32 32 30 29 29 28 27 28 29 28 28 29 30 33 35 36 36 36 32
9 10 11 11 13 13 12 13 12 11 12 15 17 16 14 17 19 19 20 21 24 26 28 29 30 31 31 30 32 34 35 35 34 33 30 31 32 32 34 33 31 29 31 31 31 38 43 42 42
13 11 10 12 11 12 13 13 14 14 14 16 18 19 18 18 21 24 25 25 25 28 30 29 32 33 34 35 35 37 38 38 39 39 37 34 34 33 35 35 34 34 35 34 33 31 37 45 50
19 16 14 11 13 12 14 12 16 17 20 20 22 23 24 23 23 26 27 27 27 29 31 33 34 34 36 37 39 42 41 42 43 43 42 42 41 37 36 37 37 38 38 38 37 37 37 39 47
24 22 21 19 16 15 16 17 15 19 18 19 21 24 27 28 29 29 31 33 33 34 36 37 38 40 41 43 43 43 45 46 46 46 46 45 46 43 40 38 39 39 40 41 42 42 42 43 44
28 27 25 26 24 21 21 19 19 20 23 23 22 24 26 28 31 32 33 35 37 38 41 42 44 46 47 49 49 47 46 47 48 48 48 46 45 44 40 40 40 40 41 43 44 46 44 45 49
32 31 31 31 31 27 27 26 21 23 25 26 28 28 28 29 32 34 35 36 38 40 42 44 47 50 52 53 51 51 50 50 51 51 49 48 46 44 42 39 40 41 43 45 47 49 49 50 49
38 35 34 33 34 33 32 33 27 29 28 29 31 31 32 32 33 34 36 39 40 42 45 46 49 52 54 56 55 54 54 52 51 51 50 50 47 45 44 41 43 43 46 49 50 54 54 53 50
42 42 40 38 37 37 37 38 34 34 32 32 33 34 36 36 37 37 39 42 44 45 47 49 51 53 56 59 57 57 56 55 53 52 51 49 47 46 44 44 46 47 50 53 55 59 58 55 48
47 44 45 44 42 42 42 42 39 39 39 37 37 39 40 41 42 44 44 47 48 49 51 52 55 57 58 61 62 60 60 58 56 54 52 52 50 49 49 50 50 52 53 57 63 63 61 56 52
50 51 49 48 48 48 47 49 41 44 43 42 42 43 45 46 46 48 50 50 50 52 54 56 58 59 61 64 64 63 65 63 60 57 56 55 54 53 53 54 56 58 59 64 67 66 64 58 53

GFSSGP_250_spd_006.txt.gz
Wind_Speed
21 21 22 22 20 20 21 25 29 27 32 37 35 30 27 20 37 30 24 20 19 27 30 31 29 27 29 34 35 29 39 41 37 41 45 50 57 61 61 64 64 62 61 60 60 51 44 37 23
18 17 21 22 24 19 14 19 26 24 26 32 32 36 36 35 25 34 28 28 27 24 24 29 28 37 37 33 31 36 39 45 47 50 57 57 61 62 63 63 64 63 61 58 50 43 32 23 14
13 15 18 21 27 25 25 23 26 26 28 29 28 26 26 39 42 35 34 32 33 34 34 29 32 38 38 40 44 42 45 51 56 59 59 61 64 67 66 62 58 54 50 46 39 31 22 14 11
15 6 11 16 22 22 31 28 24 24 31 28 28 26 24 25 30 34 35 34 33 33 37 41 41 41 42 45 47 49 49 51 54 57 59 61 63 58 52 47 44 42 37 35 29 21 14 10 9
12 3 9 13 23 27 24 29 32 30 28 28 27 27 25 24 24 24 25 27 31 31 32 33 37 40 41 43 45 48 50 54 56 55 51 48 44 41 39 39 39 35 30 27 26 16 11 10 4
5 6 4 9 11 13 20 28 33 35 33 31 31 30 30 30 30 31 32 34 35 36 37 38 39 41 44 47 49 50 51 49 43 38 36 37 36 37 37 35 32 28 26 21 19 12 8 6 4
12 6 6 6 8 10 6 14 18 20 24 29 32 33 36 38 39 38 39 39 39 39 38 39 40 41 42 44 43 38 34 30 29 32 34 33 32 29 31 32 29 23 19 16 13 6 2 4 3
5 8 7 3 4 11 11 10 11 13 18 22 24 24 27 31 35 32 29 27 25 25 26 27 28 29 28 26 24 23 24 27 29 29 30 30 27 26 25 25 18 22 22 15 9 3 5 5 6
15 10 9 4 4 10 5 4 7 6 8 12 15 12 12 13 14 14 14 14 14 15 16 16 14 13 14 16 19 20 23 24 24 26 25 22 18 14 17 15 18 27 22 13 6 3 9 8 8
3 9 11 8 5 10 6 6 6 4 5 6 6 5 4 4 5 5 4 4 4 6 7 7 8 10 12 15 16 18 19 17 19 19 17 15 8 4 4 10 17 16 13 10 5 5 8 13 9
20 6 8 12 11 8 14 7 10 3 4 5 4 3 2 2 3 3 3 4 5 6 7 8 10 10 11 13 15 16 13 13 16 14 12 10 4 5 4 5 6 9 10 11 5 4 9 13 12
25 18 9 9 11 13 10 9 8 21 2 2 1 2 3 6 6 7 7 7 8 8 9 10 10 9 11 11 12 12 13 14 14 10 9 5 2 4 6 8 12 17 18 15 8 5 7 12 13
26 27 22 15 10 7 9 9 12 15 13 7 6 6 7 9 10 10 11 12 11 9 9 11 11 10 11 10 11 13 13 15 14 11 8 8 6 4 9 10 12 15 15 17 12 6 5 10 14
30 25 26 25 21 17 13 6 6 10 12 9 8 6 8 10 11 12 12 11 10 10 8 9 10 9 10 12 13 13 14 15 15 12 10 11 9 7 13 11 16 16 15 15 13 9 6 5 10
28 30 25 17 19 17 24 17 12 6 5 6 6 6 7 7 6 6 5 3 6 7 9 12 15 16 17 18 15 14 13 13 16 16 13 12 15 14 15 21 23 20 17 13 10 9 6 3 2
27 28 29 24 18 18 19 17 17 14 11 9 9 8 9 8 7 6 6 6 8 11 13 16 18 18 19 19 21 19 19 19 15 18 17 15 16 19 21 20 21 22 22 17 14 15 13 7 4
21 23 24 24 24 23 16 17 16 13 13 11 10 9 9 10 11 11 11 11 11 11 12 14 16 18 20 22 22 23 22 20 20 20 22 20 19 18 20 21 20 21 23 24 24 23 18 15 15
15 19 20 19 18 16 19 22 20 19 17 16 15 15 13 14 13 13 13 14 15 15 16 16 16 16 18 21 22 24 23 25 24 24 24 23 26 24 23 21 22 22 21 21 22 25 27 27 22
9 12 13 15 15 15 15 16 16 16 17 17 16 15 15 15 14 13 13 14 16 17 18 18 19 20 20 20 24 25 26 26 25 25 26 25 28 28 27 27 27 27 25 25 23 28 29 33 31
9 9 9 11 12 12 14 13 12 12 11 14 15 13 13 15 17 17 18 18 19 21 22 21 22 23 24 24 27 30 32 32 31 31 30 27 27 28 28 29 29 29 30 29 27 25 26 29 36
11 10 8 8 10 11 12 10 13 14 13 14 15 15 14 16 18 19 18 17 18 18 21 23 25 28 30 30 32 33 34 34 35 36 36 37 33 31 31 31 31 31 31 31 32 30 27 30 30
16 13 11 9 9 11 9 12 9 9 12 14 15 16 15 14 16 19 20 19 19 22 24 26 28 29 32 33 35 37 40 40 38 37 38 37 37 36 35 36 35 35 36 33 32 33 31 28 31
21 18 16 14 12 12 12 9 14 14 14 16 15 17 18 19 19 22 24 24 24 25 27 29 31 31 33 36 39 42 42 44 44 43 41 41 40 40 38 37 37 37 38 36 35 34 32 31 32
26 23 22 20 19 16 16 18 11 15 17 19 21 16 26 26 24 25 28 30 30 31 32 33 33 35 36 39 41 42 45 48 49 50 49 47 46 45 44 40 39 38 37 37 35 35 33 31 33
32 29 27 25 24 24 21 22 20 19 18 20 15 25 26 28 30 30 30 33 34 35 36 39 39 41 42 43 46 47 51 53 53 55 54 52 48 45 44 43 41 39 38 38 36 37 36 36 37
38 36 34 32 28 28 26 27 27 23 20 21 22 22 29 32 33 35 35 36 36 39 40 41 42 44 46 48 48 49 51 53 57 60 60 57 55 50 48 46 43 42 41 42 39 40 41 41 42
45 42 40 37 36 35 32 31 32 30 29 27 27 30 27 34 37 38 39 39 40 41 42 44 45 47 49 52 52 54 57 59 59 63 63 60 57 55 51 49 45 43 43 43 43 42 44 46 48
50 49 47 44 42 41 42 41 34 29 35 33 33 33 34 32 39 46 41 41 44 44 45 46 46 49 51 54 56 55 58 62 64 68 67 64 62 60 56 53 51 48 46 44 45 44 48 51 53
53 53 53 50 48 46 49 46 41 38 39 39 37 36 37 39 35 43 45 43 46 47 49 49 49 51 54 56 58 57 60 62 67 69 68 67 65 62 60 56 54 51 49 48 47 48 49 52 56
55 55 55 56 54 53 52 57 45 46 46 45 45 45 45 44 43 46 47 47 50 51 53 54 53 56 58 59 61 63 65 66 69 71 70 70 67 66 63 60 57 54 51 50 50 49 51 57 61

GFSSGP_250_spd_009.txt.gz
Wind_Speed
22 19 20 20 23 30 28 15 16 27 35 33 33 16 23 28 26 28 22 24 24 22 15 25 24 29 33 27 29 33 34 36 37 42 45 57 60 59 65 67 67 63 62 57 48 41 31 17 9
20 21 21 24 27 29 28 24 25 25 30 34 35 31 30 24 15 32 22 19 24 20 20 31 34 32 29 33 31 31 41 35 42 51 49 53 59 62 66 68 65 57 47 44 40 32 19 8 3
21 20 20 20 21 21 21 15 14 20 19 24 27 32 28 22 29 16 26 24 20 26 23 26 24 30 31 35 39 45 35 46 47 49 54 56 59 63 62 51 44 42 41 39 32 23 12 5 3
14 13 15 21 22 21 17 15 19 19 23 23 24 29 29 33 36 35 33 36 37 33 34 36 38 36 38 48 41 53 47 50 52 53 57 60 59 49 43 41 37 34 32 31 27 17 7 6 5
13 7 12 14 25 26 22 26 23 22 25 24 25 29 29 26 27 28 34 35 37 39 38 36 39 43 47 48 47 48 51 51 53 54 53 45 39 40 36 32 31 26 23 23 20 11 5 5 4
12 3 7 9 18 20 18 26 24 22 26 26 26 31 29 30 28 29 29 31 30 31 30 32 35 38 41 43 45 48 50 49 46 40 33 37 36 32 27 23 18 22 24 26 15 8 4 2 4
26 3 3 13 13 12 16 24 28 30 33 37 30 30 31 31 30 30 31 33 34 36 40 42 44 43 42 41 41 40 38 32 29 30 32 32 28 22 16 13 24 25 27 23 16 7 4 7 6
14 9 5 2 2 11 7 8 12 23 25 32 31 25 26 29 33 35 37 38 37 36 35 32 32 31 30 28 26 23 22 23 26 27 27 25 19 16 20 15 21 25 31 22 13 7 7 12 8
9 6 6 13 7 5 5 2 5 7 8 9 13 16 19 22 23 22 20 20 20 20 21 21 20 19 16 15 17 20 21 23 25 24 23 18 12 12 18 23 21 25 22 16 12 7 8 12 13
2 11 10 8 8 6 4 8 6 1 3 4 3 5 4 6 6 7 5 5 7 8 9 9 9 11 13 15 16 18 20 21 21 23 20 13 12 11 13 11 11 13 13 15 12 11 8 12 13
2 10 16 12 10 10 8 7 6 5 3 5 3 4 4 3 3 4 4 5 7 10 11 12 12 14 15 15 16 16 17 18 20 21 20 13 9 9 3 6 8 11 13 16 13 8 7 9 10
18 11 10 16 11 11 12 6 2 10 3 6 1 4 3 4 4 4 6 8 10 11 12 13 12 12 13 13 13 13 14 15 18 17 18 14 7 8 8 7 7 9 13 13 14 12 9 5 7
26 17 14 12 10 4 5 5 7 12 10 10 9 9 8 6 8 8 9 11 11 11 12 10 9 9 11 10 12 14 14 15 14 15 15 16 14 12 13 9 7 11 13 11 9 9 7 6 7
26 28 29 29 27 19 6 4 4 5 8 9 9 10 9 8 9 10 10 10 8 7 6 7 11 12 13 14 15 15 16 14 15 16 16 14 16 17 19 16 16 18 14 13 9 8 6 7 7
27 25 25 24 21 18 16 14 11 8 6 5 5 5 6 7 6 7 7 7 6 4 6 8 9 10 13 14 16 18 17 20 20 16 19 15 17 19 21 25 26 28 26 20 17 12 9 10 8
19 21 23 25 24 20 16 16 15 12 12 10 11 14 13 12 11 9 8 8 9 10 11 12 12 13 14 15 17 19 19 21 20 20 20 22 21 20 20 22 25 24 26 27 23 19 18 13 13
15 17 19 20 20 24 22 22 21 19 19 17 16 17 17 16 15 14 14 14 15 15 14 15 16 17 18 19 21 23 24 23 24 24 23 22 23 24 25 27 27 25 22 20 22 24 24 23 20
10 12 14 18 17 17 19 20 21 21 19 18 17 17 18 18 17 17 17 17 17 18 17 18 19 21 22 21 23 25 25 26 27 26 25 26 26 27 29 29 31 31 28 26 25 24 24 24 27
7 8 9 12 12 12 12 11 13 16 14 15 14 13 13 14 15 16 16 14 15 16 16 19 20 21 22 22 24 26 27 30 31 30 29 30 31 30 30 32 33 34 32 30 29 30 26 25 29
9 7 5 5 7 8 10 10 4 10 15 11 11 12 12 13 13 14 14 14 15 17 20 22 23 22 22 24 24 27 29 31 33 34 36 36 35 35 34 34 34 35 34 33 32 32 33 30 30
13 10 7 6 3 7 8 7 8 6 7 9 12 12 13 15 17 17 18 20 20 20 21 22 23 24 24 27 28 30 32 35 36 38 38 42 38 39 36 36 35 34 34 33 35 35 37 36 33
20 15 13 10 8 7 3 8 4 2 5 4 9 9 10 12 14 17 18 19 20 21 24 25 26 27 28 29 30 31 32 36 39 41 43 48 47 46 43 40 37 35 35 34 35 36 38 41 39
26 22 18 16 13 13 10 7 10 9 8 7 8 11 8 16 15 16 18 20 19 21 22 25 28 30 31 33 35 37 36 38 40 43 45 49 50 51 47 47 44 42 39 38 38 37 38 40 41
30 29 26 22 20 19 15 15 13 15 17 14 12 12 15 19 19 21 21 23 23 23 25 28 31 34 35 36 38 40 42 44 46 49 51 53 53 55 56 52 53 50 46 42 41 40 38 39 41
34 34 32 31 27 24 22 21 15 18 19 20 20 18 18 19 22 25 28 30 32 31 30 32 35 37 40 40 42 44 48 50 50 50 54 56 56 57 60 57 56 53 49 47 43 42 42 40 41
36 37 37 38 34 32 30 26 26 23 22 23 25 25 25 23 22 25 31 32 37 32 39 38 40 41 43 44 47 48 50 53 56 56 57 59 60 62 63 63 61 58 53 49 45 43 43 42 43
40 39 45 41 39 38 36 34 33 31 26 27 29 29 31 33 30 28 34 37 41 34 45 44 44 46 46 46 51 53 52 54 58 60 60 62 65 65 66 67 67 64 56 49 46 44 43 44 44
42 46 44 45 47 45 44 37 35 35 33 39 36 34 34 34 35 34 37 31 28 47 46 49 46 49 49 52 54 57 56 59 62 64 65 65 68 70 71 72 71 70 62 53 47 43 42 42 44
48 48 46 48 49 49 51 43 41 40 37 40 45 45 41 37 39 39 36 42 46 49 47 53 49 49 51 55 55 59 57 62 64 66 68 70 71 75 79 79 76 73 66 56 50 45 41 41 43
54 50 51 51 51 52 53 49 46 46 44 41 41 45 55 51 42 42 44 44 47 47 53 54 53 51 52 55 60 58 60 64 65 68 69 72 73 77 79 81 76 78 70 59 51 47 44 42 41

GFSSGP_250_spd_012.txt.gz
Wind_Speed
27 26 26 27 31 29 25 25 24 21 21 25 23 16 26 20 24 25 25 26 26 23 22 20 19 27 30 31 33 40 33 36 34 43 45 49 54 57 59 63 62 60 50 48 44 35 26 15 7
24 24 25 27 31 31 31 25 17 20 24 20 16 19 17 21 26 24 27 27 28 26 26 24 19 27 30 29 33 37 40 39 35 43 44 49 55 59 62 60 53 47 40 38 34 30 20 9 6
23 23 23 23 28 26 25 27 23 19 22 32 31 25 27 26 20 16 18 21 20 24 23 23 25 28 35 32 42 31 39 48 42 51 58 52 58 61 57 47 44 37 32 27 30 28 16 8 6
21 18 19 19 22 28 25 26 28 19 18 22 24 30 26 30 24 21 23 21 26 26 29 29 26 30 34 31 39 37 42 49 45 47 52 56 58 53 43 44 39 29 25 23 31 23 15 10 7
14 12 10 12 18 19 18 19 17 16 15 18 18 20 23 26 28 28 28 33 34 38 40 40 39 42 44 43 45 47 45 49 53 53 51 49 42 40 40 37 30 20 25 27 34 21 15 7 6
16 9 11 12 15 19 21 22 21 19 19 22 23 21 23 25 26 25 28 29 29 33 35 35 33 35 34 39 45 48 51 48 45 41 36 33 36 37 34 31 25 24 29 33 31 19 11 7 9
17 11 4 8 6 17 23 21 29 28 23 21 24 26 26 28 30 32 31 30 30 30 33 36 39 43 44 45 43 41 37 34 30 28 29 32 31 30 28 26 24 29 29 28 27 18 13 8 9
5 4 2 5 10 13 11 15 19 24 22 21 26 32 31 25 32 34 33 33 35 38 39 39 36 35 32 30 28 25 23 24 26 26 26 27 28 25 23 22 24 24 23 24 25 16 12 6 9
4 3 4 5 6 9 10 10 10 7 11 19 21 23 22 20 19 20 22 24 23 22 22 22 22 21 19 18 17 19 22 23 23 23 24 25 25 23 21 19 19 17 14 20 20 17 14 9 9
11 13 5 5 1 4 5 9 9 7 2 3 3 3 5 9 10 11 10 10 9 10 10 11 12 13 15 17 18 19 20 21 21 22 23 25 23 22 14 14 13 13 13 15 18 17 13 10 9
7 7 12 6 10 8 10 11 15 10 1 3 2 0 2 2 3 3 4 6 8 11 12 13 14 16 18 17 16 17 16 18 20 22 23 20 18 17 14 13 13 12 11 12 15 17 13 6 8
7 8 14 13 13 9 11 3 5 6 6 4 3 2 4 6 7 6 6 8 9 11 12 12 12 13 13 13 13 14 17 19 21 20 20 22 19 14 14 16 14 13 13 16 15 16 15 9 5
16 9 14 11 12 11 6 5 4 9 6 10 5 4 6 9 9 8 9 10 11 10 8 7 7 9 11 13 15 16 18 18 18 19 21 19 19 19 18 21 20 15 14 19 17 17 13 13 7
17 12 15 9 6 6 5 7 7 5 4 2 3 6 6 5 6 9 9 9 6 3 3 5 9 11 12 14 14 17 18 17 19 20 20 21 21 20 20 23 26 27 27 28 26 22 20 14 13
23 21 15 12 14 15 13 11 9 13 12 12 10 8 6 7 8 7 8 8 9 9 10 11 12 14 15 15 14 16 18 20 20 21 23 23 25 25 24 23 22 24 26 28 28 24 22 21 20
16 16 18 17 16 14 14 16 14 14 16 15 13 13 12 12 11 12 12 13 12 12 13 14 15 16 16 17 18 19 20 22 24 24 24 23 24 25 25 27 29 29 28 26 24 24 24 26 27
12 13 13 14 18 21 23 23 22 20 20 20 18 17 17 17 16 16 16 15 16 16 16 16 17 17 17 18 19 22 23 24 24 24 25 26 26 27 27 29 32 32 33 32 30 27 25 29 32
9 8 9 10 13 16 17 17 17 17 16 16 15 13 14 14 12 13 13 12 11 12 15 16 17 18 19 21 23 23 25 27 27 27 27 29 31 27 30 30 29 30 33 35 37 36 33 33 33
9 8 4 5 6 9 9 7 10 14 13 13 11 12 12 12 12 14 12 12 13 14 15 16 17 18 19 22 23 25 25 26 29 31 32 33 35 34 37 39 35 33 32 33 35 38 38 38 37
10 9 9 4 3 3 4 1 6 4 11 9 7 9 9 9 11 12 14 15 14 15 17 19 21 22 22 24 25 28 30 31 33 35 36 38 40 39 38 41 38 40 39 36 33 36 39 37 42
11 9 9 11 6 6 2 4 6 4 4 2 4 5 5 7 10 12 13 15 15 16 17 19 21 22 24 24 26 29 31 32 34 36 38 39 41 43 43 45 44 46 47 40 35 34 39 40 40
18 14 12 11 11 11 8 6 5 2 2 3 2 7 7 9 13 15 15 13 14 16 18 22 24 26 27 29 29 29 32 34 37 40 43 45 46 47 48 50 52 53 54 53 45 36 35 38 42
25 21 17 15 17 13 10 11 11 7 7 10 11 10 13 15 16 16 19 19 19 17 19 21 24 27 28 30 32 31 35 39 41 43 46 48 51 53 54 56 55 57 59 57 52 44 36 36 39
33 27 26 21 20 22 14 14 12 13 13 11 15 15 17 16 17 18 23 21 25 20 26 21 27 30 33 34 35 35 38 40 43 43 47 49 52 54 56 58 61 61 64 62 63 56 46 38 39
38 34 33 29 28 25 20 18 20 16 17 14 16 17 21 21 21 21 22 25 25 28 30 30 29 38 37 38 40 38 39 42 44 45 49 52 56 60 62 64 67 68 70 70 69 63 53 44 40
46 43 36 36 33 32 26 25 26 22 23 19 23 24 23 25 26 28 31 31 31 30 22 25 32 40 40 41 43 43 41 47 47 46 50 54 55 59 64 65 67 70 72 73 74 68 60 47 42
48 43 45 44 38 35 33 32 30 28 27 27 31 31 28 30 33 38 41 42 41 36 28 33 37 40 42 42 46 46 49 52 54 51 54 58 57 60 65 67 69 71 73 77 78 71 64 51 42
48 47 47 45 43 41 40 36 34 33 34 33 36 35 31 31 35 37 40 40 42 43 40 38 40 42 44 43 43 46 53 57 57 52 56 61 58 60 64 68 71 72 75 78 78 75 73 57 44
53 49 49 50 47 45 46 42 40 38 40 37 37 40 39 34 37 37 41 40 41 43 45 45 47 45 46 47 44 50 56 59 58 56 58 62 60 64 67 72 72 73 74 76 82 84 74 57 48
58 55 52 52 49 48 47 47 46 43 42 40 40 41 45 45 38 39 40 43 46 49 51 50 49 48 51 50 47 56 62 64 53 58 60 63 65 67 69 74 76 74 75 76 82 93 70 53 47

GFSSGP_250_spd_015.txt.gz
Wind_Speed
24 23 24 23 24 32 31 34 30 31 30 31 28 28 24 22 23 24 23 22 23 23 20 21 24 19 23 25 31 33 33 43 43 45 42 54 53 55 63 64 62 62 53 49 38 29 33 29 11
27 24 26 31 36 31 21 24 24 20 21 25 25 21 22 24 18 18 22 24 23 25 27 25 28 28 24 25 33 39 36 40 48 47 46 53 54 53 59 59 56 52 48 35 34 30 31 22 10
23 25 28 30 31 34 29 28 23 19 17 21 22 17 17 17 13 15 13 25 27 29 28 27 30 27 30 30 36 37 43 40 49 50 48 52 57 55 51 48 45 45 37 30 36 39 27 20 10
25 26 26 25 28 31 31 31 29 24 18 22 22 24 27 27 28 24 24 19 24 24 25 22 29 27 33 34 35 38 40 48 48 51 56 56 51 46 41 40 40 35 28 33 37 33 26 14 9
23 23 22 25 26 25 26 26 25 25 25 22 20 22 22 24 27 28 28 28 28 27 32 35 37 34 37 36 39 39 41 47 51 52 50 44 37 34 36 35 34 31 28 31 31 30 23 14 8
18 20 20 22 23 25 25 24 23 21 20 16 16 15 16 17 20 21 21 22 23 26 28 30 33 36 37 39 43 46 48 45 43 38 34 31 32 31 32 32 30 27 28 24 27 26 22 15 6
12 14 12 15 16 20 21 21 18 18 17 15 16 17 22 23 22 23 26 27 30 32 32 34 33 36 41 45 43 38 34 30 27 28 29 29 28 30 31 28 26 25 23 23 26 26 21 16 3
15 16 13 6 13 11 16 23 26 25 28 28 22 17 20 24 24 25 29 33 33 33 34 36 39 36 29 28 25 23 22 24 25 26 27 26 28 29 27 26 24 22 20 21 24 26 20 15 3
14 9 5 4 4 8 14 15 15 18 31 34 28 21 25 27 23 18 18 20 21 22 22 19 18 17 16 17 19 21 22 22 22 22 25 27 27 26 24 23 21 17 16 15 21 26 21 14 3
10 10 3 4 3 6 8 6 7 11 10 8 10 11 7 5 6 8 10 10 9 9 9 11 13 15 17 18 19 19 18 18 20 22 25 25 24 24 22 19 18 18 16 13 18 21 20 16 7
2 4 9 3 2 3 8 7 9 10 7 3 1 0 1 2 3 5 6 7 9 11 11 11 11 12 12 13 13 15 17 19 21 22 23 25 25 21 20 19 18 18 17 17 17 20 20 20 15
18 10 3 3 5 2 5 3 4 3 5 5 1 3 2 2 5 6 8 9 10 11 11 9 8 10 11 12 14 15 17 19 18 21 22 22 24 25 22 24 25 25 21 19 20 20 19 19 17
27 15 3 2 7 7 4 6 5 2 6 6 7 8 7 5 6 6 6 6 6 8 8 8 10 11 12 13 15 18 20 21 22 22 22 24 24 25 25 25 25 25 26 26 26 30 28 25 19
26 18 8 4 7 10 9 7 6 7 7 6 5 4 5 5 4 6 7 9 10 9 10 11 12 13 14 16 16 18 20 22 23 23 24 23 26 26 26 29 27 28 27 28 25 25 28 25 24
25 19 12 7 2 4 5 6 7 4 5 10 8 9 9 10 9 9 9 10 11 15 17 16 16 15 16 17 20 21 22 24 23 25 26 29 28 27 30 31 31 31 34 34 32 30 25 25 24
16 18 16 10 9 12 14 15 14 11 10 14 17 17 16 16 15 15 14 16 17 19 17 16 16 17 18 19 19 19 21 24 26 28 29 31 33 29 30 31 31 32 30 33 34 34 33 32 28
10 13 10 12 15 16 20 20 21 20 17 17 17 17 16 16 14 14 14 14 14 15 15 16 17 17 18 20 20 23 23 25 26 28 29 30 30 30 30 31 30 34 38 36 34 33 34 37 37
7 7 7 7 10 12 13 14 18 14 13 12 12 11 11 11 12 11 11 12 12 14 16 16 17 17 18 19 21 23 23 23 26 27 29 31 32 33 34 35 35 38 40 44 43 37 36 38 39
5 5 6 6 4 3 5 5 11 11 8 7 9 11 9 12 13 14 13 13 13 14 16 16 17 18 20 21 21 22 23 25 28 29 31 31 33 35 37 38 39 41 43 44 45 48 41 37 40
7 3 2 5 5 5 3 1 2 1 5 2 4 6 8 10 10 10 10 10 10 12 13 15 16 18 19 22 24 25 24 26 28 30 31 33 35 36 38 42 44 44 47 48 50 52 51 41 37
15 11 6 3 7 8 10 7 5 3 5 3 3 6 6 5 6 8 10 11 13 14 15 14 16 18 21 22 24 27 27 29 31 31 34 34 36 39 40 42 45 48 49 52 52 58 57 51 39
23 18 13 11 6 11 12 10 10 9 7 8 8 7 7 6 11 11 13 15 14 16 15 17 19 19 22 27 29 29 33 32 32 34 36 36 35 41 43 43 45 50 54 55 56 61 62 70 56
30 23 20 17 16 11 13 12 13 10 12 12 12 12 12 12 17 14 14 17 18 19 19 24 30 29 27 31 34 33 33 33 36 35 40 42 41 43 46 48 47 50 54 59 61 58 60 71 71
35 27 26 22 22 20 15 18 14 13 17 16 15 15 14 14 19 18 17 17 19 21 24 26 28 27 26 29 31 34 36 36 35 38 40 45 44 45 48 51 49 51 54 59 64 59 62 71 80
40 37 33 31 28 32 19 22 19 18 19 20 21 21 19 17 19 23 22 22 25 25 28 31 28 29 32 34 34 35 36 40 40 38 42 44 46 45 47 50 48 52 55 58 64 60 60 70 82
50 44 41 39 37 37 23 24 27 25 24 24 26 27 29 29 29 29 28 30 29 27 29 31 31 36 36 38 37 41 45 44 45 41 42 48 47 42 49 52 53 57 58 59 64 63 61 63 74
51 47 48 45 40 37 30 30 34 32 31 29 33 33 33 37 37 36 37 36 35 31 32 34 36 39 41 41 41 44 47 48 51 47 45 52 44 46 55 60 59 59 60 59 63 69 66 65 66
53 53 47 44 42 38 37 37 38 35 34 34 36 37 36 38 40 42 43 43 40 38 38 39 38 40 43 43 43 45 49 50 52 50 47 50 47 53 62 62 62 63 63 60 65 69 65 63 61
58 55 50 49 45 40 40 37 40 39 37 37 37 36 37 38 42 43 45 45 42 42 42 41 40 40 42 44 46 49 52 53 54 53 53 55 57 57 64 63 63 64 62 60 63 68 70 62 59
63 59 57 55 50 50 46 41 40 38 40 40 39 38 41 44 44 43 44 43 45 47 47 46 46 45 44 47 51 51 53 54 53 56 58 58 60 62 67 65 65 69 66 64 65 71 74 69 67

GFSSGP_250_spd_018.txt.gz
Wind_Speed
33 35 33 28 26 27 28 29 26 30 31 29 27 27 27 25 23 25 23 23 21 22 21 20 21 19 20 23 27 33 32 37 49 49 39 43 49 58 58 53 46 42 42 40 33 35 36 27 18
30 27 30 33 31 29 26 30 32 32 30 29 31 29 31 22 20 22 19 19 22 21 21 19 27 28 25 32 32 34 35 36 40 46 48 49 54 57 49 43 44 42 40 33 34 34 31 24 15
27 25 24 24 22 26 25 22 21 24 29 30 26 26 23 22 19 24 22 20 20 23 23 27 30 28 29 28 27 35 35 35 45 46 44 50 52 49 43 39 39 38 32 30 31 32 26 22 12
24 24 26 28 31 29 29 25 23 23 25 23 24 22 20 18 19 19 17 18 19 19 24 25 28 30 28 34 31 35 35 36 43 47 49 49 46 37 34 34 35 31 28 28 28 26 24 21 12
24 23 23 25 29 31 31 29 27 28 27 23 19 20 20 21 23 22 24 26 25 26 29 29 30 32 32 37 34 36 41 43 45 44 41 35 31 30 30 30 29 24 25 23 24 25 23 21 8
23 22 22 22 22 25 25 24 22 25 24 24 25 24 21 16 14 15 17 19 21 22 22 24 28 32 34 37 39 43 44 41 35 29 26 26 26 27 28 27 24 24 20 22 25 26 27 21 7
19 21 18 20 20 23 21 22 21 19 20 20 20 18 19 19 17 18 18 20 23 25 27 30 32 34 36 39 42 34 27 23 24 24 25 25 24 26 27 25 21 21 18 20 25 26 27 20 9
10 13 12 13 14 12 15 21 21 20 19 19 20 18 18 21 20 22 24 27 25 25 28 30 32 30 28 21 18 17 20 22 22 20 21 22 22 24 23 20 18 19 19 20 21 25 24 19 11
17 18 13 9 10 12 12 11 15 18 20 21 23 23 25 23 21 26 23 16 14 14 14 13 13 14 15 17 17 18 16 17 19 19 19 20 22 23 23 19 17 17 17 18 20 21 22 21 14
18 15 14 10 4 1 3 5 8 8 13 15 17 22 15 14 10 5 4 5 6 8 10 11 13 15 16 16 16 15 17 17 18 19 19 22 22 20 21 20 20 19 20 20 20 20 20 20 20
14 14 8 4 5 5 4 4 5 5 8 5 4 2 4 3 3 4 6 7 9 11 13 14 15 15 15 14 15 16 16 19 20 21 20 19 19 19 19 21 22 22 21 22 20 22 24 23 20
12 9 8 6 7 7 5 4 1 3 4 6 5 3 5 4 4 5 7 8 8 9 10 10 10 10 10 11 12 15 17 19 21 24 24 23 23 22 22 23 23 22 21 22 21 23 24 24 23
20 13 13 10 4 3 4 3 3 4 3 5 6 7 6 5 2 1 3 6 7 7 7 7 9 11 14 16 17 19 22 21 23 27 29 28 25 26 28 25 27 31 28 26 25 25 25 24 22
25 21 22 15 3 4 6 8 10 7 6 7 6 5 7 7 6 8 8 9 9 10 13 14 16 16 17 18 19 20 21 24 26 27 27 29 29 30 28 29 27 30 31 38 33 29 24 23 21
21 21 20 16 12 10 4 1 2 3 0 6 11 11 13 15 14 16 17 17 16 16 16 14 16 18 18 18 18 20 21 23 24 25 27 28 26 29 29 27 28 28 30 33 37 38 35 28 24
17 18 21 17 13 13 14 10 9 11 14 17 19 19 17 16 18 21 19 16 15 14 14 15 15 16 17 17 19 19 21 23 24 25 26 27 29 28 31 32 33 34 37 39 42 42 42 41 31
11 11 16 18 17 15 12 15 15 16 17 17 14 13 14 13 14 14 15 15 14 15 15 15 15 15 15 16 17 19 20 21 23 24 26 26 28 28 30 31 31 36 38 40 46 42 42 49 55
5 5 8 11 10 7 6 8 11 10 10 10 11 11 12 12 12 12 12 15 15 13 14 13 14 15 16 18 20 20 19 22 24 26 28 29 29 29 31 32 34 36 38 43 47 48 42 44 53
2 1 0 6 6 2 1 4 7 6 8 10 10 10 11 12 12 12 12 12 12 10 10 11 12 14 16 18 20 22 24 24 24 25 26 28 30 30 34 35 38 38 40 43 46 51 48 47 52
8 7 5 5 5 4 1 2 1 6 1 4 6 6 7 7 7 9 9 8 10 11 11 12 13 15 15 19 23 25 26 27 25 26 25 30 31 35 32 35 38 41 42 44 49 50 54 48 55
19 14 11 10 10 8 5 3 3 3 4 1 1 1 3 3 1 4 8 10 11 13 15 11 13 20 22 24 26 27 27 27 31 33 30 28 31 34 37 34 36 41 43 45 47 50 54 59 59
31 22 16 16 16 9 9 5 4 3 6 3 4 8 7 8 8 10 11 11 14 15 16 15 17 24 21 23 23 27 32 32 31 34 36 34 32 33 39 36 35 39 44 45 47 51 52 57 59
42 29 21 18 19 16 15 10 8 7 10 9 11 11 12 12 11 11 11 12 16 16 19 21 26 25 22 23 26 29 32 36 36 38 38 38 37 34 39 34 35 38 48 48 48 52 53 52 58
44 35 25 22 22 25 23 19 15 11 14 15 14 14 12 14 14 13 13 14 17 22 25 27 27 27 28 28 29 32 34 38 41 40 41 40 39 37 39 36 35 40 49 49 49 51 51 50 54
44 39 34 30 26 34 27 23 21 19 19 20 20 19 17 18 18 18 20 21 24 26 28 31 32 32 32 32 32 34 35 38 41 41 41 42 40 40 40 39 44 42 49 49 49 52 53 49 54
48 43 39 37 37 38 30 33 25 25 26 28 28 27 25 26 26 26 27 27 30 30 31 34 35 37 37 36 35 35 36 38 41 42 41 42 40 39 42 43 45 44 48 51 53 55 57 52 53
51 46 45 43 43 40 36 36 29 31 32 33 34 34 33 36 35 33 35 34 34 35 35 38 39 41 41 39 39 40 41 42 44 45 47 47 44 44 44 49 48 46 48 54 58 61 61 59 57
57 55 52 45 43 41 41 35 39 36 36 35 35 37 37 41 41 41 40 40 38 39 39 38 39 40 41 43 44 43 44 43 48 52 52 50 49 46 48 48 52 51 49 58 61 65 64 64 56
65 59 55 51 47 42 42 37 40 42 41 37 36 38 41 43 44 44 45 42 42 43 42 43 44 44 44 48 49 47 48 49 54 58 56 52 45 45 48 52 55 54 55 64 73 73 66 65 61
72 66 63 59 52 48 45 40 44 45 45 41 41 39 43 45 46 48 46 45 47 49 48 48 48 47 48 51 48 49 50 52 55 60 59 50 45 48 52 53 53 55 62 73 81 73 66 63 65

GFSSGP_250_spd_021.txt.gz
Wind_Speed
32 30 32 31 30 31 28 32 29 25 25 24 24 24 23 22 25 22 25 24 22 24 20 18 19 20 20 23 25 28 35 33 40 37 45 45 48 47 48 41 36 36 31 29 29 30 25 23 17
30 32 32 31 28 26 22 24 28 26 27 26 28 27 27 26 29 28 20 24 24 18 20 20 20 24 28 29 30 31 32 32 40 41 47 45 47 42 36 34 34 32 26 23 26 26 24 21 14
30 30 30 28 29 32 31 26 25 25 24 24 27 27 24 23 25 27 23 23 23 21 21 20 23 27 28 28 30 30 37 34 36 42 45 44 39 35 32 32 30 25 21 20 23 25 24 19 11
30 26 24 28 29 29 26 25 23 20 20 20 22 21 21 20 20 19 20 22 21 20 18 21 22 25 27 31 32 35 39 38 42 46 38 33 29 28 28 27 24 21 18 20 24 24 28 20 10
26 28 22 24 25 25 22 21 22 22 20 21 23 21 16 17 17 17 18 23 25 25 24 25 29 32 28 30 33 35 38 42 44 29 25 26 25 24 25 23 19 18 17 20 24 25 27 25 12
19 23 24 22 25 24 23 25 27 28 26 27 26 23 23 22 22 20 19 20 19 17 18 19 21 26 29 32 35 37 38 29 23 22 22 21 21 21 22 19 17 16 18 19 23 25 25 23 18
22 23 23 22 22 22 24 25 26 24 22 20 23 20 18 17 18 20 20 15 18 20 22 23 27 29 31 30 27 22 18 20 20 20 19 20 20 19 20 19 17 17 18 21 21 23 23 20 18
20 21 22 21 21 21 20 19 19 18 18 18 18 18 18 17 15 18 22 21 23 26 25 20 19 17 17 16 17 18 19 17 17 19 19 17 17 18 18 19 18 16 16 18 19 20 21 21 17
11 15 18 22 20 16 14 13 11 11 15 15 18 19 22 18 23 23 19 18 15 11 8 7 9 11 14 15 17 16 16 16 16 16 16 16 17 18 19 20 20 19 18 17 18 18 19 19 18
13 11 9 8 9 10 8 6 4 5 5 5 9 9 9 12 10 7 5 3 1 3 6 8 12 12 11 11 12 12 12 13 16 17 17 18 18 18 22 24 25 22 20 20 18 17 19 20 19
18 12 8 8 9 8 6 6 5 6 3 3 2 3 1 3 4 3 2 3 5 6 7 6 6 8 9 10 10 13 18 21 22 21 21 21 20 16 21 23 26 31 26 22 18 17 16 14 15
9 15 10 9 10 11 12 7 6 6 4 5 4 4 4 6 7 6 3 1 2 5 6 8 9 10 14 16 17 18 19 21 22 24 23 24 23 22 22 25 28 26 30 31 31 26 19 17 15
14 13 9 9 11 11 10 4 1 2 2 3 6 9 7 7 4 3 2 7 9 11 12 14 16 16 17 17 17 18 18 18 20 19 21 21 21 24 21 23 26 29 33 33 31 32 32 27 18
18 15 13 12 9 8 7 5 6 7 7 6 7 3 4 5 7 9 11 14 16 17 17 16 16 15 15 16 16 16 17 18 19 19 20 21 22 23 24 23 26 27 30 33 33 37 33 32 36
19 19 18 19 15 8 6 3 4 3 1 4 9 12 12 13 15 18 19 19 17 15 16 14 13 13 14 15 16 17 18 20 22 23 22 22 22 24 24 23 24 25 29 30 36 38 38 34 35
15 16 18 20 18 17 16 15 11 10 12 15 17 17 18 20 20 17 15 14 14 15 17 15 14 14 15 16 16 16 16 18 19 19 20 21 22 21 22 23 24 27 27 31 34 36 40 47 44
7 11 12 16 19 21 19 20 21 17 14 13 14 16 16 15 13 12 12 14 14 14 14 14 14 13 14 16 17 17 19 19 18 20 19 21 22 25 22 23 26 29 34 34 37 37 41 42 48
3 5 6 3 9 15 15 16 13 9 9 11 11 11 12 12 13 13 13 13 13 13 12 12 12 11 12 13 16 18 19 21 22 23 22 22 23 23 25 25 25 27 35 36 38 40 41 42 41
3 1 1 3 4 9 9 10 8 5 10 11 13 13 12 12 11 11 11 10 10 9 9 9 10 11 11 14 21 20 22 22 22 23 24 26 27 27 28 28 25 26 31 36 39 39 40 41 42
11 7 6 4 3 2 5 6 4 5 5 6 9 9 8 6 6 8 8 8 7 8 8 6 10 16 20 18 19 19 19 22 24 25 26 26 27 28 30 31 31 26 29 34 39 40 42 43 43
20 18 12 9 8 7 5 6 7 5 7 5 5 4 3 2 1 3 7 5 4 7 8 8 12 17 20 20 21 22 22 26 28 29 30 30 31 30 29 30 33 32 30 32 38 41 42 43 42
29 27 20 15 15 11 12 12 10 8 8 6 4 3 1 2 3 6 7 6 7 8 9 13 17 19 19 20 22 24 26 28 30 32 33 33 34 34 32 31 32 32 33 34 34 38 43 46 46
40 34 27 23 20 17 17 17 14 14 11 8 6 7 6 7 8 9 9 8 8 11 14 17 20 21 23 25 25 28 29 30 31 33 34 34 36 38 36 36 36 35 35 39 36 37 42 49 48
46 38 33 28 25 20 26 21 19 18 14 13 12 12 11 14 12 12 13 13 15 17 19 21 23 26 27 28 30 31 31 31 33 35 36 36 39 41 40 38 37 39 41 43 41 39 41 47 55
47 43 36 34 29 32 28 26 26 22 22 20 19 18 17 19 18 18 20 20 21 23 25 26 27 29 31 31 31 31 33 33 35 38 39 40 42 46 44 41 38 41 42 42 42 41 40 46 53
52 51 42 38 37 42 35 36 28 25 23 27 30 26 24 25 24 25 25 25 27 28 31 32 32 33 33 33 33 35 37 39 38 38 40 40 40 45 44 41 44 47 45 44 45 44 45 54 56
58 52 48 44 40 41 40 42 33 31 33 33 33 31 30 30 31 31 31 31 31 33 34 36 37 37 38 39 39 40 41 41 44 44 46 47 40 47 46 46 47 49 42 42 44 48 55 55 61
63 62 57 50 44 42 44 46 42 39 38 38 37 35 33 35 34 33 33 33 33 34 35 36 38 40 41 41 43 43 43 44 48 45 50 44 51 52 50 43 44 49 46 45 50 53 54 58 62
70 66 61 55 48 45 46 47 47 43 42 40 41 40 40 40 39 37 35 37 38 39 40 39 39 40 41 42 43 44 45 45 48 49 49 46 51 53 54 51 50 46 47 53 53 55 57 62 68
78 74 68 60 55 52 51 51 55 52 45 43 45 42 46 44 41 38 38 41 43 43 43 43 43 42 43 45 46 47 48 47 51 43 50 41 40 50 58 55 54 51 56 56 61 55 63 69 81

GFSSGP_250_spd_024.txt.gz
Wind_Speed
29 26 26 26 28 28 30 33 28 25 25 26 24 23 22 22 21 21 22 24 23 21 21 20 20 23 25 23 24 31 36 35 35 39 44 41 49 41 30 29 30 29 22 17 21 26 27 21 13
28 29 28 29 30 31 30 31 29 29 29 26 26 23 23 24 24 23 26 25 23 23 23 16 20 23 26 26 30 29 31 35 37 39 38 44 40 27 29 28 26 20 16 18 21 25 28 21 11
27 28 29 29 29 29 28 29 25 23 24 25 22 21 24 24 23 19 22 25 23 23 21 22 22 25 25 27 28 31 34 34 35 41 43 38 27 26 26 24 20 14 16 19 21 25 27 22 11
26 28 29 28 28 29 26 24 25 27 26 24 18 18 16 15 17 15 18 20 21 23 24 24 23 24 28 26 28 28 35 37 40 40 34 25 26 24 23 19 14 12 14 17 20 24 27 23 13
29 28 28 25 24 24 22 22 23 21 21 19 21 22 19 17 15 15 14 17 21 23 23 23 24 24 28 29 30 33 36 35 30 23 24 24 23 22 20 15 12 12 14 16 20 22 25 24 15
27 27 26 24 24 24 21 19 20 20 21 23 25 27 25 21 18 17 20 19 23 22 20 19 19 23 26 29 30 30 24 21 23 20 20 21 19 16 16 14 14 13 15 17 19 21 22 21 18
26 26 27 28 25 23 22 22 23 24 26 28 25 24 22 19 16 14 14 17 18 17 18 21 25 23 20 17 16 17 18 16 17 18 17 15 15 15 17 16 17 15 16 16 16 16 17 18 17
18 21 24 25 24 22 22 22 23 23 23 20 18 18 19 18 15 13 13 18 20 21 22 20 15 8 9 11 12 11 13 15 15 13 12 13 15 18 21 22 21 18 17 16 17 15 15 16 15
13 16 19 20 21 21 20 21 20 16 15 18 16 14 13 16 16 17 19 17 15 9 4 3 5 6 7 8 10 11 12 12 13 15 17 17 19 22 26 29 30 25 20 17 16 14 13 14 14
15 14 17 19 19 17 18 17 13 7 5 3 3 4 7 7 8 9 6 4 3 1 1 2 5 7 8 10 12 15 16 17 18 19 19 19 18 22 25 22 23 27 28 29 25 18 14 12 11
15 11 10 10 10 10 11 8 8 4 4 4 5 4 3 2 1 2 2 2 2 3 1 5 9 10 13 15 17 16 17 20 20 21 21 20 18 19 21 23 24 26 30 31 31 30 28 18 13
17 12 9 10 11 14 14 12 8 7 8 8 6 3 3 2 3 4 5 3 3 5 10 13 16 17 19 19 18 17 16 16 17 18 19 20 19 19 19 20 24 28 31 31 33 33 28 25 25
7 14 10 11 16 18 17 14 8 5 6 1 3 7 7 6 5 5 3 6 10 16 19 17 18 17 16 16 16 16 16 16 17 18 17 18 18 17 17 21 23 25 26 30 32 33 35 32 29
10 3 9 12 15 16 13 9 5 3 2 4 7 9 4 4 6 7 11 17 18 18 19 18 17 17 16 14 14 16 17 18 18 16 16 17 17 18 17 18 23 25 24 28 29 33 32 34 30
16 9 7 9 12 12 10 7 4 3 2 2 5 5 8 10 14 19 19 17 15 16 16 16 15 15 14 14 14 15 15 17 14 15 17 15 18 18 18 18 22 23 23 29 31 32 33 32 32
15 14 9 10 15 16 15 14 13 11 7 7 9 13 16 20 19 16 15 15 15 15 15 14 14 14 14 16 16 17 17 18 20 17 18 19 17 19 21 23 21 18 22 28 32 35 36 37 33
7 10 10 11 17 20 21 21 21 19 17 15 18 18 15 14 14 15 15 14 14 14 14 13 13 12 12 15 16 17 16 16 17 16 18 20 19 20 22 22 23 21 20 25 27 32 37 39 38
2 4 6 2 5 13 22 19 20 19 18 14 13 13 14 13 14 15 14 14 13 12 12 12 11 8 7 10 13 12 13 15 16 19 20 20 18 20 20 22 23 23 23 23 27 28 34 42 45
8 6 5 6 3 7 9 12 15 16 15 13 11 11 12 12 13 12 11 10 9 8 7 8 6 10 11 9 12 14 14 15 17 18 20 21 22 23 23 24 24 24 23 25 27 29 30 36 40
16 12 10 9 8 7 10 12 12 11 14 13 11 12 11 9 9 8 7 6 5 4 3 1 4 8 12 12 13 14 16 18 22 22 22 22 23 26 27 27 28 29 27 27 28 28 29 28 34
25 22 17 12 12 12 11 10 10 10 12 12 12 10 8 6 7 4 2 3 2 1 0 2 6 11 12 14 17 18 20 21 24 26 25 25 26 26 28 30 31 32 30 31 31 33 31 30 31
31 31 25 17 18 15 14 13 11 13 17 14 14 12 9 9 8 6 5 5 5 5 5 8 11 13 14 17 19 22 25 25 25 28 30 29 30 31 31 33 31 33 30 33 35 32 33 35 34
44 36 31 26 24 17 18 16 14 15 17 16 17 14 13 12 10 10 8 7 8 9 12 14 16 17 19 20 22 23 25 26 29 32 33 33 34 34 32 33 36 38 38 36 38 35 33 32 32
46 38 35 30 30 21 24 23 17 21 15 17 20 18 17 16 14 12 12 12 13 15 18 20 21 23 24 25 25 27 26 30 30 31 33 36 36 36 29 35 37 40 45 42 39 38 39 33 35
46 41 36 34 33 27 31 25 28 26 20 22 18 21 21 21 18 17 16 16 19 23 24 26 27 28 28 29 27 27 28 30 31 31 33 39 39 44 37 38 42 44 42 44 46 53 50 38 43
58 51 46 42 38 38 40 32 37 29 25 24 28 26 26 25 24 23 23 22 25 29 30 31 30 31 31 29 29 29 30 32 34 36 36 37 40 39 35 37 48 51 47 46 48 46 42 48 47
64 56 52 50 47 44 44 44 41 32 31 34 35 31 30 30 30 29 30 29 30 33 34 35 32 32 31 31 30 30 31 33 35 37 39 39 47 39 42 38 39 42 53 51 49 46 50 51 53
70 67 63 53 49 43 49 45 45 38 40 41 40 38 35 34 34 33 34 33 34 36 37 38 36 35 34 33 33 33 35 37 40 44 46 45 45 44 38 43 42 49 50 51 53 54 53 57 52
76 74 68 61 56 50 52 50 55 43 44 45 44 42 40 40 41 39 39 38 38 40 41 40 39 38 38 37 35 36 40 42 44 46 45 44 52 45 40 42 47 46 52 53 52 55 58 56 59
88 82 78 73 59 53 51 52 62 49 46 47 48 45 47 46 45 43 42 41 43 43 44 42 41 40 41 40 37 38 41 45 47 50 50 48 46 45 41 40 48 47 51 56 60 64 59 56 52

GFSSGP_250_spd_027.txt.gz
Wind_Speed
25 21 17 9 30 35 35 32 30 26 21 19 20 22 21 21 19 19 21 19 21 26 29 30 32 32 29 28 27 32 35 36 38 40 43 42 43 35 29 24 22 19 11 13 19 19 17 12 8
26 22 20 22 15 28 32 31 30 27 25 27 27 28 26 23 23 22 23 24 24 28 29 29 27 26 25 28 31 32 31 37 37 36 39 40 34 29 25 22 19 10 10 13 16 19 18 13 6
23 26 26 30 28 27 26 26 26 29 31 31 24 24 23 23 25 24 21 22 24 25 23 24 26 26 28 29 29 31 33 34 36 36 34 28 28 25 22 16 12 9 12 14 16 20 19 15 7
19 18 27 30 30 29 28 30 28 30 27 26 24 22 21 17 16 17 16 20 20 21 25 27 28 27 30 29 31 35 37 36 32 29 25 24 22 20 15 10 10 11 12 14 14 18 20 16 11
22 21 24 24 24 25 26 26 25 24 27 26 21 20 21 20 19 16 16 17 19 23 26 27 23 21 23 26 28 31 30 25 22 24 18 18 16 14 12 12 10 8 9 11 14 16 19 19 13
24 27 26 26 22 24 23 22 21 19 16 17 18 21 26 26 26 20 16 20 20 20 23 25 22 22 24 27 27 21 17 19 17 16 16 15 13 13 14 13 12 12 12 11 10 10 14 16 15
26 24 25 30 25 25 24 22 21 20 19 23 26 26 25 22 20 17 14 14 15 18 21 23 22 24 25 17 12 13 13 13 14 13 12 12 15 17 20 21 21 19 16 15 15 10 11 11 11
25 30 30 26 26 27 26 24 21 20 21 22 24 22 19 19 18 18 14 15 18 23 25 22 16 9 8 9 9 8 8 10 13 15 15 17 17 19 22 25 27 30 30 28 24 16 11 11 10
21 25 29 28 26 27 26 23 20 20 22 23 23 22 17 14 15 16 14 19 21 14 5 4 6 6 5 3 4 9 12 13 15 17 15 14 17 19 20 23 27 29 30 29 28 27 20 13 8
16 16 22 22 22 22 21 20 20 19 17 13 11 11 12 11 10 10 13 6 2 3 5 6 4 2 5 9 13 13 14 14 17 17 17 15 16 18 22 24 27 30 32 33 33 31 26 25 16
14 12 17 15 14 17 17 15 15 12 10 9 9 8 6 5 4 4 3 5 6 7 7 3 6 11 13 14 13 13 14 15 16 17 18 18 17 17 20 24 25 26 28 30 31 31 29 29 29
16 12 10 10 12 13 11 12 13 11 9 9 8 5 2 4 4 4 5 7 5 4 7 12 16 16 17 14 13 15 15 17 17 19 19 18 17 15 21 25 26 27 30 30 29 29 30 24 26
9 13 8 9 13 14 17 16 12 12 13 10 5 1 3 3 3 3 5 4 8 13 16 16 16 16 16 15 16 17 17 17 18 16 15 16 15 15 18 19 21 22 29 32 34 33 30 28 27
8 4 12 13 12 17 17 15 12 12 9 6 1 1 3 1 3 5 8 13 16 16 17 17 17 16 16 16 16 16 17 14 15 17 14 19 20 18 21 23 21 20 24 28 34 35 38 38 35
8 2 6 11 15 18 18 14 9 7 5 5 6 4 7 6 8 16 18 16 17 16 17 16 16 17 18 17 16 14 16 17 15 17 16 17 18 15 20 24 25 22 21 24 27 29 32 39 39
9 10 6 2 10 14 14 10 9 11 13 12 8 11 13 17 18 17 15 15 14 15 15 16 16 17 17 16 15 14 14 16 17 17 17 19 20 22 22 24 25 24 24 22 25 26 28 31 34
1 7 10 8 7 9 16 11 15 18 18 17 17 20 19 15 15 14 14 15 14 14 14 14 13 13 10 11 10 8 11 14 17 18 19 20 21 24 25 25 24 24 25 22 23 24 26 31 33
3 3 4 8 8 7 17 20 17 17 19 22 21 17 14 13 14 15 15 16 14 13 12 12 9 5 5 7 11 12 12 14 17 19 20 21 22 23 23 23 23 24 24 23 24 25 26 28 32
10 7 5 7 5 4 4 11 14 16 19 19 18 14 14 14 14 14 13 12 12 10 9 7 5 7 7 8 11 12 14 17 19 21 22 22 23 23 23 25 23 23 23 23 24 26 27 30 32
18 14 11 9 10 7 7 7 11 14 16 17 18 19 16 15 13 11 11 10 9 7 7 5 1 5 8 9 11 13 16 18 19 19 21 21 23 22 25 23 24 24 25 27 26 30 27 30 32
26 24 20 17 14 13 11 12 9 11 12 15 17 17 16 14 12 9 9 9 8 7 6 5 3 6 10 12 14 16 18 19 18 19 18 20 23 26 26 23 23 28 30 32 32 28 32 29 30
34 31 28 23 19 18 18 17 15 14 15 15 16 16 15 14 13 11 10 9 9 8 8 6 7 10 12 15 16 19 20 19 20 19 20 20 22 24 27 26 22 27 33 38 39 38 35 34 37
43 42 35 31 27 24 19 19 19 17 17 18 19 17 15 15 15 15 15 13 11 10 9 9 11 14 15 17 19 22 20 21 20 21 23 25 25 27 31 29 28 29 33 41 38 36 39 41 40
50 49 40 36 35 30 24 23 22 20 20 22 20 21 21 19 20 19 16 14 15 13 13 14 16 17 19 20 21 21 22 21 22 24 26 27 31 34 37 30 33 30 36 40 39 38 42 42 43
56 50 46 39 36 34 31 29 27 28 24 25 25 24 24 24 23 19 18 19 19 19 18 19 21 22 23 24 23 23 22 22 24 28 29 31 35 37 33 37 37 34 37 38 41 46 44 47 47
64 57 49 48 45 43 41 35 37 33 30 26 25 27 28 27 24 22 24 23 23 24 24 25 26 27 27 28 25 24 24 25 26 29 33 34 37 38 34 42 36 35 38 39 45 48 46 50 52
67 64 54 56 54 50 44 45 48 42 33 29 30 34 33 32 29 26 29 28 28 30 30 31 29 29 31 30 27 26 26 27 30 31 34 37 41 43 43 42 38 33 38 41 45 47 46 50 51
74 72 70 59 55 50 52 51 48 48 41 37 39 40 38 36 35 33 34 33 32 32 34 35 35 34 35 32 29 29 29 30 31 34 37 40 45 48 45 42 41 41 42 41 43 46 51 52 54
77 74 75 69 64 59 58 54 54 52 45 40 47 45 44 42 40 39 39 36 36 37 39 38 39 39 36 35 33 34 35 34 35 38 39 43 47 49 47 42 43 45 45 44 47 49 51 54 57
88 84 85 83 70 62 60 57 61 62 52 47 50 50 48 48 46 45 43 42 41 43 43 42 42 40 39 39 38 39 40 39 40 41 42 45 48 51 46 43 44 44 44 49 49 52 56 58 58

GFSSGP_250_spd_030.txt.gz
Wind_Speed
22 20 18 22 24 33 34 30 34 31 29 28 24 18 14 15 16 16 18 20 22 24 28 30 31 35 34 32 34 31 33 36 38 38 41 38 31 27 27 25 19 11 10 11 12 15 13 8 8
23 20 10 19 25 25 32 33 32 29 29 28 24 22 24 19 24 22 21 23 24 26 29 31 33 33 32 32 32 32 34 37 37 44 41 28 27 28 23 18 14 8 9 9 13 15 11 7 10
23 24 18 25 27 20 12 20 29 27 28 25 26 23 21 21 25 24 23 22 25 27 27 25 27 28 31 33 34 36 37 34 35 37 32 28 26 21 18 13 11 7 6 9 13 15 12 9 7
26 29 34 24 17 29 20 18 21 26 26 27 28 25 25 28 27 21 21 20 20 20 19 23 26 28 31 34 31 27 29 32 31 27 27 23 18 16 14 13 11 9 8 7 11 13 14 11 7
24 27 36 31 32 25 25 22 24 26 25 25 24 25 24 21 21 22 19 20 18 20 24 28 28 31 30 27 27 28 28 25 22 23 19 14 14 13 14 13 12 12 11 10 8 8 13 16 12
23 29 32 27 23 23 22 24 23 22 25 25 21 17 19 22 25 25 24 18 19 23 22 21 21 24 26 28 27 25 21 19 17 12 11 13 14 18 19 23 25 23 18 14 12 8 8 10 11
24 23 26 26 27 22 24 23 22 22 22 22 21 22 23 26 24 25 21 17 15 16 18 21 25 28 27 22 18 16 13 9 10 11 13 18 18 19 21 24 26 26 24 23 20 15 10 9 9
24 27 31 31 26 29 26 27 24 21 22 23 22 22 24 23 21 19 19 16 15 16 22 25 21 15 12 12 12 6 7 11 13 13 15 16 18 19 22 25 29 33 34 34 31 25 21 14 9
17 21 23 27 27 31 30 27 25 22 23 22 24 21 24 24 19 15 15 14 16 20 16 7 8 9 10 5 6 10 13 14 15 16 15 16 20 21 23 25 30 30 34 37 40 31 25 30 27
7 25 16 25 28 26 25 24 24 24 24 23 23 22 21 19 15 13 11 11 9 7 7 7 9 4 4 10 11 13 14 17 18 17 19 19 18 22 28 30 33 33 31 36 36 36 29 26 22
21 15 21 25 26 24 23 23 21 20 19 18 18 14 10 10 9 7 5 5 5 7 8 5 1 10 12 12 13 15 18 18 20 19 19 19 16 19 22 25 29 35 23 35 43 19 28 26 23
20 13 27 22 19 20 15 15 16 13 11 10 7 5 5 6 4 5 6 4 5 5 1 6 12 14 13 13 17 18 20 20 18 19 21 20 16 21 26 26 23 28 27 33 33 41 41 38 38
26 17 16 12 10 10 12 12 9 10 11 12 11 6 4 5 7 7 3 1 1 4 12 14 14 14 16 17 17 15 15 18 19 17 20 20 18 17 23 23 24 19 20 22 24 23 25 29 32
8 2 10 8 10 9 13 12 12 11 13 14 12 7 4 5 3 5 6 6 11 14 14 15 15 17 17 16 19 19 18 18 19 19 19 19 20 19 23 26 23 22 18 16 18 19 22 26 28
10 6 4 10 10 11 11 14 13 12 16 16 13 7 8 11 7 7 11 15 16 16 15 15 19 19 19 16 15 16 18 18 18 18 18 19 21 23 23 24 23 23 22 20 23 23 23 26 32
6 6 3 3 9 12 18 16 15 17 17 15 13 12 12 14 14 15 15 16 16 14 15 16 16 16 13 10 10 12 13 16 17 18 19 19 21 21 22 22 22 24 24 24 26 25 27 28 31
1 6 6 4 3 12 17 10 7 12 15 17 16 17 19 19 18 16 15 14 15 15 15 13 11 8 10 13 12 12 13 14 16 17 17 18 19 20 21 22 20 20 20 22 24 28 26 31 29
7 5 3 5 6 8 9 6 3 10 14 14 19 21 19 17 16 16 15 15 16 14 13 10 5 7 9 10 12 13 14 14 13 14 15 16 17 19 21 19 19 19 19 23 22 28 29 32 29
13 10 7 6 4 3 11 18 6 9 12 14 16 16 17 17 16 16 16 14 13 12 10 7 7 7 7 9 10 11 14 14 13 14 13 12 13 16 19 21 15 18 20 26 29 30 28 31 33
21 16 13 10 22 18 7 9 10 13 11 12 12 14 17 19 19 18 15 13 12 10 10 5 3 4 8 9 11 12 14 15 14 15 17 15 14 17 21 24 23 21 20 26 30 30 28 30 32
28 24 20 16 16 15 12 10 8 9 11 11 14 16 16 18 18 17 16 15 13 10 9 7 3 5 8 10 12 14 15 15 16 18 19 18 21 22 22 26 25 29 21 27 35 32 30 31 36
33 34 29 24 19 20 19 15 15 13 11 11 14 16 15 15 16 16 15 14 12 11 10 8 5 5 8 11 14 16 16 16 17 18 19 22 23 24 26 26 21 20 26 32 31 34 30 33 33
39 42 38 32 28 25 22 21 21 18 18 17 17 18 16 15 16 16 15 14 14 12 10 9 8 8 10 13 15 17 19 19 18 18 21 24 26 29 31 31 29 29 30 31 32 36 37 38 36
48 45 45 39 35 31 29 26 25 24 23 19 24 22 21 20 20 20 18 16 14 13 11 10 11 13 13 16 18 19 20 20 19 20 23 25 28 30 33 36 36 35 33 31 32 37 39 40 40
57 51 47 43 36 33 36 28 28 28 21 22 25 25 27 26 26 23 20 17 18 16 15 14 16 17 18 20 20 21 23 21 20 21 24 27 30 33 35 38 39 37 34 32 35 36 41 37 39
63 63 54 51 47 44 41 35 34 33 31 22 31 28 29 30 29 25 22 20 20 20 18 20 21 22 23 23 22 25 24 24 24 24 26 30 33 36 38 40 45 45 38 36 38 42 40 37 40
66 67 61 57 55 51 44 45 44 44 39 38 42 32 32 32 31 27 25 25 24 24 24 25 26 26 26 26 26 27 26 26 28 28 29 32 36 39 41 44 45 48 44 44 41 40 42 44 48
72 71 73 65 59 51 53 51 46 49 47 44 41 35 39 38 38 32 31 30 31 29 29 30 30 29 30 30 30 31 29 30 32 32 33 35 37 43 44 47 49 52 51 44 44 45 47 50 52
74 77 75 76 69 61 58 52 53 54 53 53 46 43 39 45 41 37 37 35 34 34 34 35 34 32 33 33 34 34 33 34 35 36 35 37 40 42 47 50 52 54 55 49 47 47 51 51 51
58 72 79 82 76 70 65 57 59 60 62 56 53 48 44 56 51 43 42 40 38 40 39 38 37 36 36 35 37 38 38 38 38 40 40 42 44 46 48 50 55 57 54 52 52 50 50 54 57

GFSSGP_250_spd_033.txt.gz
Wind_Speed
22 19 15 8 11 16 22 20 25 30 29 25 21 14 12 12 10 21 18 18 18 22 25 26 28 31 37 36 40 39 37 37 39 42 40 39 36 31 25 22 20 16 11 13 16 16 12 9 10
23 20 19 23 22 21 19 30 33 26 30 29 27 23 18 21 27 22 19 18 20 24 26 29 31 35 37 36 33 36 36 36 30 32 36 32 29 25 21 19 17 13 11 12 14 14 12 9 10
21 19 18 21 23 22 30 23 22 25 25 26 24 24 22 22 23 22 24 24 22 25 27 28 29 29 28 30 32 32 29 30 31 33 27 25 22 18 17 17 15 13 9 8 11 12 11 7 8
20 5 8 23 23 27 25 26 21 18 23 26 25 26 25 22 25 26 27 23 22 25 21 20 23 24 29 32 31 26 30 30 29 24 20 16 16 18 17 17 15 13 10 7 5 11 14 11 5
26 20 25 9 27 23 25 26 24 21 24 24 24 22 23 25 24 22 22 24 26 25 22 22 24 25 24 23 26 27 27 22 18 13 15 17 17 19 21 22 21 20 16 9 3 4 8 15 12
24 21 12 33 37 33 37 30 23 22 22 22 23 23 22 20 20 23 25 25 21 18 19 20 19 22 26 28 27 22 16 10 11 13 17 15 18 21 24 26 26 27 22 20 12 8 7 8 10
20 19 36 35 37 34 36 30 23 20 21 21 19 22 22 23 24 24 24 23 17 17 15 15 19 24 23 17 14 11 8 10 12 13 15 17 20 22 24 27 30 32 29 26 25 24 18 10 11
20 35 41 35 37 37 35 30 24 22 20 17 20 20 23 24 25 24 22 19 15 13 15 18 20 11 11 12 7 12 11 12 14 16 18 19 24 25 27 27 35 27 30 32 25 30 33 27 14
20 16 29 29 28 21 27 35 30 22 21 17 20 21 25 24 23 22 18 13 12 14 14 8 8 11 7 10 13 11 11 14 19 20 17 22 24 23 25 27 27 33 28 30 28 28 26 21 25
34 35 26 19 18 22 20 27 29 21 21 19 21 25 24 22 21 19 16 10 11 7 5 7 7 5 11 13 10 11 17 21 21 19 19 19 21 23 25 28 32 37 38 33 39 38 38 33 27
22 31 21 22 23 26 29 25 23 20 22 18 19 18 17 14 9 7 7 6 4 3 5 4 8 12 12 11 13 18 19 18 19 21 19 16 22 22 21 13 15 19 28 31 32 33 37 35 33
31 26 23 19 26 29 27 22 21 18 18 15 11 7 5 4 7 6 5 2 2 1 5 12 14 12 11 13 15 18 18 15 16 16 19 14 13 18 19 17 13 14 16 17 21 21 20 20 22
29 27 22 21 24 20 16 14 13 12 9 8 11 11 8 8 8 5 4 5 6 11 17 16 14 13 13 15 15 17 18 18 17 17 18 19 17 17 15 18 17 13 14 17 20 21 21 27 27
25 25 26 20 17 10 11 7 7 7 8 10 10 11 10 8 6 5 6 10 17 19 17 15 16 14 16 17 18 16 15 15 16 16 15 16 17 17 18 16 16 16 15 14 19 22 23 24 26
4 8 5 8 13 12 11 7 8 10 10 12 13 15 19 12 12 12 15 17 19 19 16 17 18 16 14 14 13 13 14 13 14 15 15 16 17 17 17 18 15 15 18 20 20 19 26 25 24
4 5 2 2 6 9 10 9 9 13 12 15 14 18 17 16 18 21 19 19 19 17 18 16 14 10 10 11 13 11 12 12 12 12 13 14 15 15 18 18 16 15 17 20 21 22 24 24 24
7 4 1 6 4 5 9 10 8 7 17 20 15 16 17 19 23 21 22 21 19 19 18 14 9 12 12 11 12 11 11 11 11 13 14 12 15 18 20 14 13 15 17 23 27 26 24 24 25
14 9 4 1 1 5 10 9 9 16 12 15 15 14 18 20 18 20 20 20 20 19 15 9 9 9 9 9 9 9 10 11 11 15 16 15 16 19 19 21 15 15 14 21 27 29 26 23 27
18 16 11 8 2 4 8 16 2 7 9 10 14 17 17 17 17 18 18 19 18 16 13 10 8 7 7 8 8 9 10 10 12 15 15 15 17 17 18 22 21 18 14 15 24 28 26 23 25
22 21 20 12 15 10 13 14 19 8 10 14 13 12 14 17 18 21 21 19 16 15 12 9 4 4 5 6 7 9 12 14 14 16 16 16 17 20 24 24 22 21 21 22 29 29 27 24 25
27 29 27 16 17 19 12 12 11 10 11 11 9 14 15 17 20 20 18 17 15 15 13 9 6 2 2 4 7 11 14 15 16 16 14 17 19 23 26 27 27 27 28 28 27 27 28 28 31
32 37 34 25 19 22 19 16 15 11 11 12 12 16 15 17 19 19 18 17 16 14 12 9 7 5 4 6 10 14 15 16 17 15 15 18 22 25 27 28 31 35 34 31 31 30 30 30 32
44 40 39 34 28 27 22 21 23 19 18 17 16 16 15 15 14 15 15 15 14 12 10 9 7 8 8 9 13 16 17 19 19 18 18 20 24 26 30 32 35 37 40 39 35 35 35 33 33
53 44 43 40 33 26 25 25 24 23 24 22 19 16 19 17 16 17 16 15 15 13 11 11 11 11 12 13 16 16 18 19 20 19 20 21 22 25 28 33 36 38 40 40 41 37 35 33 32
54 53 46 43 35 29 33 28 28 27 26 24 21 24 24 23 21 21 21 19 17 15 14 13 14 15 15 19 19 19 19 20 21 21 23 26 27 28 32 33 36 39 42 44 44 42 36 34 34
60 58 54 49 45 45 42 33 37 33 31 28 25 21 26 27 26 26 25 23 21 18 18 17 17 17 19 22 22 22 23 23 24 24 24 26 30 33 33 35 36 40 42 45 44 46 45 39 39
59 58 62 60 55 50 42 41 43 40 34 32 28 26 29 24 22 23 25 27 27 21 22 22 20 21 23 25 24 25 25 24 26 26 25 27 30 34 37 38 40 40 44 49 53 48 44 42 41
41 53 65 64 59 54 51 50 44 45 42 40 37 37 30 35 35 31 38 32 32 25 25 26 25 26 27 28 28 28 28 27 27 27 27 30 35 37 39 39 42 45 46 49 53 54 49 46 48
41 37 50 68 68 63 59 51 56 54 51 46 48 47 43 43 38 41 40 37 33 30 30 31 29 30 30 30 31 31 32 30 31 31 30 31 38 42 39 41 44 47 50 52 54 55 53 48 48
42 40 41 52 63 71 67 55 62 66 58 53 54 52 50 50 39 47 44 40 36 35 34 35 34 34 34 34 35 35 35 34 34 35 35 37 41 46 44 45 46 48 51 55 55 58 56 54 53

GFSSGP_250_spd_036.txt.gz
Wind_Speed
20 16 12 11 11 8 11 13 19 16 19 27 30 28 18 15 17 17 21 23 19 22 27 25 27 31 35 37 38 38 35 38 34 33 36 33 30 24 22 21 20 19 15 15 17 16 9 9 13
23 19 15 14 13 12 16 21 19 22 24 27 27 25 24 21 22 24 21 20 21 25 27 27 29 32 35 34 31 31 33 28 34 33 31 26 18 18 19 18 18 16 12 14 17 13 7 7 8
24 19 17 18 22 22 18 26 26 19 22 25 27 26 24 24 24 23 23 25 25 25 26 26 26 27 27 24 29 29 28 29 31 27 17 14 19 19 19 18 16 14 11 11 11 15 9 3 6
23 13 13 18 27 32 29 31 32 25 19 18 18 20 24 29 28 26 26 24 24 24 25 25 24 23 26 26 26 27 29 27 21 11 15 19 19 19 18 18 16 13 11 7 4 10 11 4 4
20 12 5 7 10 19 21 29 27 25 23 26 25 25 25 25 24 24 23 23 25 24 22 21 23 23 20 21 28 24 19 12 8 12 16 17 18 20 20 20 18 16 14 8 4 3 6 10 3
23 11 8 11 15 22 24 30 29 30 30 29 27 25 25 24 22 23 23 24 23 23 20 17 16 16 20 21 13 12 7 9 9 14 17 16 19 21 23 21 25 25 23 22 12 8 8 6 7
26 14 15 20 27 25 32 36 37 39 34 29 27 23 22 19 21 22 22 23 21 19 18 15 14 19 11 11 7 8 10 9 11 17 16 20 18 17 20 18 22 25 23 27 27 23 13 10 9
28 13 12 26 31 30 31 27 23 26 24 24 21 22 23 21 21 22 22 19 17 13 12 15 11 9 7 8 10 10 11 10 15 19 19 18 20 18 26 28 21 26 23 21 23 19 20 20 8
34 30 26 17 18 27 24 22 22 24 22 20 20 21 22 21 23 23 21 17 11 10 9 5 7 6 11 11 9 11 15 15 16 15 15 19 18 25 32 30 31 38 36 34 31 32 26 20 23
28 32 28 17 12 14 11 14 23 24 22 22 17 20 21 22 22 19 15 11 5 2 2 4 7 12 11 10 12 16 17 15 15 13 12 18 12 11 13 25 27 23 22 25 25 26 25 22 21
36 35 33 28 20 17 22 23 25 20 18 19 15 16 19 17 13 7 3 1 3 2 3 9 14 12 12 13 14 14 16 14 14 13 9 12 13 12 11 8 6 9 17 18 14 17 14 12 16
36 43 44 39 29 25 23 25 20 15 14 16 16 12 10 5 1 1 2 5 4 4 12 16 14 13 14 14 14 14 13 15 14 14 12 10 11 13 13 10 9 12 17 19 17 18 20 14 8
28 35 36 30 25 28 29 22 17 14 14 13 9 5 6 3 3 4 5 4 5 15 19 17 13 13 12 14 15 13 12 12 12 11 12 11 11 11 12 15 14 11 12 18 19 20 21 24 18
19 30 33 35 32 32 22 19 14 14 11 8 5 5 4 7 10 8 5 7 19 22 19 16 16 18 18 15 13 12 11 11 11 11 13 13 15 16 17 14 13 16 19 18 18 20 18 17 21
6 16 27 27 24 21 22 17 17 10 8 8 6 6 8 12 16 10 11 20 22 21 17 19 18 16 14 13 11 10 11 11 12 15 16 20 18 20 18 16 11 12 20 22 24 19 15 17 17
11 9 7 10 9 16 15 12 14 8 6 7 9 9 11 15 15 18 23 22 21 19 22 21 15 13 13 12 9 7 10 11 14 17 17 16 18 18 21 14 13 13 14 18 23 23 19 18 18
16 13 10 5 2 10 8 10 9 8 6 8 14 12 10 13 20 25 25 24 21 23 22 17 17 15 13 10 7 9 10 11 14 16 15 16 16 20 19 20 18 18 22 23 25 25 21 20 20
20 16 14 5 6 6 9 9 9 11 6 12 10 10 13 18 25 23 24 23 21 21 18 17 14 13 11 7 6 7 10 12 12 14 14 14 17 21 24 23 22 21 25 24 27 27 23 23 22
23 23 17 12 7 9 11 7 6 3 4 5 9 14 19 22 22 23 22 20 22 20 15 16 13 12 9 6 5 7 11 13 11 12 12 15 20 21 23 26 28 29 29 26 26 26 27 27 26
26 27 24 17 14 6 7 13 9 6 6 10 13 19 20 18 21 23 24 24 23 20 16 16 11 9 6 3 3 7 10 10 10 9 11 15 18 18 22 25 28 30 32 34 31 28 28 28 28
31 32 28 24 18 17 12 12 10 7 9 14 12 11 14 17 20 23 24 24 22 20 16 14 11 6 3 1 4 7 10 11 11 11 11 14 17 19 22 25 28 31 32 33 35 34 31 30 28
37 41 32 29 24 21 16 16 12 9 13 15 10 12 14 17 19 19 20 21 20 17 13 10 8 6 3 4 5 9 11 12 13 13 14 16 17 20 24 26 29 32 33 32 33 36 35 34 31
54 42 38 33 29 22 14 21 17 13 17 16 15 15 14 15 19 20 17 16 14 12 11 11 9 8 7 6 8 11 12 13 14 15 16 17 18 20 23 26 29 31 33 35 35 37 37 35 32
57 44 43 37 32 25 23 20 18 20 19 19 20 18 17 18 18 19 18 16 16 15 13 13 12 12 11 9 10 13 14 15 16 15 15 17 20 22 25 27 28 29 33 36 38 39 39 37 38
58 53 49 42 34 31 36 26 28 24 26 24 23 21 19 21 23 24 21 18 17 16 14 13 14 14 15 13 14 15 16 16 18 17 17 19 22 25 26 27 29 33 35 36 37 37 38 37 37
59 56 54 50 44 45 44 33 39 33 32 28 25 24 21 26 27 28 24 20 19 18 15 16 18 17 18 17 17 18 18 18 19 20 18 19 24 27 28 29 31 33 36 39 39 40 40 39 38
36 52 61 55 52 47 43 41 42 38 34 31 32 30 29 29 34 32 28 25 26 23 19 20 22 21 20 21 21 21 21 20 22 22 21 21 25 29 29 31 34 36 38 41 41 42 44 44 43
32 35 51 57 58 54 51 47 45 47 43 41 38 35 35 33 30 32 31 33 27 28 25 26 27 26 25 24 25 26 25 24 26 26 23 24 28 32 34 33 34 38 40 44 45 45 46 49 50
40 36 36 47 60 60 55 48 52 54 50 46 45 45 43 38 31 37 34 31 27 29 27 32 31 32 29 29 28 28 29 29 30 30 28 27 30 35 38 39 38 40 42 45 49 50 51 51 53
42 39 39 40 44 57 61 54 63 60 57 55 48 47 46 44 40 40 42 43 38 32 33 35 38 36 35 32 32 32 32 33 35 34 33 35 36 38 41 41 42 43 45 47 49 53 53 53 52

GFSSGP_250_spd_039.txt.gz
Wind_Speed
19 19 19 16 20 21 14 14 19 21 22 16 16 22 24 25 28 28 22 22 26 25 24 25 29 32 33 36 38 34 31 31 31 32 32 24 15 16 19 20 18 16 11 14 14 9 8 11 11
22 21 17 19 16 17 19 21 18 19 23 22 21 22 23 20 19 20 22 22 22 24 26 24 27 32 35 32 28 28 29 30 29 27 16 12 14 17 17 17 18 17 12 10 11 12 10 10 9
22 19 15 15 16 18 23 23 25 25 25 25 26 21 18 19 20 22 21 21 25 25 25 23 27 29 29 26 28 28 28 24 21 9 10 14 17 17 17 19 19 17 14 10 13 16 8 6 6
23 21 20 18 21 24 23 24 23 29 33 29 30 22 27 25 25 23 20 24 25 23 26 23 21 20 23 22 21 24 15 14 7 8 11 15 16 19 19 20 20 18 14 11 8 10 12 5 3
26 24 20 19 18 22 28 28 30 32 31 30 28 26 28 27 26 24 25 23 25 25 26 22 17 17 17 20 15 12 8 6 7 11 13 16 16 18 20 22 22 22 20 13 11 7 7 9 5
26 19 11 18 18 22 17 20 25 25 27 29 34 35 31 30 30 28 23 23 23 25 23 16 14 15 17 11 9 8 6 6 9 11 15 16 15 17 17 20 19 24 26 26 18 10 7 8 9
25 14 15 20 24 21 19 21 28 27 29 33 30 27 28 28 26 25 22 20 23 22 15 11 14 10 11 5 8 7 7 9 14 14 16 15 18 22 18 21 23 23 26 24 23 24 12 12 11
31 14 9 16 16 18 25 30 30 29 31 25 23 22 23 27 25 23 20 22 21 15 8 9 5 8 4 9 8 8 10 13 13 13 15 20 22 23 28 32 32 30 30 29 28 23 24 18 16
37 26 17 22 18 27 30 33 33 24 22 20 18 18 20 23 23 22 22 21 16 5 3 3 4 7 8 7 8 11 11 11 10 13 15 12 17 20 22 21 21 25 20 23 21 19 19 13 13
39 35 29 21 21 22 22 25 24 22 23 25 22 15 18 21 21 21 19 11 3 2 1 1 8 9 7 9 12 11 12 10 7 7 13 14 14 11 13 10 13 19 13 14 15 15 13 14 10
42 48 43 29 24 24 19 18 21 28 28 25 19 15 16 19 12 8 1 6 6 4 3 9 11 9 9 11 13 12 10 11 10 8 12 13 13 12 10 9 9 17 13 16 17 16 12 12 11
34 41 42 42 33 34 31 27 27 27 24 18 16 14 11 7 0 6 7 5 5 3 9 13 11 10 13 13 13 12 11 11 13 13 13 12 12 12 14 13 13 15 16 21 19 13 17 15 12
28 36 38 40 41 39 35 33 38 37 25 15 17 13 6 3 2 3 2 5 4 8 14 13 13 10 12 14 12 11 11 12 15 16 16 16 17 13 11 15 20 20 16 19 16 16 15 15 13
9 23 34 32 35 36 39 34 32 23 16 14 16 12 11 7 1 3 7 8 9 14 16 15 15 15 14 13 12 12 11 14 16 16 17 18 20 18 17 13 14 18 18 23 25 17 20 19 14
10 9 12 17 23 27 32 32 24 21 19 20 13 10 10 7 4 7 10 11 19 17 17 19 18 16 13 11 11 11 13 15 15 15 14 15 18 20 20 14 14 17 20 21 25 22 18 18 17
15 9 8 12 16 23 30 29 21 21 21 15 8 7 7 6 5 8 14 22 21 18 18 18 17 13 11 11 11 12 13 15 15 15 15 18 21 26 26 24 22 21 21 22 22 22 20 21 19
17 15 13 12 10 13 17 16 15 18 14 12 7 11 7 9 7 14 25 24 20 19 19 16 14 13 10 11 11 12 14 13 12 12 16 21 21 26 27 28 29 30 29 26 23 24 24 23 24
17 20 18 14 8 5 7 8 5 11 13 13 10 9 7 9 16 26 26 24 22 21 17 16 15 12 9 9 9 10 10 9 10 12 15 17 19 22 25 28 29 29 30 30 28 25 24 24 24
22 22 22 18 11 8 9 6 9 12 11 6 8 9 12 15 26 29 28 27 27 22 18 15 14 10 8 7 8 10 10 11 10 11 14 15 16 19 22 26 28 30 32 32 32 32 32 29 25
30 25 26 21 19 7 9 14 7 5 4 3 6 8 15 21 25 25 23 24 27 23 18 16 14 10 6 6 8 9 9 10 11 11 11 11 14 17 21 25 26 28 30 32 34 35 35 33 31
36 33 29 26 20 17 9 9 8 4 5 8 11 14 17 22 23 26 26 25 26 22 20 15 11 8 4 3 6 7 7 8 10 11 10 12 14 18 21 22 24 28 30 31 32 33 32 32 31
43 45 34 29 26 25 16 13 16 10 9 14 15 14 13 14 19 21 22 19 23 20 16 12 10 7 5 1 3 6 6 7 9 9 10 11 14 16 18 20 23 26 29 32 34 35 35 34 32
55 41 39 33 28 26 21 20 15 14 16 18 19 15 14 15 17 18 20 17 17 20 19 16 13 13 10 6 2 3 6 8 10 10 9 11 12 15 17 21 23 26 28 31 34 36 37 37 36
58 46 43 38 32 22 27 25 25 24 17 21 20 20 18 16 20 22 23 22 20 20 18 17 16 15 14 10 8 7 7 8 11 13 13 16 18 19 18 20 23 25 28 31 34 37 37 38 39
59 54 48 41 36 36 38 31 29 27 26 23 21 19 20 21 22 22 23 23 23 21 20 19 17 16 16 16 13 11 11 10 11 13 16 18 20 21 21 22 24 27 29 31 34 36 36 37 38
37 55 50 48 42 47 40 34 39 34 27 26 24 23 21 23 23 26 24 23 23 21 23 22 19 17 18 18 17 15 15 14 14 15 17 20 22 22 23 23 25 28 31 33 34 36 37 38 39
29 25 50 53 48 45 40 41 38 34 32 31 29 27 29 27 26 27 28 28 26 25 23 22 20 19 18 19 21 19 19 19 17 18 20 21 23 24 25 27 28 30 33 35 37 39 39 40 41
26 30 28 37 53 50 46 46 47 41 39 37 34 32 34 34 31 31 33 31 31 27 26 28 25 25 22 21 23 25 24 24 22 21 23 26 26 26 27 30 31 32 34 39 41 43 44 45 46
37 33 28 27 35 52 50 49 53 50 47 44 40 40 40 39 37 35 35 35 37 32 33 34 30 28 29 24 25 30 30 29 28 25 27 28 29 30 31 33 34 36 37 41 45 47 49 51 52
43 38 34 22 20 28 45 55 60 57 53 49 45 45 46 42 38 36 38 35 35 37 36 31 30 32 31 30 26 30 35 34 33 33 31 31 33 34 35 35 36 38 41 44 49 51 52 54 57

GFSSGP_250_spd_042.txt.gz
Wind_Speed
21 21 22 24 20 24 19 25 25 23 19 24 25 21 23 26 29 30 25 20 21 22 26 23 24 30 33 36 37 37 32 31 32 24 17 17 17 19 20 22 20 16 10 14 14 11 12 11 13
20 21 22 22 22 27 28 25 24 18 19 20 22 22 25 26 22 22 22 21 24 23 24 25 20 28 33 34 32 28 28 27 19 14 14 16 19 20 21 22 20 13 12 12 16 11 10 10 8
18 19 20 21 21 24 30 26 24 21 22 25 27 31 30 27 29 28 25 25 24 22 22 14 22 29 24 21 20 22 22 14 11 12 13 15 19 23 22 24 21 16 11 9 13 14 7 6 6
23 23 19 17 16 17 17 20 19 22 26 27 30 30 31 24 28 30 28 24 23 22 22 17 25 21 19 19 21 12 11 9 10 10 11 13 18 20 20 21 21 22 17 11 8 12 13 4 4
27 26 23 21 19 21 20 18 21 25 26 30 30 30 29 33 35 32 30 27 25 22 21 22 21 14 15 15 11 7 9 8 8 8 11 15 16 19 20 16 21 24 26 20 16 12 12 11 4
30 30 26 16 21 20 20 20 18 21 21 22 27 31 36 35 34 30 27 25 21 20 21 18 13 12 9 10 6 7 8 6 8 10 14 15 20 20 20 23 25 23 20 25 18 16 13 12 11
36 35 31 21 19 22 20 20 18 18 23 22 24 26 29 29 29 29 23 22 19 21 19 12 8 6 6 6 6 6 6 10 10 13 14 14 17 21 25 28 26 28 27 25 25 19 15 13 13
33 33 30 25 22 20 19 17 17 21 21 23 33 26 30 27 24 24 24 21 21 18 11 4 5 3 6 7 6 5 7 8 11 13 18 17 16 19 20 26 26 22 24 24 24 20 17 17 17
29 31 28 25 21 17 14 17 26 26 28 33 33 30 31 24 21 22 24 22 18 10 3 2 2 7 7 7 8 7 7 6 9 14 14 13 8 13 18 23 23 19 22 24 23 20 20 19 18
31 32 28 22 20 18 18 20 24 29 27 25 28 28 30 22 18 20 20 14 5 4 2 1 7 8 9 10 10 11 11 11 9 15 17 16 13 16 19 18 21 23 25 22 21 20 19 15 16
30 36 38 32 26 18 15 15 17 19 23 25 26 29 25 18 16 9 5 5 8 5 3 8 8 10 12 11 11 13 15 16 19 19 19 17 16 18 18 17 18 18 21 19 17 17 19 16 14
29 35 39 43 38 31 28 26 27 30 31 29 32 26 19 14 7 4 6 8 6 4 6 11 10 14 12 10 14 14 16 19 21 20 19 21 18 17 21 21 19 22 26 21 15 16 19 18 18
11 28 38 45 46 45 43 45 48 40 38 34 25 22 12 11 6 6 5 4 5 7 11 10 14 13 13 13 14 15 18 19 20 20 23 25 22 20 14 15 18 21 20 22 23 20 18 17 17
9 7 21 36 40 44 42 41 42 38 32 24 12 14 13 15 8 5 5 5 5 12 13 12 14 14 13 14 15 16 17 19 18 19 22 23 21 20 16 14 15 18 19 21 22 19 19 19 17
13 10 9 10 17 27 31 27 27 28 20 20 10 15 16 13 10 5 4 9 10 17 15 16 16 14 13 15 16 16 17 19 18 20 21 26 29 27 25 23 26 26 24 23 23 23 20 23 23
16 13 13 11 14 15 17 21 22 20 14 17 13 15 14 15 10 5 8 13 18 19 19 17 15 13 14 14 15 14 16 18 18 19 21 24 25 25 24 25 28 29 27 24 23 23 23 21 24
17 17 17 16 13 15 17 11 12 11 10 14 13 14 16 11 9 8 13 20 23 21 20 17 14 13 14 13 12 13 15 16 17 18 19 21 21 24 25 27 28 29 29 29 29 29 30 28 24
21 20 22 21 15 15 10 4 9 10 8 14 13 14 15 8 10 12 19 24 23 24 21 16 14 13 13 11 10 11 12 13 15 16 16 17 21 21 24 26 27 28 29 31 33 33 31 30 31
28 24 24 22 20 17 9 8 9 13 10 13 17 18 17 10 13 20 26 23 23 24 21 19 15 13 12 9 8 10 11 12 12 11 12 15 18 19 21 23 23 26 29 32 34 34 34 34 31
35 30 29 25 21 17 10 11 9 10 7 6 9 14 12 11 14 26 24 21 23 20 20 20 16 13 10 9 8 7 8 10 10 9 10 13 17 18 20 22 23 26 28 30 31 31 34 34 33
43 40 34 28 23 19 15 10 14 6 6 5 7 12 13 13 20 25 23 22 22 17 17 15 13 12 10 8 6 6 7 9 9 10 11 12 13 14 17 19 22 24 25 26 28 30 32 33 35
49 46 38 30 27 22 17 16 17 10 5 5 10 13 16 19 19 20 21 20 23 17 16 13 12 12 10 8 5 5 5 7 8 9 10 10 10 11 14 16 19 22 23 25 26 28 30 33 33
56 46 41 36 29 22 19 20 16 20 13 10 11 15 16 19 22 21 21 20 22 20 19 19 15 13 9 7 4 1 3 4 6 8 9 10 11 12 13 16 18 20 22 25 26 27 31 33 33
57 50 44 40 34 26 29 28 25 25 18 16 16 15 17 20 22 22 21 23 26 26 24 22 19 16 13 10 7 4 5 7 8 9 12 14 14 15 14 14 18 20 22 25 27 30 32 33 35
52 56 50 43 36 37 42 30 32 24 25 19 21 19 16 19 23 23 23 25 27 26 25 22 18 15 14 13 12 9 9 10 11 12 12 16 17 16 17 16 18 20 23 26 30 31 33 34 37
35 46 50 52 45 48 36 37 37 30 26 26 23 24 20 20 22 25 26 27 26 23 21 20 18 16 16 17 16 14 12 13 15 15 15 17 17 18 18 18 21 22 24 28 31 33 34 37 39
36 24 44 51 48 45 41 46 37 33 29 29 30 25 28 27 26 26 28 29 27 23 22 20 20 19 17 19 21 20 17 16 18 19 20 21 23 22 21 21 22 25 27 28 31 35 37 41 41
31 31 24 31 48 52 49 48 46 41 37 36 31 31 33 30 27 28 28 29 29 26 23 23 23 22 20 20 22 23 24 18 18 22 23 24 27 30 26 25 26 28 31 33 35 37 39 44 47
36 30 25 27 28 41 53 52 55 48 46 43 40 38 36 34 31 28 27 28 30 27 26 28 29 28 26 26 28 26 27 26 21 20 26 27 29 31 30 30 32 32 33 36 37 38 42 46 51
43 38 31 21 25 29 37 51 56 52 48 45 43 41 39 39 37 33 32 30 30 33 33 35 32 35 33 30 34 33 31 30 29 25 25 28 32 36 33 33 35 37 38 40 42 43 44 47 52

GFSSGP_250_spd_045.txt.gz
Wind_Speed
22 26 27 26 24 22 15 19 23 23 18 19 21 22 23 25 26 24 25 24 26 23 26 25 30 34 35 33 36 33 26 24 23 13 12 16 19 23 25 25 18 9 13 15 14 16 15 15 14
23 23 25 25 26 20 23 20 25 23 19 20 18 21 24 28 29 26 26 27 29 27 27 29 29 23 26 30 25 23 22 16 9 10 14 16 20 21 25 23 20 14 11 16 12 12 13 13 10
21 22 21 23 27 24 23 24 25 24 24 22 26 26 30 29 29 28 30 32 29 28 25 23 20 21 28 21 18 16 11 7 9 14 15 19 21 24 22 23 22 16 11 12 16 9 7 8 6
26 23 23 23 24 24 23 25 28 25 24 25 21 25 25 25 30 33 38 33 28 27 23 21 21 24 16 14 13 11 6 8 13 15 18 19 26 24 21 20 27 25 18 11 11 14 9 4 2
30 28 25 23 22 23 19 17 15 19 22 18 18 16 23 26 29 31 33 28 26 24 21 21 20 15 12 12 6 7 9 12 13 17 18 23 24 28 29 31 31 29 31 20 15 13 14 11 8
34 31 31 28 28 25 22 18 17 16 16 14 12 17 22 26 33 32 32 27 22 21 19 20 14 10 11 5 7 9 10 12 15 15 16 19 22 28 30 27 29 29 28 25 20 20 20 19 16
35 35 34 30 31 30 28 25 19 20 21 18 19 20 25 34 33 36 30 24 22 19 19 14 8 10 5 7 8 10 10 13 15 15 18 16 20 22 25 24 22 25 25 24 24 24 22 21 19
34 36 37 32 32 33 26 24 24 17 20 22 21 23 31 27 31 33 30 24 22 19 14 6 6 5 6 8 9 10 9 12 15 15 12 12 17 23 23 26 25 26 25 24 23 24 23 21 21
31 31 31 29 31 29 27 25 26 25 23 22 27 29 23 22 28 29 26 24 21 13 4 1 4 6 8 10 11 11 10 10 14 14 17 19 20 20 22 23 25 23 24 25 25 23 19 19 17
29 30 30 29 28 30 31 29 28 20 19 21 20 20 24 24 28 24 24 18 9 1 4 5 9 8 13 13 13 15 16 16 17 18 17 17 19 22 20 21 26 24 20 19 19 20 18 18 17
27 30 31 30 32 31 33 32 25 21 22 20 21 24 30 37 24 19 16 4 5 6 5 11 9 12 14 13 15 16 18 18 19 20 19 19 22 23 22 18 22 21 22 18 17 18 18 19 19
15 29 30 33 34 32 31 28 23 22 22 25 34 40 37 24 21 11 6 4 6 6 10 12 13 13 13 16 17 18 18 21 22 23 22 22 16 16 17 19 19 19 17 20 19 19 16 15 15
12 17 29 34 34 37 34 30 29 32 37 43 45 35 19 16 9 8 8 6 5 8 14 13 15 16 15 17 17 16 18 20 22 21 21 21 17 16 17 18 21 23 24 24 23 22 19 19 18
17 13 12 26 33 37 42 41 41 45 47 46 33 18 10 11 10 10 9 6 4 11 15 15 17 16 16 17 17 18 19 21 22 25 27 27 28 27 28 27 27 25 25 26 26 24 23 24 24
20 18 14 12 11 19 31 35 36 37 38 27 15 8 8 14 15 11 9 9 12 16 16 18 19 18 18 17 18 19 20 21 23 24 25 25 26 27 27 28 28 27 28 30 31 29 27 26 24
25 21 20 14 9 7 8 9 15 18 19 9 4 8 11 17 17 12 10 8 17 19 21 21 19 19 19 16 17 19 20 21 21 23 23 24 25 25 26 26 25 27 29 31 28 28 30 32 32
29 23 22 19 16 12 8 10 8 8 4 5 8 11 12 12 16 12 11 12 21 20 22 21 21 20 18 17 17 18 17 17 20 20 20 21 22 22 23 25 25 26 29 30 30 30 30 30 29
34 26 24 22 20 14 9 8 4 6 5 10 14 15 15 16 12 13 10 16 23 22 22 21 21 20 18 17 16 15 13 13 14 16 17 17 18 20 21 23 24 26 28 29 30 32 32 34 33
36 30 29 26 22 17 12 11 10 3 6 8 15 16 13 16 12 17 17 23 23 23 21 21 20 19 17 15 15 15 13 11 12 15 16 15 17 18 20 22 23 24 26 27 29 30 32 33 35
41 36 35 29 23 20 13 11 10 6 3 6 10 17 17 17 16 16 19 24 22 23 19 19 17 17 16 14 14 12 11 11 11 12 13 14 15 15 18 20 21 21 23 24 27 27 29 31 33
46 43 39 32 28 22 15 13 11 14 6 5 7 14 17 16 19 21 24 21 22 22 19 18 16 16 13 11 11 11 10 9 9 8 10 9 10 11 14 16 17 19 19 22 24 25 26 28 29
52 50 43 35 32 26 18 15 13 12 10 7 7 13 16 18 21 26 29 24 25 21 18 16 16 15 14 11 10 8 6 6 6 7 9 9 9 10 11 12 13 15 17 18 20 23 25 27 28
54 51 44 37 34 27 26 23 20 17 15 8 7 12 17 21 26 26 22 20 23 19 21 19 19 16 13 10 7 6 4 2 0 4 7 10 10 11 11 10 11 13 15 18 20 22 25 28 29
47 53 49 41 37 30 37 32 27 24 21 14 15 15 18 20 22 28 27 25 27 24 21 20 17 13 12 12 9 7 6 3 2 4 5 8 11 12 11 10 11 13 15 17 20 22 24 27 30
40 49 52 46 41 45 46 34 35 25 25 19 18 19 18 18 21 25 26 25 23 25 24 22 20 15 14 15 15 12 9 8 7 7 8 10 11 12 13 14 15 15 16 19 22 25 27 29 32
35 38 44 52 51 49 40 39 39 30 25 24 20 21 21 21 24 26 26 29 26 25 26 24 22 19 19 19 18 16 14 12 13 11 9 10 13 15 17 18 19 21 21 22 23 25 29 33 35
33 25 43 49 54 46 42 51 39 33 30 26 26 23 26 24 25 28 27 28 28 26 26 24 24 23 22 20 19 17 16 15 16 17 14 13 14 17 19 20 21 24 25 27 27 28 29 33 38
35 35 30 29 46 54 52 53 49 41 36 33 28 29 28 27 26 27 29 29 29 29 27 26 24 24 22 20 18 17 18 17 18 20 20 18 16 17 20 23 25 26 28 30 31 32 34 36 38
38 32 28 29 31 42 55 58 54 46 42 38 35 32 31 28 28 25 25 27 28 27 29 28 27 26 24 23 22 21 20 19 21 23 23 25 25 23 22 24 26 29 31 33 36 35 38 40 42
48 41 35 32 32 37 45 57 58 49 46 42 39 36 33 32 30 28 29 29 29 32 34 35 31 31 29 27 26 25 26 23 27 25 26 26 27 29 30 29 30 31 33 36 39 40 41 43 45

GFSSGP_250_spd_048.txt.gz
Wind_Speed
20 22 24 23 18 17 23 18 14 18 19 18 18 20 18 22 26 23 23 24 24 25 27 26 30 36 37 39 30 33 24 18 14 15 17 17 18 20 21 20 14 14 14 16 17 17 16 15 14
22 24 27 25 22 21 20 18 24 21 19 21 19 19 23 25 23 25 28 31 33 32 23 26 28 30 28 27 28 18 17 11 13 15 17 19 20 22 27 23 18 14 20 13 14 13 11 10 10
23 22 27 29 29 26 26 20 23 24 24 24 22 24 22 21 22 26 30 32 30 26 23 23 24 22 24 20 14 16 10 12 14 16 19 21 26 25 30 36 27 18 17 20 13 8 8 6 6
24 23 24 25 28 28 30 32 25 29 25 27 23 22 18 19 22 27 35 35 35 29 24 22 20 19 17 12 13 8 10 12 14 18 20 27 30 32 30 33 31 27 23 18 17 16 8 8 5
29 28 27 23 27 29 30 28 26 23 20 20 22 17 14 19 26 31 33 38 32 26 23 19 18 14 10 9 8 9 9 12 14 18 21 22 23 26 25 29 30 30 28 25 24 20 17 14 10
36 34 31 30 27 26 27 27 26 22 20 16 15 13 21 22 26 31 31 36 33 25 20 18 12 7 7 7 8 8 12 15 15 17 22 24 22 24 26 27 29 28 28 26 23 22 19 18 15
38 36 35 33 31 29 28 27 28 27 21 21 22 22 22 24 28 27 30 32 30 24 18 11 5 5 7 10 8 10 14 16 20 16 18 22 24 28 27 26 28 29 27 28 27 27 25 23 22
36 37 37 36 33 32 30 29 28 26 25 25 23 23 24 26 23 24 32 35 30 22 12 2 3 7 9 12 10 11 13 16 18 20 19 20 22 25 27 26 25 24 25 27 27 25 24 24 21
30 35 36 38 34 36 35 33 31 30 29 29 24 27 26 23 23 27 38 34 26 13 1 2 7 8 14 13 13 13 14 16 16 18 18 20 21 22 27 28 26 24 22 22 22 20 22 23 23
24 29 32 34 31 33 32 34 32 30 28 29 29 23 22 24 29 37 33 29 15 1 4 8 8 14 16 16 14 15 17 16 16 17 19 22 22 21 23 22 22 20 19 17 17 17 19 19 22
14 21 31 31 31 28 29 30 29 29 29 28 20 23 24 28 39 37 26 16 2 4 6 11 13 15 17 16 16 17 19 19 20 18 20 17 18 19 19 19 19 18 20 22 22 21 18 19 18
12 12 24 29 30 27 27 29 29 30 28 23 24 26 28 38 40 23 15 5 4 4 11 11 16 17 17 16 18 19 18 18 18 17 18 17 17 19 21 22 23 22 23 23 24 22 23 22 22
15 11 12 24 28 28 30 31 31 28 25 28 30 32 35 40 29 11 8 6 5 8 13 15 17 18 16 16 17 17 17 18 20 23 25 25 26 25 28 28 27 27 27 26 25 25 23 23 24
16 16 12 10 24 30 31 36 34 33 33 37 39 41 44 25 14 8 6 4 6 13 15 18 19 18 17 17 18 18 22 25 27 27 25 26 26 28 29 26 28 28 29 31 31 30 30 26 25
22 16 15 14 12 14 25 33 36 38 42 44 44 34 25 13 12 11 8 8 9 15 16 19 20 19 17 18 19 20 21 22 23 26 25 26 26 26 26 27 28 30 32 30 30 31 31 31 31
28 23 19 17 14 10 7 13 16 19 21 25 23 17 13 14 14 14 10 10 12 16 19 20 20 19 19 20 20 21 21 22 23 23 24 24 23 24 24 26 28 30 30 29 29 30 30 30 32
31 28 24 21 17 14 10 11 13 10 8 9 15 12 12 12 15 16 11 12 17 20 22 22 22 20 21 21 22 22 21 20 20 19 20 20 20 21 23 26 27 28 29 30 31 32 32 32 32
35 32 30 24 21 16 15 12 10 8 3 3 11 12 12 13 13 17 15 14 22 24 25 24 23 21 22 21 21 20 20 18 16 16 17 18 19 19 22 24 24 26 27 28 28 27 29 31 32
35 34 36 30 26 19 18 16 12 15 8 3 7 13 14 16 13 17 18 17 24 26 24 24 22 20 20 19 18 18 17 17 16 15 16 17 18 18 20 21 21 23 23 23 24 25 28 30 31
38 40 40 36 29 23 20 19 13 13 10 7 8 13 15 13 17 16 21 23 25 26 23 22 21 19 18 17 17 16 16 16 16 14 14 13 14 14 15 16 17 18 20 19 21 23 25 26 28
41 46 45 40 32 28 22 21 17 14 14 12 12 14 18 20 20 19 24 26 28 26 23 22 21 19 17 16 15 15 14 14 14 12 12 10 10 10 10 11 12 12 14 16 18 20 22 23 26
42 52 49 41 37 33 26 23 23 17 17 18 14 10 15 20 21 25 31 29 26 26 23 23 20 19 17 13 12 11 12 12 12 10 10 10 9 7 7 7 9 10 12 14 16 19 19 21 24
38 45 48 46 40 35 32 30 28 23 16 16 11 11 16 21 23 32 36 30 28 29 26 24 22 20 17 15 12 9 7 6 7 8 8 8 8 7 6 6 7 8 10 12 15 16 19 21 24
32 37 42 46 44 36 41 39 30 28 18 15 12 13 17 23 27 34 32 28 30 27 27 26 23 20 18 15 12 8 6 4 3 3 3 4 6 8 8 7 8 9 11 13 16 18 20 23 26
31 34 39 45 43 42 48 36 38 28 24 21 14 11 16 19 28 32 34 33 33 30 27 26 24 21 17 15 12 10 9 6 4 3 2 1 2 4 6 8 11 11 12 14 16 19 23 27 29
37 33 32 42 54 55 42 38 42 33 27 26 21 18 18 22 23 28 30 29 32 29 25 24 24 22 16 18 16 16 14 14 12 11 7 6 5 4 5 6 9 12 16 17 19 22 24 27 31
41 26 35 40 48 50 46 51 42 37 31 30 28 27 26 25 28 29 29 32 31 32 30 27 24 24 22 18 18 18 18 18 17 16 14 13 12 11 13 13 14 14 16 19 21 24 27 28 31
36 39 26 26 35 45 52 55 50 42 38 34 31 30 32 29 27 29 33 33 33 32 30 31 31 28 24 24 21 20 21 21 20 19 17 17 17 17 18 20 21 22 23 25 28 30 30 32 35
45 39 33 28 29 38 53 58 56 47 43 38 36 36 33 35 33 31 33 35 34 32 32 32 31 29 29 26 24 22 21 21 21 20 19 20 22 21 19 21 23 25 27 30 33 35 36 37 39
53 49 43 35 35 37 48 59 59 50 46 42 42 39 38 36 34 32 29 27 32 34 36 37 36 35 32 29 27 25 24 23 23 24 23 25 25 25 22 23 26 27 30 35 36 38 39 40 43

GFSSGP_250_spd_051.txt.gz
Wind_Speed
20 16 21 16 17 17 12 16 11 7 11 15 18 17 16 21 24 25 23 27 31 31 25 23 27 30 31 33 30 29 18 15 18 17 19 16 23 21 19 17 18 15 15 15 18 17 14 13 11
20 18 20 23 19 20 19 23 20 19 21 20 24 21 20 25 27 23 25 33 36 33 23 25 26 28 25 26 21 16 14 17 16 18 19 22 27 29 26 20 19 20 15 11 12 11 10 9 9
20 19 23 25 27 24 24 24 26 25 23 24 25 27 22 27 28 25 29 33 35 35 31 24 24 22 23 17 12 13 14 14 15 17 25 23 26 27 28 28 22 21 20 15 9 8 6 5 4
20 22 25 27 29 29 29 29 29 30 30 29 30 28 27 24 21 26 30 33 34 38 29 24 22 22 13 10 11 13 13 11 13 12 13 17 24 28 28 28 27 26 25 21 18 15 10 8 7
24 24 25 27 30 31 31 30 30 32 31 26 25 23 22 17 25 28 30 27 34 35 27 21 20 13 8 9 11 13 13 10 13 15 18 15 20 25 27 27 30 27 27 23 19 18 17 14 14
30 29 27 29 30 28 30 29 30 30 30 26 22 20 16 19 25 27 25 26 37 40 29 17 13 7 7 8 12 12 11 11 9 14 19 22 23 24 26 28 30 28 28 27 26 23 22 20 18
35 37 37 36 35 32 31 30 27 29 29 26 25 24 24 24 24 27 25 28 41 37 25 11 4 6 7 10 11 9 9 12 8 13 18 23 26 26 25 25 25 26 27 26 25 26 26 23 22
36 37 39 41 38 37 37 33 33 30 31 30 27 27 27 27 28 23 24 36 41 33 15 3 5 7 10 11 9 6 9 10 13 16 20 20 25 28 29 27 30 29 27 26 26 27 28 28 27
28 32 32 36 37 38 36 34 33 34 32 31 28 28 30 29 24 24 27 39 35 24 2 2 8 9 10 10 8 7 9 12 18 20 20 22 24 25 25 25 25 26 26 27 26 28 27 25 24
12 21 28 33 33 32 34 33 30 32 34 31 28 26 27 23 23 25 29 37 24 6 3 9 9 11 12 10 9 10 14 16 17 19 21 19 20 22 24 21 22 24 24 26 29 28 27 26 25
13 10 24 24 30 37 29 27 28 27 26 25 25 27 27 24 26 25 33 30 12 2 6 10 12 12 12 11 10 15 16 17 17 17 17 17 20 23 23 21 24 25 28 28 29 36 20 24 26
13 15 15 13 23 25 25 26 23 24 24 25 27 29 28 27 27 28 34 17 4 2 10 13 13 12 12 12 11 14 15 17 17 15 18 22 23 26 27 28 28 28 32 31 28 25 24 26 26
17 15 13 11 12 24 28 27 27 27 28 31 31 29 27 31 31 32 28 8 5 5 11 14 14 14 13 11 13 14 20 22 24 25 26 25 27 26 28 28 29 29 31 33 32 32 32 31 30
19 18 16 12 11 11 21 24 27 30 32 32 35 32 32 34 37 31 10 7 4 9 14 16 14 14 14 13 15 21 26 24 24 24 25 26 27 27 28 28 30 32 33 30 32 33 34 35 36
24 21 18 16 12 9 11 18 27 32 37 39 41 40 43 40 33 14 10 8 6 13 17 17 14 15 15 15 18 21 22 24 24 25 25 25 27 27 28 29 31 32 33 32 32 33 33 34 37
26 24 22 20 15 12 10 9 13 21 24 26 28 32 27 20 16 14 12 9 8 16 19 17 16 16 15 16 17 19 23 23 24 24 24 25 26 26 29 30 30 32 33 34 33 33 33 34 33
28 26 25 20 18 16 13 4 22 14 15 17 19 20 20 19 18 16 13 11 11 20 21 19 18 17 16 17 19 20 21 21 21 21 22 22 25 26 25 26 28 29 29 31 31 32 33 34 34
30 26 25 26 21 19 19 16 9 21 10 10 12 15 20 20 20 19 15 13 15 23 23 21 19 19 19 20 20 19 19 20 20 20 20 21 22 24 23 23 24 25 26 27 28 28 29 32 33
33 28 29 30 26 23 24 21 19 18 15 13 11 16 19 18 17 20 18 15 19 25 25 22 20 19 19 18 18 17 16 17 17 19 18 18 19 20 19 21 21 20 21 22 23 25 28 30 32
36 33 30 34 33 30 26 25 22 19 17 14 9 11 14 18 19 19 19 18 25 26 25 23 21 20 18 16 15 14 14 16 17 16 15 14 15 16 14 16 15 17 17 20 22 22 25 28 30
43 38 36 40 39 35 28 29 25 20 19 16 14 11 17 17 20 19 22 24 28 28 27 24 21 21 20 18 17 17 15 13 13 12 12 11 11 12 12 11 11 13 15 16 18 19 21 24 26
43 45 38 42 42 39 33 31 27 24 22 19 16 13 12 23 22 23 19 32 31 30 27 26 23 21 20 19 17 15 14 11 11 10 9 8 7 8 8 8 8 9 12 13 14 16 20 22 25
46 40 39 41 42 44 35 33 33 27 24 20 16 16 15 19 23 25 21 35 32 31 28 27 24 22 20 19 17 15 13 11 11 10 8 7 6 6 6 6 6 8 10 11 13 14 18 21 23
44 39 38 40 41 38 39 41 36 33 25 20 18 19 17 21 22 26 23 39 36 33 30 30 29 25 22 19 17 15 13 10 8 8 6 5 5 5 6 6 6 6 7 10 11 14 18 21 23
44 42 39 38 38 32 47 44 44 39 29 25 22 18 17 21 24 26 31 42 41 37 33 32 28 25 22 19 16 13 12 10 7 5 4 2 1 2 3 5 6 7 8 9 12 16 19 22 25
46 42 36 37 40 50 57 46 46 44 36 29 26 20 17 21 25 28 36 42 40 38 32 30 27 25 22 18 17 15 13 11 9 8 7 6 5 5 6 7 9 11 14 15 17 19 22 24 26
50 37 43 37 40 50 50 53 52 41 37 35 31 24 21 23 26 32 39 38 38 39 36 33 30 27 26 23 21 17 16 15 14 15 13 10 10 10 12 13 13 14 16 17 20 23 26 28 31
42 47 34 33 34 39 49 53 49 46 42 38 34 31 28 25 28 33 37 36 39 41 38 35 32 32 29 28 24 19 18 19 18 19 18 17 15 14 14 16 17 15 16 20 23 26 29 30 33
51 44 38 32 31 38 48 55 57 50 45 40 39 34 34 31 31 33 36 36 34 37 38 36 35 34 34 32 28 25 22 21 20 19 19 18 19 17 17 20 21 21 20 23 27 29 33 35 36
57 53 45 38 33 35 45 58 56 55 49 45 41 37 36 36 35 34 32 31 35 36 38 39 38 37 35 32 31 29 27 26 23 22 22 23 21 22 24 26 24 25 24 27 30 33 36 38 42

GFSSGP_250_spd_054.txt.gz
Wind_Speed
18 10 15 13 12 12 15 12 18 11 9 10 16 20 25 24 25 25 28 28 31 30 38 31 26 27 25 28 22 15 13 14 17 14 16 16 15 16 18 17 15 15 15 16 14 12 12 11 10
18 15 12 15 13 2 14 26 18 22 17 19 25 26 26 26 28 29 29 30 34 31 38 32 26 23 24 19 12 10 9 13 15 15 18 20 22 22 20 21 16 14 14 13 10 8 6 7 7
18 16 14 18 17 23 17 21 22 25 28 29 26 30 33 33 33 30 26 30 29 30 41 36 26 21 19 12 9 8 9 13 10 11 16 20 19 23 21 20 19 17 13 9 8 7 6 5 4
15 13 15 17 23 27 28 29 21 26 30 33 32 32 30 30 27 24 26 30 29 33 42 36 24 18 11 8 7 8 8 9 12 9 12 18 20 25 24 22 22 20 19 18 15 12 10 12 11
17 16 15 16 16 28 34 34 34 34 34 33 31 31 28 27 21 23 26 29 28 37 40 36 18 9 4 5 8 8 8 9 15 16 14 20 23 24 27 25 26 24 21 20 18 17 14 12 14
21 22 15 17 31 32 34 36 36 34 33 30 29 28 26 27 25 26 28 28 29 40 40 26 9 2 4 5 7 8 9 9 14 17 19 17 20 23 26 25 27 27 26 27 24 21 19 18 17
30 27 26 16 16 27 35 33 35 31 31 30 30 31 33 32 28 26 30 24 32 39 36 13 3 2 4 4 5 8 8 10 14 16 20 23 27 28 29 30 30 30 31 30 30 28 26 24 21
36 34 35 39 43 41 38 38 35 35 34 33 33 33 32 29 26 27 28 27 33 37 26 4 3 4 3 3 6 8 8 11 18 20 25 26 28 28 31 33 34 32 32 34 32 30 28 26 25
35 36 37 39 43 43 43 44 40 39 36 32 31 32 29 28 26 27 24 27 32 32 8 3 2 4 2 5 9 9 10 16 20 22 26 25 26 26 28 29 30 30 28 34 37 30 30 27 27
18 20 24 25 33 35 35 33 35 34 30 25 27 30 27 21 27 25 24 28 33 23 4 4 4 2 4 9 10 11 14 15 22 23 24 24 25 28 31 33 34 31 32 25 28 34 31 33 31
13 10 20 16 15 25 24 24 28 28 25 21 21 22 21 25 26 25 25 27 31 11 2 6 6 3 6 11 12 14 15 21 25 25 21 23 26 33 32 37 40 39 36 32 20 30 28 34 35
12 18 12 24 21 15 21 29 25 23 21 17 22 24 26 29 27 25 25 30 24 4 6 8 6 4 7 10 10 13 16 23 26 29 30 28 28 29 29 32 33 23 39 36 32 31 34 33 28
16 16 18 21 17 14 22 21 27 22 20 22 25 27 30 31 25 25 29 31 10 5 9 9 7 6 7 10 11 14 20 24 27 28 29 29 30 30 32 34 37 28 27 36 32 36 39 36 34
21 19 17 15 12 13 15 15 15 21 22 24 29 35 34 31 28 31 33 16 7 7 10 11 9 9 8 11 15 19 23 26 28 29 31 31 31 34 37 34 36 36 33 30 30 34 34 35 36
27 23 18 16 14 13 11 9 10 11 24 26 30 34 35 34 33 30 19 11 9 11 13 13 11 11 11 16 20 21 24 27 28 29 31 32 34 35 36 37 35 33 35 34 36 36 37 36 30
30 25 24 20 16 15 8 2 19 16 15 20 23 22 24 22 16 12 15 13 8 14 16 14 13 13 14 15 18 22 25 28 29 29 30 31 31 31 34 35 33 31 30 30 32 35 37 40 35
30 29 28 24 20 16 11 5 26 17 13 24 21 20 18 17 11 14 17 14 10 16 19 15 14 13 15 16 19 21 23 25 27 27 29 28 28 27 26 23 26 28 27 28 30 33 36 38 41
36 30 27 25 22 22 14 10 13 15 22 25 23 19 17 11 14 17 18 15 14 18 21 18 16 15 17 18 18 19 20 22 23 26 27 26 25 26 26 26 23 22 21 23 27 30 32 37 41
37 33 27 27 24 25 23 18 18 30 20 30 24 17 14 11 17 20 21 14 17 21 22 20 16 17 19 19 17 16 17 19 21 22 22 21 22 21 21 21 19 19 20 20 21 24 27 31 35
39 37 33 31 28 28 29 27 24 27 31 24 21 21 15 16 19 21 24 16 17 22 21 21 19 19 19 18 16 15 15 16 16 18 18 17 17 17 17 17 17 17 18 18 20 21 25 27 30
43 40 40 38 36 35 34 32 37 30 30 25 22 20 15 21 20 18 23 18 21 26 25 23 20 19 18 17 14 12 14 15 13 12 13 14 13 14 12 13 14 14 14 15 17 18 21 23 26
45 46 44 43 38 34 36 34 33 33 31 26 24 21 13 20 26 25 21 23 27 30 27 25 22 20 18 17 16 14 13 12 10 9 9 10 10 9 9 9 10 9 10 11 14 16 18 19 22
51 48 45 44 42 41 36 38 37 36 34 30 25 22 19 15 24 26 22 21 26 32 31 28 24 22 19 18 16 15 14 12 10 9 8 8 9 8 7 7 7 7 8 9 11 14 18 20 22
53 45 46 44 43 40 40 38 44 40 39 32 27 25 23 17 24 29 25 21 33 36 33 31 28 25 22 20 18 17 15 14 13 11 9 9 9 7 6 6 7 6 8 10 12 15 20 22 24
52 47 45 44 40 37 40 40 47 46 43 35 30 27 22 18 22 30 31 25 34 42 37 34 31 28 24 21 20 17 15 13 11 9 8 7 6 5 3 4 5 7 8 11 12 15 20 23 24
55 51 47 48 45 45 46 38 49 51 47 40 32 29 23 21 24 31 32 24 39 42 39 36 32 28 24 22 20 18 16 14 11 9 8 5 4 4 3 4 5 7 9 10 12 15 18 23 26
58 47 57 48 42 43 42 43 57 55 49 40 35 30 26 23 24 34 31 32 45 46 42 39 34 29 27 25 24 21 19 16 14 14 11 9 9 10 10 10 10 11 12 13 15 19 23 25 29
57 57 55 44 44 45 43 43 48 54 48 45 37 34 30 26 23 29 32 38 46 47 42 39 37 35 31 30 29 25 22 20 19 17 15 14 14 12 15 15 15 16 16 17 18 22 25 30 33
58 53 46 50 46 45 41 45 48 52 52 46 40 39 35 31 25 28 33 41 47 46 43 40 39 37 37 36 31 29 26 24 21 19 18 17 16 15 14 17 18 20 21 22 22 26 29 34 37
64 59 55 48 47 44 40 46 42 45 54 49 43 42 40 37 30 29 32 41 43 43 45 43 41 42 40 36 35 33 28 24 22 20 19 19 17 17 18 21 24 30 25 20 23 32 36 38 41

GFSSGP_250_spd_057.txt.gz
Wind_Speed
16 13 12 14 13 9 12 13 6 19 14 12 17 22 21 27 32 31 33 31 32 33 32 37 37 29 24 21 15 12 14 15 13 19 17 17 15 16 15 16 15 16 16 14 12 11 11 13 11
18 13 5 14 13 13 18 14 17 21 17 25 24 28 30 31 31 29 29 28 30 31 31 40 35 25 20 13 11 10 12 8 8 13 18 17 15 17 15 15 14 14 12 9 8 7 6 7 4
21 15 11 10 9 5 20 24 12 16 17 23 26 34 33 33 32 30 29 29 31 34 34 41 32 20 13 8 10 9 10 10 7 12 14 16 17 16 14 13 12 11 8 6 5 5 6 5 3
17 14 12 12 14 16 23 27 26 27 31 32 31 34 33 32 30 30 29 30 33 33 36 38 25 12 7 7 6 10 9 14 13 15 16 20 19 19 18 18 17 16 13 11 11 12 10 9 10
14 12 12 13 18 21 27 29 28 30 33 35 35 34 30 30 30 30 32 29 32 33 37 37 16 8 5 5 6 9 9 13 13 12 16 19 20 20 22 20 17 16 14 13 11 8 6 5 4
18 12 14 12 17 24 24 26 29 32 33 36 35 32 31 31 32 30 28 28 32 33 38 26 8 5 3 4 7 9 10 12 14 13 16 20 21 23 27 28 29 31 29 27 23 20 16 13 9
20 19 21 18 21 27 30 33 29 30 32 34 33 35 33 31 29 27 26 30 30 32 37 13 6 4 2 5 7 10 14 16 18 22 22 25 30 29 31 36 37 35 32 32 29 25 23 23 19
27 26 24 15 34 24 28 29 32 33 36 35 35 35 32 27 25 25 26 26 28 31 29 8 5 5 5 6 6 14 16 20 21 23 25 26 29 31 36 38 37 37 37 35 32 28 26 26 21
34 34 34 37 38 41 42 44 42 41 43 38 33 31 29 22 20 22 25 25 26 30 18 5 5 6 6 7 10 16 16 20 24 25 26 31 35 32 31 29 35 38 39 34 32 32 31 29 26
38 40 41 41 42 42 43 39 38 37 36 30 27 26 21 14 17 21 25 23 26 31 11 4 4 5 7 11 14 16 15 16 16 26 33 37 38 42 41 36 29 32 41 38 32 30 33 33 28
24 25 24 24 27 24 19 25 31 26 31 26 23 19 14 12 18 22 22 22 25 26 7 3 3 5 8 13 15 15 16 18 21 25 33 36 36 32 33 34 34 34 15 24 31 34 34 37 33
19 20 21 20 24 26 18 22 22 23 24 22 23 19 13 17 18 21 21 21 24 12 4 2 3 6 9 13 17 19 20 24 25 25 29 35 30 29 32 40 45 38 30 16 27 29 34 36 35
20 18 23 19 20 23 22 23 17 19 21 18 17 20 20 19 20 23 21 23 22 8 4 2 5 7 11 15 19 21 22 25 26 30 34 40 26 34 34 35 34 33 28 28 26 28 32 40 42
23 19 19 16 19 19 17 14 8 14 15 15 16 17 22 23 23 25 22 22 10 7 5 5 7 9 12 16 21 25 23 25 27 32 37 35 30 32 34 37 38 36 35 34 34 31 31 37 41
23 25 22 17 20 17 16 12 9 3 12 14 13 16 20 19 17 15 14 3 8 8 7 8 9 12 15 18 22 25 28 30 31 34 38 36 33 37 36 34 32 35 36 35 37 37 28 26 34
28 27 29 25 22 18 16 10 17 25 16 14 13 13 18 18 18 8 6 5 10 9 10 11 11 16 19 19 22 25 28 30 33 34 34 37 36 32 31 30 32 31 32 34 38 40 35 26 28
31 31 31 29 27 24 20 13 17 19 20 20 18 17 15 22 18 6 8 11 11 10 11 14 14 18 19 22 24 26 27 29 30 29 27 25 18 24 27 27 28 26 28 31 32 35 41 36 27
35 33 31 31 29 27 22 17 20 23 26 18 14 16 20 19 17 7 12 13 11 11 13 17 17 20 20 22 25 25 25 26 27 25 24 24 23 26 23 22 21 21 23 25 27 30 34 37 38
36 34 32 32 31 29 23 21 22 22 29 28 18 18 21 18 12 9 14 12 11 14 15 18 18 21 22 22 23 24 24 24 25 22 22 21 20 19 19 20 19 20 20 22 25 27 28 30 32
39 37 37 36 34 33 27 28 25 22 16 24 20 12 13 23 9 10 16 15 10 13 17 18 21 23 23 22 21 21 22 21 20 19 18 17 16 15 15 15 15 16 18 18 21 23 24 26 27
42 41 42 41 41 39 35 31 28 28 28 23 31 14 19 20 11 14 16 19 12 17 20 21 22 25 25 22 20 20 19 19 17 16 15 14 14 12 12 11 13 13 13 15 18 20 22 22 23
45 49 48 46 44 43 41 33 31 33 26 31 27 22 22 17 14 17 20 25 17 18 25 25 26 25 24 22 18 18 17 16 14 14 13 12 12 11 10 8 9 8 10 14 17 21 22 22 22
55 51 50 48 44 47 41 36 35 32 35 36 31 23 22 20 17 17 22 27 19 22 29 29 28 27 26 23 20 18 18 16 15 14 13 11 11 9 7 7 7 7 9 12 14 18 20 20 19
62 51 49 46 45 44 41 41 40 39 41 40 35 28 27 26 23 20 25 26 21 27 34 33 31 29 27 25 23 22 19 17 15 14 13 12 11 9 7 6 7 7 9 10 11 13 16 19 22
58 50 48 44 40 38 48 44 49 46 47 42 39 35 31 27 25 23 28 29 25 29 36 36 34 32 29 28 26 24 22 19 16 14 12 11 9 8 6 6 5 5 6 6 8 12 16 19 23
62 61 53 50 51 52 56 48 50 51 48 41 41 40 36 31 26 25 29 35 31 30 35 37 36 33 30 27 26 26 24 20 18 15 13 10 8 7 4 1 1 3 6 8 11 12 17 19 23
68 54 59 58 58 56 49 48 55 52 45 42 38 37 35 33 27 24 27 36 36 31 37 38 38 36 31 29 28 27 24 22 20 17 13 12 10 7 5 5 7 9 12 13 14 16 17 22 26
67 69 64 59 51 50 50 52 53 47 41 40 38 40 39 34 30 25 28 34 39 36 34 41 40 38 33 32 32 29 25 24 22 18 15 13 12 11 10 10 9 10 11 16 16 16 18 25 30
70 66 62 63 58 57 55 54 51 47 44 39 39 42 42 38 33 28 29 33 39 37 41 45 43 41 39 38 33 30 29 28 23 20 18 16 14 15 14 13 13 16 19 22 24 18 19 27 33
73 68 67 61 59 59 58 52 47 43 42 40 39 44 46 44 37 33 30 34 37 39 47 50 46 45 43 39 36 35 33 28 23 20 17 15 14 13 14 13 15 18 20 22 21 19 28 33 36

GFSSGP_250_spd_060.txt.gz
Wind_Speed
15 13 11 13 11 9 9 2 10 5 7 15 18 24 29 32 33 31 27 26 29 33 36 36 39 34 23 18 15 13 14 12 11 17 15 14 13 12 15 14 14 16 14 12 11 10 10 9 7
16 15 12 13 16 14 13 11 12 10 24 22 21 24 29 33 32 30 27 27 31 32 35 38 39 26 18 14 14 13 15 14 11 14 11 12 13 13 12 12 12 12 9 8 6 4 4 3 2
23 18 12 9 13 15 18 19 13 18 14 18 27 31 31 33 30 32 29 31 30 30 37 39 34 18 14 14 13 14 16 15 13 12 13 13 13 14 12 10 8 6 5 3 2 1 1 3 4
23 20 15 14 12 11 14 15 25 22 21 26 28 30 33 33 30 31 30 30 30 33 35 39 23 13 12 13 12 14 16 14 14 13 14 14 14 15 14 13 10 7 6 6 6 4 3 1 2
18 20 18 14 10 16 21 15 21 29 31 33 30 32 34 32 31 30 28 25 30 30 34 33 15 12 12 12 13 12 12 13 9 13 13 13 18 20 18 15 14 14 12 8 5 3 3 1 3
18 17 15 17 18 15 17 18 22 27 30 35 30 31 31 31 32 30 25 24 27 29 31 23 12 12 11 12 13 11 12 14 16 15 16 20 20 24 28 27 27 25 22 22 19 16 12 11 7
23 22 26 9 15 21 15 17 19 30 27 28 30 32 33 33 30 25 22 20 24 28 30 17 10 12 11 10 10 13 16 19 18 21 22 23 29 31 32 32 32 33 31 28 24 20 17 16 16
26 23 26 25 22 22 31 30 30 30 33 39 40 38 36 31 27 21 16 19 23 24 27 12 10 12 10 8 11 16 19 17 19 18 24 30 32 34 37 35 34 34 32 31 27 24 21 19 13
32 32 30 29 30 28 13 24 30 33 41 42 36 34 29 27 21 15 13 19 19 21 17 7 10 10 8 9 13 18 20 19 21 24 27 28 21 25 30 32 38 37 33 31 29 27 23 21 19
36 39 37 35 38 37 38 41 38 46 44 41 30 28 26 27 15 11 12 16 18 21 11 5 9 9 8 14 14 13 19 25 26 32 32 29 25 22 25 23 19 26 31 33 29 30 27 24 20
41 40 39 39 40 42 43 42 42 37 33 31 26 26 24 24 16 12 11 15 18 17 7 5 10 9 10 15 13 13 24 27 30 29 25 29 31 27 26 27 28 25 31 29 36 37 35 32 33
33 37 36 35 35 34 33 25 29 21 23 20 21 21 18 15 14 15 15 13 16 14 3 5 11 9 10 17 18 21 24 24 24 26 26 28 29 28 32 34 34 28 27 30 41 41 51 59 61
22 22 21 24 25 22 22 28 30 15 14 15 15 13 14 14 18 18 19 17 10 6 1 6 12 9 12 19 21 24 23 21 25 31 30 28 29 31 31 31 34 32 25 27 35 48 51 54 53
22 21 20 21 24 21 19 24 23 12 8 7 2 7 11 15 17 19 18 14 3 2 5 8 12 12 16 21 26 27 25 24 22 26 26 30 33 32 30 33 35 36 31 27 35 43 42 34 37
21 21 21 25 21 20 16 17 15 12 12 3 6 4 7 12 16 16 12 5 8 6 8 10 13 15 19 25 26 27 26 25 31 31 29 31 30 30 30 30 33 36 37 26 27 25 25 27 29
26 24 25 25 23 18 17 17 16 18 19 13 4 1 11 12 16 14 5 12 10 8 11 12 16 19 21 24 26 29 31 30 33 31 30 28 28 28 25 26 29 33 35 36 24 21 21 25 26
31 32 29 26 25 22 19 19 18 19 21 21 12 12 10 12 18 10 9 13 11 9 13 14 20 21 23 26 27 29 33 34 33 30 26 23 24 25 22 24 26 27 29 30 32 27 30 33 33
43 38 32 30 29 26 24 24 21 18 20 22 17 17 10 7 17 4 11 10 11 11 14 16 23 22 24 27 28 30 32 31 29 21 20 22 20 18 16 19 21 22 25 26 25 26 26 27 30
46 40 35 31 31 27 27 26 23 22 25 25 26 17 9 13 9 2 12 12 10 12 16 16 23 23 25 27 30 29 28 26 23 22 21 20 17 15 15 16 17 19 21 22 23 25 25 24 25
49 44 41 37 35 34 31 30 25 23 24 23 23 25 13 12 6 2 14 14 10 8 17 18 22 26 27 29 28 29 27 26 24 23 20 17 14 13 12 13 15 16 19 21 20 21 21 20 23
50 47 49 46 43 38 33 33 32 24 29 23 23 25 21 14 10 2 12 16 14 11 19 18 22 28 28 28 27 27 26 24 22 19 17 15 12 11 10 10 11 14 16 19 18 20 19 19 20
53 56 54 52 46 38 40 39 34 30 28 28 24 24 30 20 15 13 11 21 19 15 21 22 25 29 29 29 28 27 25 22 20 17 14 12 11 8 7 7 8 11 13 15 15 17 15 16 17
61 61 58 56 51 46 43 37 38 30 30 31 31 27 31 28 13 18 10 19 23 17 25 26 26 32 32 29 29 27 25 22 19 17 16 13 10 7 4 4 7 10 11 9 10 12 12 13 16
72 65 62 60 55 44 43 39 39 36 39 36 33 30 28 28 19 19 16 19 28 22 25 30 30 31 32 31 28 28 27 23 20 18 16 14 10 8 6 5 7 7 6 4 6 9 12 15 20
75 71 66 59 51 40 46 41 41 44 44 40 36 32 33 29 25 24 21 23 29 30 28 33 34 34 32 31 28 28 26 23 19 18 17 15 12 10 9 8 6 3 1 5 9 12 12 17 21
75 72 66 59 52 52 51 40 49 50 47 40 37 35 32 30 30 28 26 23 33 36 30 33 34 35 33 29 28 27 25 21 20 20 18 16 14 12 9 7 5 4 5 9 11 14 16 19 22
75 65 69 66 60 56 49 49 55 50 49 43 43 38 37 33 34 31 29 27 34 37 35 30 36 37 34 29 28 26 25 23 23 20 17 16 14 13 10 8 6 6 8 11 13 18 19 18 24
76 74 73 64 60 54 52 52 54 51 51 46 43 41 44 40 36 36 34 31 31 39 38 32 37 39 36 33 31 28 27 27 25 22 20 18 15 13 12 10 9 12 14 15 19 22 22 19 23
78 74 71 68 65 57 59 56 62 59 52 43 42 45 45 44 39 41 37 33 33 40 39 35 40 42 41 38 36 33 30 28 26 23 20 17 14 13 14 14 15 16 17 17 21 23 22 20 27
82 80 77 71 61 58 62 67 60 57 48 41 40 38 40 45 42 45 40 36 35 39 41 40 40 46 44 41 38 34 35 33 28 25 21 17 16 15 16 19 18 17 16 19 23 24 22 23 26

GFSSGP_250_spd_063.txt.gz
Wind_Speed
15 13 13 12 10 6 6 8 9 7 6 9 20 19 25 31 32 30 31 30 31 32 32 36 37 29 18 15 14 13 17 13 11 13 12 14 12 14 13 12 13 11 10 9 9 8 7 6 4
16 14 13 11 14 14 14 11 5 15 12 21 19 20 29 32 33 29 33 34 35 32 33 36 36 20 16 15 14 15 15 15 14 14 13 13 13 13 13 11 8 6 6 4 3 1 1 2 2
18 15 15 13 11 13 13 14 7 18 13 21 27 25 32 32 36 31 34 36 33 31 31 37 26 17 15 16 15 15 16 15 16 16 15 15 15 13 9 6 3 4 4 4 6 7 7 7 7
21 18 18 15 11 6 12 8 21 24 23 27 30 34 34 34 33 35 36 33 33 29 31 35 22 16 15 16 14 14 17 14 14 16 15 19 20 18 15 12 10 8 6 5 8 9 9 6 6
21 23 22 19 16 10 10 18 19 24 22 23 28 33 31 31 36 37 35 31 27 27 29 29 18 14 15 15 16 16 17 15 17 17 21 24 25 23 21 18 16 14 14 11 8 5 7 8 7
18 22 22 19 20 14 16 18 19 17 15 22 30 28 31 38 38 38 33 26 23 24 28 22 15 13 14 14 16 19 19 19 20 21 23 25 26 28 28 26 22 21 17 14 14 12 13 12 11
21 23 25 15 15 20 26 15 14 19 18 28 35 33 43 38 36 28 27 23 20 21 26 16 12 13 14 13 15 18 17 20 18 23 27 27 29 30 28 25 24 23 21 19 18 17 15 16 11
26 27 22 24 18 15 19 21 22 25 31 30 32 39 41 34 29 28 22 16 17 20 16 11 9 11 12 14 15 19 16 16 18 27 26 35 32 34 32 29 28 27 27 23 21 20 20 17 15
30 29 29 24 27 25 25 28 25 23 28 36 38 44 37 28 25 27 20 14 14 17 11 7 7 10 10 15 17 16 16 17 20 23 20 21 20 16 29 26 28 29 25 27 29 31 33 32 26
33 34 32 32 33 32 31 31 33 34 38 39 38 36 27 24 24 21 12 11 15 15 8 4 7 11 12 15 15 18 22 21 23 18 17 17 14 17 26 27 29 31 32 35 51 48 49 49 46
37 36 37 37 37 37 36 36 34 35 34 28 30 22 20 19 13 10 16 16 14 12 5 3 8 12 14 15 15 22 28 28 22 21 26 26 28 28 25 30 36 46 49 47 48 47 49 50 49
40 39 38 38 38 40 42 41 39 38 35 26 24 15 10 10 6 14 16 17 16 8 3 3 10 12 14 16 22 26 24 16 26 24 25 26 30 29 28 25 32 42 47 43 41 43 43 44 44
40 39 39 39 38 36 40 29 30 28 23 25 21 5 6 3 10 13 18 20 11 4 3 4 10 14 17 20 24 25 20 22 24 24 29 31 32 31 29 28 26 35 36 30 32 36 40 39 42
24 27 27 27 26 26 27 18 15 19 21 20 6 3 6 7 7 10 15 11 3 1 4 6 12 16 18 22 25 22 25 29 25 26 27 29 30 31 34 27 31 31 27 25 29 23 34 40 36
26 27 28 25 22 20 25 21 18 19 17 13 7 4 2 7 13 16 12 7 9 6 7 8 14 18 21 24 24 26 25 22 26 27 27 28 27 31 32 29 22 22 19 20 22 29 34 37 36
29 28 33 25 24 24 23 20 16 16 14 21 10 7 4 6 12 18 7 6 11 9 9 10 15 19 22 22 24 25 25 28 26 23 24 24 23 26 26 28 29 19 16 25 27 32 31 38 40
36 37 38 30 26 24 26 22 17 18 20 19 21 16 11 8 15 15 5 10 13 10 11 11 17 21 24 22 24 26 29 29 26 22 21 21 22 20 22 23 23 23 21 23 25 26 30 34 39
49 44 39 34 29 27 28 23 21 20 21 20 20 16 13 9 15 17 5 15 11 13 13 13 19 24 24 25 25 28 30 29 25 21 19 18 16 15 17 20 21 21 23 25 25 26 29 30 34
51 48 43 38 30 29 28 25 24 24 20 23 19 19 7 5 10 5 6 14 10 15 15 14 21 24 25 28 30 29 31 27 21 20 20 15 14 15 16 16 17 19 20 19 21 21 24 27 29
54 53 52 45 36 36 32 29 24 25 23 20 22 18 20 10 9 5 5 12 12 14 15 16 20 23 25 28 32 32 28 23 20 21 16 13 11 11 13 13 14 15 15 17 19 20 23 24 25
57 58 58 54 48 41 34 29 26 28 27 21 24 17 17 15 16 4 0 11 15 15 19 18 20 24 26 29 32 30 26 21 21 18 15 12 10 9 9 11 12 13 13 15 16 17 19 21 24
59 64 60 58 48 43 41 37 31 32 30 24 23 22 15 23 14 11 6 11 12 15 19 18 21 26 29 31 30 29 27 25 23 19 16 13 10 7 7 8 9 9 9 10 12 14 17 20 22
67 64 63 60 52 49 44 38 36 31 32 31 30 24 17 24 24 17 11 12 14 17 22 22 22 28 30 31 31 29 27 25 23 20 17 14 10 7 5 8 7 6 4 6 8 11 15 20 23
75 68 66 61 54 49 45 40 37 40 38 35 35 29 24 26 24 22 19 15 18 17 22 24 25 28 31 31 30 30 30 26 23 19 16 13 10 7 6 7 10 7 1 4 7 11 15 17 21
76 71 68 61 52 44 49 41 44 43 40 40 39 31 28 23 28 29 25 24 18 20 25 28 29 30 35 35 32 31 30 27 23 18 15 12 10 8 7 6 3 1 2 6 9 12 15 18 21
75 74 68 60 55 49 52 41 48 50 46 43 39 34 30 27 26 26 25 25 21 23 28 29 30 29 37 38 35 33 30 26 21 17 16 15 14 11 9 7 5 6 9 10 12 13 19 21 20
81 72 71 68 64 58 53 50 56 50 46 45 43 38 36 32 29 25 26 27 25 24 29 32 30 31 35 35 33 33 29 25 21 19 19 18 16 13 11 10 7 10 12 13 14 15 22 23 21
82 82 79 69 65 58 55 52 56 51 50 50 49 44 41 36 35 32 29 30 28 27 27 31 31 35 36 35 35 33 29 27 24 22 21 19 17 15 13 12 13 14 14 16 16 19 21 22 22
91 88 81 78 72 63 61 52 61 56 56 54 52 46 44 41 39 38 32 31 32 29 27 33 35 36 39 38 37 35 34 31 27 26 23 20 18 17 16 16 17 17 18 18 18 20 20 19 20
93 88 85 78 69 65 62 56 66 62 59 58 54 50 49 44 38 39 35 34 36 33 31 34 37 40 42 39 39 37 35 33 32 29 27 23 21 20 20 20 19 20 20 18 17 17 19 20 21

GFSSGP_250_spd_066.txt.gz
Wind_Speed
13 14 13 8 5 5 5 9 5 3 9 17 22 24 27 27 31 34 34 38 40 40 39 32 26 18 15 14 16 15 15 16 17 17 16 14 14 16 14 14 12 12 12 11 10 7 6 5 4
18 15 13 10 9 11 11 11 9 12 15 17 21 26 30 32 31 33 42 43 43 42 38 31 23 17 16 17 17 17 15 16 17 16 15 14 12 11 10 9 8 9 8 6 6 5 4 4 5
20 16 13 13 10 8 11 12 10 11 18 18 25 26 31 33 30 37 45 43 39 34 34 29 20 17 18 18 15 15 14 16 16 18 18 18 18 16 13 11 10 9 9 9 9 8 8 7 5
20 18 15 13 13 6 9 6 4 14 23 22 24 27 29 32 38 43 43 41 31 29 29 24 18 16 15 16 15 17 16 18 23 23 25 25 23 20 20 19 17 16 14 12 9 9 8 6 4
23 20 17 15 16 12 4 14 16 20 22 20 21 23 35 37 40 41 40 33 28 28 27 19 15 13 15 15 18 19 19 22 23 27 28 27 27 25 22 20 18 16 14 14 13 13 12 9 5
17 20 22 23 21 16 9 18 23 23 17 17 21 29 34 36 42 45 31 27 26 25 23 15 12 11 14 14 17 20 22 26 27 28 27 27 27 25 24 23 22 21 21 19 18 16 15 13 10
19 18 18 24 24 18 18 19 17 16 21 21 27 33 36 42 44 35 26 19 18 21 19 12 10 10 13 13 14 19 25 28 29 27 27 29 31 30 30 27 27 28 28 26 25 24 22 19 14
25 23 21 22 28 23 24 16 19 23 24 27 31 33 39 42 34 29 26 17 17 19 14 10 8 10 13 13 13 18 24 30 32 28 26 25 27 25 28 27 31 41 47 47 45 38 35 30 22
29 27 25 24 23 22 21 21 21 24 29 31 33 39 38 31 24 23 18 15 14 17 11 8 6 12 14 13 12 15 22 24 20 17 16 20 28 29 31 38 42 46 48 47 42 38 38 37 37
29 30 28 27 25 25 25 26 26 29 31 33 33 33 33 25 22 13 15 14 17 16 8 6 5 13 12 12 15 17 20 17 12 14 17 26 31 32 36 42 47 44 44 41 39 38 37 38 42
31 32 33 32 33 30 31 30 30 31 36 36 34 27 28 23 16 10 13 15 16 13 5 4 5 14 13 13 16 22 22 19 20 23 22 30 37 42 42 42 38 39 38 42 41 39 41 42 49
38 35 34 34 35 36 35 35 37 38 39 35 25 22 24 15 13 13 12 12 15 8 5 3 6 13 12 17 25 21 24 24 24 26 25 27 27 34 36 32 33 39 40 38 40 42 41 44 46
40 38 40 40 39 38 37 38 38 34 29 17 14 22 14 10 12 18 18 11 4 3 6 4 7 13 14 22 20 20 24 22 25 28 27 28 30 28 28 23 27 35 36 36 38 36 39 41 46
37 41 42 40 40 39 36 33 30 23 14 14 14 14 7 5 10 16 24 9 2 8 7 5 9 13 18 22 18 23 21 25 28 26 29 28 25 23 28 20 27 31 35 38 40 36 36 37 42
25 28 31 30 33 34 24 21 22 18 16 14 12 15 9 6 11 18 24 10 8 12 10 6 12 15 21 22 20 25 24 24 27 26 26 29 26 21 19 19 27 29 33 35 39 41 41 34 36
28 28 30 25 27 26 22 19 20 17 17 13 12 6 8 10 12 17 21 5 10 13 13 8 13 16 23 21 22 21 26 24 26 24 22 24 27 27 24 17 22 24 25 32 35 36 36 39 33
33 38 35 28 28 28 26 21 21 17 15 13 13 13 15 15 19 15 18 3 10 13 13 10 15 18 22 21 22 19 23 22 22 22 18 19 23 24 24 23 22 23 22 28 30 33 33 37 37
46 45 39 34 31 30 29 23 22 19 17 14 13 14 16 15 15 12 12 5 10 15 14 12 18 21 21 19 22 23 22 20 19 18 15 15 16 19 20 18 18 20 23 25 27 28 30 32 33
49 49 43 37 32 31 32 26 23 18 19 16 13 12 11 9 7 13 11 8 9 13 15 13 18 24 22 21 24 23 23 21 18 17 12 11 12 16 16 16 18 20 21 24 25 25 27 28 29
53 53 49 45 39 38 34 29 23 23 21 20 15 14 11 15 10 11 8 9 5 11 15 14 19 24 25 24 25 24 24 21 17 16 10 10 11 12 13 14 15 17 19 18 20 22 24 26 27
56 56 56 52 48 44 37 32 31 27 28 22 17 16 10 14 11 13 9 8 10 12 15 18 19 23 25 27 27 25 25 18 20 16 11 8 8 10 9 12 12 12 13 14 17 19 22 27 31
59 62 63 57 51 47 43 38 36 30 29 21 19 17 14 10 11 10 10 5 10 11 15 18 19 21 25 27 30 30 25 20 22 18 13 9 8 7 7 8 7 7 7 12 14 17 19 23 26
68 67 67 62 54 50 44 40 38 33 33 28 26 21 16 11 13 17 7 9 5 13 16 19 19 20 24 27 31 30 26 21 21 18 15 11 7 5 5 5 4 4 3 8 11 15 19 22 23
74 71 70 63 57 48 44 41 39 40 38 31 27 24 22 17 14 21 19 11 9 12 15 18 20 20 24 27 30 32 28 24 21 18 14 11 8 6 5 5 4 1 3 6 11 15 22 24 22
78 75 70 62 54 42 44 42 45 46 42 35 30 29 24 19 16 20 21 19 17 15 16 21 22 24 25 29 32 32 30 26 23 19 15 13 10 8 7 9 7 5 4 8 11 14 19 24 22
81 78 70 63 56 47 46 41 50 55 45 41 37 31 25 25 22 21 25 26 22 20 18 20 22 25 29 30 33 33 31 28 25 21 18 16 12 11 10 12 10 7 7 8 12 15 19 21 22
83 77 73 73 65 57 50 50 54 51 47 43 38 31 35 32 29 27 24 24 20 22 22 24 24 26 28 30 30 32 30 27 25 21 20 20 15 13 12 12 10 8 9 11 13 15 18 20 18
89 85 85 74 68 61 56 56 56 53 51 49 41 41 41 39 35 30 28 27 24 25 24 21 26 24 28 28 31 31 31 25 26 24 22 22 18 16 16 15 13 11 12 13 15 16 15 18 20
97 92 86 79 74 66 62 55 60 58 56 53 50 48 45 40 39 35 31 29 23 24 25 23 24 28 30 31 31 31 30 28 31 27 26 23 21 20 19 17 15 14 15 16 16 15 13 16 21
102 99 92 84 74 69 65 61 66 63 60 57 55 53 49 41 42 39 35 31 27 25 27 28 26 29 33 35 33 33 32 32 32 32 28 26 24 24 20 19 18 17 16 15 15 15 13 16 20

GFSSGP_250_spd_069.txt.gz
Wind_Speed
16 14 12 9 6 2 4 11 7 7 10 14 21 25 30 32 31 34 40 42 42 35 37 29 18 15 13 12 14 12 16 14 13 12 12 13 16 13 13 13 13 12 10 10 9 7 7 7 6
16 15 14 11 10 10 10 9 10 9 12 13 18 29 27 28 37 41 43 44 40 35 34 22 17 16 13 13 15 15 16 16 17 17 18 18 16 17 12 11 10 10 9 9 8 6 4 5 5
19 18 13 8 12 8 9 9 12 8 10 21 24 25 27 30 35 38 44 47 31 32 29 17 16 15 13 15 16 19 23 23 24 25 23 22 19 18 17 15 14 11 9 8 9 7 5 4 4
19 22 18 17 13 10 7 10 6 8 11 16 25 23 22 31 38 42 48 34 28 29 24 14 14 12 14 17 19 23 25 26 27 28 28 26 25 25 23 21 20 19 19 17 14 12 8 3 2
20 22 19 17 17 15 12 14 13 11 17 17 21 22 27 34 39 45 37 29 22 27 19 13 13 11 17 20 22 23 25 28 30 31 32 31 29 27 26 25 24 21 19 18 16 15 12 9 6
21 24 19 19 18 19 17 13 8 16 16 18 20 27 31 35 39 38 30 22 20 23 14 13 11 12 17 20 22 24 24 27 28 29 30 32 31 29 29 30 30 28 25 24 20 18 15 10 6
19 17 18 23 24 22 24 20 14 16 18 20 23 27 34 34 40 29 24 19 18 19 12 12 9 11 15 18 21 22 25 25 26 28 27 27 26 34 37 37 35 35 34 32 31 28 22 12 6
24 20 20 21 21 20 15 18 22 27 20 19 24 29 32 34 36 28 22 18 18 16 10 11 8 10 14 19 21 21 19 21 22 25 24 26 32 38 42 38 35 34 33 35 38 44 33 20 13
24 26 24 23 22 19 21 22 20 19 22 23 26 29 34 31 32 26 17 14 16 13 8 10 9 11 13 20 22 17 16 17 23 24 27 37 40 41 42 41 38 37 36 38 44 49 44 39 32
27 25 26 23 21 21 22 23 22 24 26 27 29 32 30 25 28 25 17 13 14 9 6 9 10 9 14 19 19 14 11 18 25 29 37 42 42 39 37 38 39 37 41 39 47 50 55 50 46
31 28 27 26 29 27 25 27 24 28 28 29 28 27 21 21 21 19 22 16 9 3 3 8 11 9 16 20 17 8 13 22 27 34 40 36 34 38 41 40 39 37 38 41 45 49 53 55 56
36 35 32 31 30 29 29 29 30 30 31 32 32 22 12 19 14 14 19 21 10 2 5 8 12 11 18 21 19 17 21 26 32 31 31 30 28 37 39 39 38 37 37 40 43 46 51 53 56
40 40 39 37 35 33 33 33 32 31 32 33 28 13 12 14 5 13 22 18 5 5 7 9 11 12 25 19 20 17 22 25 25 27 26 21 24 32 36 38 39 40 39 39 42 45 47 48 51
39 40 41 39 37 35 37 36 34 31 30 22 12 10 12 8 5 15 20 18 4 6 9 11 14 17 21 19 19 21 25 26 25 29 23 17 22 29 31 34 33 35 39 40 40 41 43 44 48
30 35 40 40 38 38 39 37 34 29 18 13 11 10 10 8 9 16 20 19 4 8 11 13 17 20 18 19 20 20 21 26 28 24 17 15 19 22 25 27 30 35 36 38 40 38 38 40 41
26 27 31 34 33 32 31 29 23 15 11 10 10 4 4 9 13 18 19 14 6 8 12 14 17 23 21 20 19 21 22 24 25 27 26 19 16 18 20 25 28 32 32 35 36 36 35 34 35
30 36 33 30 26 24 24 20 17 14 10 9 9 8 10 11 13 15 15 6 5 7 12 15 17 25 23 20 18 22 22 22 22 23 25 23 21 20 20 22 28 29 30 30 31 31 32 31 31
43 44 37 33 27 23 22 21 19 17 13 10 8 9 7 9 5 8 13 3 6 8 13 16 17 20 25 20 17 20 18 19 18 19 21 19 18 17 18 23 27 24 26 27 27 26 27 26 27
45 46 40 36 32 27 25 23 21 20 18 13 11 8 6 5 5 6 11 2 5 8 11 16 16 18 23 20 21 21 17 16 15 14 17 17 16 16 18 20 21 22 22 23 26 29 29 30 30
52 50 47 45 40 36 30 26 20 25 20 17 13 11 8 6 8 9 6 1 5 6 10 16 17 21 20 21 23 23 20 17 15 12 13 13 11 12 14 17 17 18 19 19 21 24 25 28 31
58 57 56 53 47 42 35 26 27 27 25 18 15 13 9 8 9 10 5 3 8 7 10 15 18 19 21 20 23 19 20 16 14 10 11 9 9 7 10 12 12 13 16 17 20 22 23 22 24
61 64 62 59 51 48 41 35 33 29 27 21 20 16 14 9 9 9 7 5 4 7 10 13 18 21 21 21 22 21 22 17 13 10 8 7 5 5 5 7 7 8 11 15 19 22 27 26 22
71 71 68 64 56 52 43 40 39 33 30 28 27 20 18 13 10 12 7 3 6 8 10 13 16 21 23 22 23 23 22 15 16 12 9 7 5 3 3 3 2 6 8 12 16 18 24 27 24
79 75 72 68 61 51 47 42 41 38 39 33 30 25 21 18 11 10 16 13 4 6 10 12 16 19 22 25 24 24 23 18 15 14 12 9 6 3 3 2 0 3 6 11 15 19 21 24 24
81 79 77 71 60 47 51 44 46 47 44 39 35 28 24 18 13 13 19 18 13 10 8 11 17 21 24 25 25 28 26 23 17 17 14 12 9 5 6 6 4 3 5 10 14 16 20 21 23
85 84 81 74 65 53 54 44 51 55 50 42 38 34 28 25 22 21 19 20 16 13 10 11 14 19 25 26 27 28 28 24 21 20 18 13 10 8 7 9 7 5 5 10 13 15 18 19 21
90 84 81 81 73 64 54 51 61 55 51 45 43 38 35 31 29 26 23 22 22 20 18 17 18 18 22 27 28 30 30 29 25 22 21 16 13 11 10 10 10 7 6 10 13 14 16 16 20
93 90 91 83 75 67 60 59 60 58 56 51 48 45 41 37 33 29 29 26 23 24 21 17 18 19 21 23 26 29 29 27 27 26 24 21 16 13 15 14 12 10 9 11 13 14 14 13 16
99 96 91 85 79 72 65 61 64 62 61 56 52 50 45 42 36 34 31 28 24 24 24 24 20 21 22 26 28 27 27 27 29 27 26 23 18 16 17 17 15 13 12 12 13 12 11 12 15
107 102 94 90 81 75 68 67 69 72 64 59 55 52 49 45 40 36 33 29 26 25 21 24 25 23 26 28 32 31 32 31 30 29 26 23 21 19 19 19 17 17 13 13 11 10 11 13 15

GFSSGP_250_spd_072.txt.gz
Wind_Speed
16 13 10 8 5 2 4 12 4 5 6 16 16 31 28 31 32 36 42 42 34 32 32 21 17 17 12 9 10 12 13 12 12 12 11 10 10 10 10 9 8 7 6 6 6 5 4 4 5
17 15 12 14 11 9 8 5 4 8 15 15 18 24 27 30 30 39 44 40 30 29 29 17 18 16 11 11 16 18 17 16 17 15 17 16 13 14 12 10 9 7 6 6 5 3 3 3 1
15 15 14 14 18 13 9 10 15 13 11 17 26 24 29 31 35 39 45 32 26 28 23 16 17 13 13 17 21 22 24 24 22 21 20 21 21 20 18 18 17 16 14 11 8 4 2 5 5
18 20 18 17 12 8 8 8 9 10 14 18 23 23 27 32 34 41 36 29 28 27 17 16 14 14 17 21 24 28 30 30 28 27 26 27 26 26 26 23 19 15 14 10 9 8 5 5 3
19 21 22 20 18 15 12 11 11 15 16 19 18 21 28 33 36 41 34 25 27 23 15 15 12 16 18 22 24 27 25 28 31 31 31 27 26 28 28 26 23 20 16 12 9 8 8 7 5
12 16 20 20 20 17 16 16 16 15 16 14 17 21 27 32 36 38 33 25 22 20 14 13 10 16 18 23 24 24 27 28 28 31 30 32 33 33 32 31 31 29 23 16 13 9 8 6 6
14 14 22 22 21 19 19 17 20 20 17 20 20 23 27 34 35 34 29 24 21 17 13 11 9 14 20 21 21 23 26 26 28 31 34 31 27 31 31 33 35 36 34 28 14 10 9 7 7
20 18 18 20 19 20 20 19 16 16 18 19 19 25 27 31 30 31 25 21 18 14 10 8 10 13 19 19 19 22 24 27 28 37 35 34 33 34 39 39 38 43 50 44 36 29 22 18 13
20 23 22 21 20 20 20 19 20 21 19 20 22 24 26 29 23 26 23 19 16 10 8 7 11 14 17 19 16 18 21 23 34 35 33 32 35 37 39 41 42 49 53 56 54 47 38 32 26
26 22 24 25 23 22 21 21 19 17 20 22 23 27 29 23 18 18 18 18 14 6 7 7 10 13 15 15 16 17 19 27 35 34 37 36 37 39 40 41 42 47 50 54 60 57 59 53 52
30 28 27 25 26 24 23 21 21 22 24 24 25 29 30 19 15 11 16 17 11 3 6 8 9 13 14 11 9 13 22 33 33 30 35 36 38 42 41 39 41 41 46 51 54 56 54 52 53
35 35 33 31 31 28 26 26 27 26 26 26 26 29 28 13 10 9 16 19 9 2 6 11 10 14 16 16 18 19 25 30 28 24 33 33 38 42 41 39 41 42 45 47 50 52 54 55 55
41 41 37 36 34 32 31 30 27 28 27 29 28 24 14 12 4 10 16 19 6 2 7 15 11 16 18 18 20 23 30 23 22 23 27 31 31 36 37 39 39 39 42 45 44 48 49 51 51
41 41 41 41 38 36 34 33 32 30 29 28 25 14 13 5 5 10 16 17 6 5 9 17 16 16 19 21 22 22 26 21 18 17 21 25 26 32 34 35 37 37 39 42 41 40 40 40 42
35 41 42 41 40 39 39 35 33 31 28 26 22 11 9 5 6 12 15 15 2 8 12 19 21 13 20 21 22 23 21 21 21 17 15 16 23 27 29 30 32 33 33 33 34 36 37 37 36
30 31 36 40 40 38 37 35 32 30 25 19 12 9 7 8 9 8 12 12 6 7 14 21 23 15 17 19 20 25 25 20 14 14 13 18 22 22 26 27 29 30 31 31 32 32 31 32 34
33 35 33 32 34 36 36 33 27 21 16 13 9 7 6 8 6 4 12 8 7 5 15 24 24 19 17 19 22 22 26 24 24 21 19 21 22 21 22 25 25 27 27 27 29 30 31 34 34
42 42 34 30 27 25 26 21 19 19 16 12 9 6 7 4 3 2 10 4 7 5 14 24 27 24 19 19 22 19 21 22 22 20 19 19 22 22 21 23 23 27 31 30 30 30 31 32 33
47 44 40 33 27 23 22 18 19 18 17 16 12 10 9 5 3 1 6 3 5 5 10 21 27 25 20 17 19 17 16 17 19 17 16 18 19 18 20 19 20 21 22 26 27 27 24 27 33
52 49 47 42 36 31 27 24 23 22 19 19 18 14 10 6 7 6 2 1 3 6 8 19 23 28 25 20 18 16 14 15 14 15 12 13 14 15 16 16 16 16 19 24 26 29 27 28 32
61 57 55 50 44 38 32 28 26 24 24 23 18 16 11 9 5 7 5 2 5 2 9 15 21 23 27 23 20 17 13 12 11 13 11 10 10 10 12 13 13 15 16 20 22 26 31 29 32
67 65 62 57 50 47 40 34 32 30 28 23 22 19 15 11 8 7 10 5 1 3 9 11 21 24 23 21 22 22 17 15 12 10 9 8 7 8 8 6 8 11 14 18 22 24 28 29 32
75 72 68 64 58 52 42 39 39 34 30 27 27 21 19 14 12 8 13 10 6 7 7 8 15 24 24 21 24 23 19 16 11 9 7 6 5 5 5 4 4 9 13 15 20 22 25 27 30
83 76 75 70 65 56 49 44 43 39 39 33 30 25 22 17 14 11 15 15 11 9 9 11 11 21 25 25 26 22 19 18 14 11 7 4 2 1 2 1 2 5 11 14 18 19 21 24 26
83 83 79 77 69 56 57 50 49 48 44 40 34 28 23 19 19 16 16 18 14 9 6 11 14 19 23 25 24 24 23 22 16 13 10 7 4 3 3 2 1 4 8 12 15 18 19 22 24
86 86 83 78 73 64 64 53 52 54 52 46 39 35 28 28 26 23 19 21 21 15 10 6 11 15 22 24 24 25 26 24 20 15 14 11 8 7 6 4 2 2 6 10 14 16 17 19 22
90 88 81 85 81 72 67 62 59 58 55 50 44 39 36 35 31 27 24 21 24 24 18 14 12 14 17 18 23 25 26 26 24 19 16 14 12 10 8 8 5 3 3 9 13 15 15 17 18
97 92 93 87 81 74 72 68 61 62 60 57 51 47 45 41 35 32 29 24 24 27 23 17 14 14 16 12 19 25 25 25 25 25 20 17 16 13 13 11 8 6 3 6 11 13 14 16 17
104 99 94 89 81 79 76 71 68 67 64 62 56 55 52 47 42 37 33 29 24 22 23 25 20 20 18 19 19 25 28 28 27 27 24 22 21 17 16 14 11 9 6 5 10 11 12 13 16
109 102 99 96 85 81 81 77 75 68 73 69 62 60 56 52 46 42 35 30 29 26 22 25 26 24 23 24 24 25 28 29 30 29 27 24 22 20 17 15 13 12 8 6 8 10 10 12 15

GFSSGP_250_spd_075.txt.gz
Wind_Speed
13 10 8 8 5 2 5 10 8 5 7 18 11 28 31 31 34 37 43 41 30 29 28 19 17 15 12 9 10 11 12 13 12 11 9 9 6 6 5 4 2 2 3 3 6 6 7 8 10
14 13 11 11 9 8 6 10 2 6 12 20 20 29 31 35 34 38 44 36 30 28 22 18 16 13 11 16 18 17 16 19 20 17 12 10 11 11 12 10 7 6 3 3 4 6 7 7 8
18 14 13 14 9 14 11 11 11 14 11 18 24 21 30 29 34 39 43 33 28 24 19 16 14 12 17 23 26 24 23 21 20 16 15 17 16 15 13 12 11 8 7 5 5 6 9 9 8
15 13 15 13 12 14 9 10 10 10 15 14 22 29 24 28 36 39 40 30 24 22 17 14 12 14 20 24 25 27 26 24 20 19 20 20 22 22 18 16 12 9 5 4 7 8 9 7 6
18 18 18 18 18 18 14 13 12 10 11 18 22 21 24 30 34 38 35 29 26 20 17 13 11 15 16 24 26 25 23 23 23 26 27 28 28 28 27 20 16 11 9 7 8 10 8 7 6
18 17 17 18 21 20 17 14 18 18 12 19 19 26 26 29 33 34 30 28 24 19 15 11 10 16 17 21 24 24 25 28 30 26 29 28 31 34 36 25 19 16 9 10 9 8 8 6 5
17 13 16 18 19 19 19 15 13 15 21 21 20 22 24 27 32 29 27 25 20 16 13 11 10 15 18 22 22 29 31 31 30 30 34 34 37 41 45 44 34 30 26 19 13 10 8 6 5
19 17 15 19 19 20 18 19 21 24 18 17 16 22 24 27 32 26 23 25 18 12 10 10 11 14 16 19 24 29 29 26 31 34 33 37 41 45 48 54 57 49 45 41 33 27 21 14 11
18 18 18 16 17 22 21 19 17 29 19 16 18 22 26 28 30 18 18 23 14 9 7 10 13 13 14 15 26 29 32 29 32 33 35 38 37 42 47 50 54 55 55 57 52 48 37 25 19
22 19 15 21 14 11 24 20 22 22 21 19 20 24 28 30 24 12 17 21 12 6 5 9 11 13 12 17 23 28 33 32 35 37 38 37 36 37 42 44 47 50 52 50 51 56 59 32 33
25 21 10 22 26 31 25 23 20 21 23 24 23 26 28 29 13 7 15 22 11 5 5 10 11 11 11 15 19 26 28 31 31 38 39 34 35 35 39 40 43 47 49 50 51 48 48 45 46
34 31 32 34 30 27 27 27 22 18 12 30 27 28 29 18 11 6 13 19 9 6 6 12 10 11 10 11 19 23 23 28 27 31 35 37 35 33 35 39 42 43 47 47 48 47 47 42 40
40 39 38 38 38 33 30 31 25 21 28 29 29 28 27 14 4 7 14 17 7 7 8 13 14 12 11 14 18 23 19 22 26 26 30 34 36 36 36 36 38 41 39 41 40 40 40 38 37
46 45 43 41 41 38 35 33 31 29 28 28 28 27 23 12 5 7 15 14 4 8 11 13 17 13 12 15 18 21 15 15 22 24 21 26 30 31 32 34 35 33 35 37 37 39 41 38 33
47 48 46 45 42 39 38 34 34 33 31 28 27 25 20 11 7 11 7 12 2 11 14 17 19 16 14 14 19 15 15 10 15 15 17 22 27 26 29 29 29 30 31 34 36 39 41 42 38
39 44 46 45 45 41 38 35 32 34 31 29 27 21 13 10 11 8 6 8 9 13 17 20 20 19 15 15 15 16 15 12 10 15 19 20 22 24 27 28 29 31 34 34 35 39 38 41 38
36 41 42 42 42 40 38 33 26 36 31 27 23 15 9 10 7 2 6 3 9 11 19 22 21 20 17 15 16 17 16 9 13 16 19 20 18 21 25 28 30 30 32 33 34 35 39 41 39
43 44 38 35 31 29 29 30 25 33 26 23 21 14 11 6 6 4 6 3 9 9 19 25 22 20 20 18 16 16 18 18 20 18 19 21 17 17 22 21 24 29 31 34 34 34 39 41 38
48 45 41 36 29 23 21 23 22 39 26 23 21 15 12 7 6 5 3 5 6 10 13 26 24 21 24 21 17 15 14 16 18 19 17 17 16 14 17 18 19 26 28 32 36 35 38 40 40
53 51 47 41 34 29 24 21 25 28 26 25 22 15 13 8 8 8 2 3 7 11 10 23 27 23 23 24 20 16 14 11 12 16 16 14 13 12 14 17 16 22 25 30 33 35 36 38 40
61 58 54 51 42 39 31 25 24 23 22 26 23 17 13 11 6 10 6 2 10 8 13 17 27 27 24 22 20 17 14 10 9 11 13 12 11 9 10 14 15 19 23 29 30 31 34 36 37
68 65 62 57 50 46 38 34 29 32 23 32 25 21 18 15 9 10 11 7 10 10 13 15 24 28 27 22 20 18 16 12 8 7 9 10 10 9 8 11 14 16 21 24 27 28 30 33 34
72 72 69 64 58 53 44 40 37 36 34 31 28 24 22 17 13 11 12 11 11 13 13 15 19 24 29 25 23 22 19 15 10 6 5 5 7 7 7 7 9 14 18 21 24 26 27 30 31
79 75 74 72 67 57 52 46 43 41 39 36 32 27 25 21 15 12 15 16 14 17 14 19 17 24 26 27 28 24 18 16 13 11 6 3 4 5 5 5 6 10 15 19 20 23 25 27 29
82 78 77 77 73 60 61 53 50 48 45 40 36 31 27 23 20 17 20 20 14 16 18 19 21 25 30 29 29 27 21 18 16 14 7 4 1 2 3 4 4 6 11 16 18 20 22 24 26
87 85 81 78 76 66 69 59 55 56 51 46 40 35 31 28 25 24 19 20 20 17 15 13 15 21 29 30 28 28 26 22 19 14 11 7 4 2 2 3 3 3 6 11 15 18 19 19 23
91 91 83 83 82 76 76 70 65 61 57 54 48 43 38 36 33 28 23 23 25 22 19 17 15 14 22 26 25 26 27 26 23 16 13 10 8 5 3 3 4 4 5 8 12 14 15 16 20
102 93 92 89 85 82 81 76 69 66 62 61 54 48 46 43 38 33 30 27 26 26 25 15 13 16 15 12 22 26 26 26 24 22 19 15 12 10 7 5 6 6 6 5 8 10 12 14 16
103 100 98 93 89 86 84 77 75 70 67 66 62 59 54 51 47 41 36 31 27 27 27 25 19 17 19 19 17 24 26 26 26 25 23 21 17 14 12 9 8 10 8 6 5 7 9 10 13
108 112 108 101 93 88 88 87 82 78 74 70 68 63 61 58 53 47 42 36 33 32 29 27 21 23 22 23 24 21 23 26 27 28 26 25 23 19 17 14 11 11 11 9 6 6 7 8 10

GFSSGP_250_spd_078.txt.gz
Wind_Speed
7 5 3 4 1 3 10 13 12 7 18 21 24 32 28 28 30 39 45 41 31 26 22 18 18 19 16 14 9 11 11 13 10 7 5 6 3 1 1 3 4 5 5 7 10 10 10 12 13
12 7 6 6 6 10 5 14 15 7 9 23 24 21 33 30 34 41 43 38 30 23 20 19 19 19 22 19 16 14 15 11 10 10 8 5 5 4 4 4 4 5 5 6 7 11 12 11 12
14 10 10 6 1 14 12 16 14 14 17 19 17 25 30 35 36 40 41 36 29 22 17 18 17 20 23 22 19 17 15 15 15 15 15 15 11 7 3 4 4 6 7 7 8 9 9 10 10
15 10 10 7 6 9 16 14 11 16 17 10 27 27 29 34 35 40 39 35 28 21 14 15 14 20 22 22 18 20 17 20 22 22 24 24 20 14 10 8 4 5 8 8 9 12 11 10 8
16 13 10 10 12 13 17 21 21 21 21 16 20 23 26 29 35 40 37 33 26 19 11 12 12 15 21 24 21 24 23 24 22 27 32 33 26 19 14 11 7 9 9 10 11 11 10 8 7
17 13 13 12 13 18 20 22 22 20 14 20 22 20 24 28 34 38 31 32 23 17 10 10 13 16 18 22 24 23 22 25 31 35 42 46 42 36 32 27 23 15 14 12 10 8 6 4 3
19 12 9 11 11 16 23 24 25 23 19 24 21 21 23 28 34 36 27 28 21 14 9 9 14 18 18 21 22 22 24 31 38 41 44 51 53 55 50 46 39 33 28 22 14 9 7 6 6
21 12 6 9 11 13 20 24 22 17 24 22 19 20 25 29 35 35 22 26 20 11 8 10 11 16 17 20 20 22 23 33 40 42 45 47 48 49 49 49 53 50 47 47 43 37 29 21 15
21 18 7 14 17 23 39 27 16 25 9 21 22 26 27 31 33 27 18 24 18 8 8 12 11 14 16 21 26 26 26 36 36 34 36 44 42 42 44 46 50 48 47 48 39 44 34 31 33
23 19 21 20 15 25 16 16 14 10 26 24 25 26 25 33 33 20 16 22 15 5 8 14 14 14 15 22 25 31 32 36 33 36 32 31 37 38 39 43 48 52 49 49 42 37 42 23 20
24 22 22 14 15 21 21 18 23 21 26 24 28 20 27 32 29 17 13 21 15 3 8 13 12 12 14 18 26 29 32 31 32 33 34 30 23 37 35 39 48 40 53 45 44 37 32 39 21
27 27 27 18 32 25 28 25 27 26 26 28 9 26 28 32 27 12 13 18 13 0 8 11 11 10 14 17 21 27 28 32 35 39 41 35 39 32 27 32 50 48 38 45 33 27 30 29 30
35 35 35 32 28 27 25 17 20 31 23 25 28 27 29 32 26 13 14 19 10 3 9 13 13 12 16 16 15 20 25 26 31 36 37 30 32 29 30 38 31 38 26 34 31 33 28 26 27
43 39 40 40 39 36 31 28 17 28 32 34 30 29 28 30 24 13 15 15 7 6 10 13 12 11 14 16 11 14 18 21 23 27 33 32 30 30 34 36 37 36 36 33 34 30 32 29 27
49 47 45 43 44 41 36 36 31 30 32 33 30 28 28 26 22 12 15 13 6 10 12 14 14 14 13 16 11 9 10 17 19 21 27 29 30 30 34 34 36 34 36 38 39 38 31 31 30
51 50 48 47 47 46 42 40 36 35 29 36 32 29 25 19 18 12 12 15 7 13 15 17 16 17 15 14 11 8 13 14 18 21 27 21 26 30 32 35 38 37 35 40 42 42 36 32 30
50 52 51 47 46 43 43 40 37 35 38 36 29 24 21 16 15 11 9 9 9 13 18 18 18 19 18 14 14 11 7 14 16 16 17 21 20 25 28 31 34 38 38 39 41 41 37 36 33
47 52 51 46 44 41 42 38 37 29 27 26 25 25 18 16 10 10 9 4 9 13 17 19 21 19 19 18 17 14 11 16 16 18 15 16 17 19 20 29 31 32 35 38 40 41 41 37 35
49 49 45 40 38 35 33 33 31 30 15 25 33 26 21 14 8 9 7 4 8 14 16 18 22 19 20 19 18 17 16 17 16 15 15 12 13 16 17 23 28 30 32 36 37 40 40 41 40
53 51 48 42 36 32 29 25 29 29 29 18 25 22 21 15 9 11 7 4 8 13 20 20 22 22 20 20 18 17 16 15 14 14 12 11 11 15 18 19 24 28 31 32 35 37 40 40 40
60 56 55 47 39 36 32 28 36 35 27 24 32 26 20 14 8 11 11 4 9 11 20 23 22 22 21 19 17 16 15 14 12 12 12 10 8 10 13 16 20 24 28 31 32 35 37 37 37
63 64 61 52 43 41 38 32 33 43 29 30 23 24 22 18 14 10 13 6 6 12 19 25 27 21 21 21 18 16 15 13 11 11 10 8 6 6 11 13 17 21 25 28 31 32 34 35 36
67 67 66 61 52 49 43 36 36 42 33 35 29 32 29 23 17 11 11 12 10 14 19 25 25 29 24 22 21 18 15 12 11 9 9 9 8 7 8 8 14 18 21 23 28 30 31 32 35
76 71 68 67 60 54 50 44 40 40 43 41 32 37 32 27 21 15 14 19 16 17 21 24 27 31 30 27 24 21 16 14 12 9 8 6 6 6 7 7 11 15 18 21 22 24 28 30 31
82 78 74 71 65 59 60 53 49 45 45 45 43 38 34 32 24 21 18 19 20 17 20 22 26 29 32 34 29 25 21 17 14 11 8 7 5 4 6 6 6 10 14 17 18 21 23 26 27
84 84 82 76 72 67 68 60 55 57 52 47 43 39 35 32 27 25 23 22 18 18 20 20 22 26 29 33 32 28 25 23 19 14 11 6 4 1 3 4 4 6 10 13 15 16 18 22 23
89 90 83 82 80 74 73 70 65 64 58 54 50 40 36 33 31 30 27 26 22 20 20 21 20 23 29 31 29 29 29 27 22 17 14 10 6 3 1 3 3 2 5 9 12 14 15 17 19
97 92 91 87 85 80 79 75 71 68 62 61 54 42 36 45 36 34 30 29 26 24 21 19 16 18 18 24 28 26 28 27 24 22 17 12 9 7 5 3 3 3 3 5 8 9 11 14 16
94 96 97 93 89 85 84 80 77 75 71 66 59 50 38 41 36 45 35 34 29 28 28 23 20 18 17 20 25 27 29 29 27 25 25 20 15 11 9 6 6 6 5 5 4 5 7 9 12
102 99 101 99 91 86 88 90 91 83 76 72 67 60 56 42 43 49 53 45 36 34 32 32 26 21 21 20 22 22 24 24 27 29 28 25 22 18 14 11 9 9 10 9 7 5 4 5 8

GFSSGP_250_spd_081.txt.gz
Wind_Speed
1 1 2 5 6 8 5 7 14 17 12 12 26 25 29 35 38 43 47 43 31 25 23 23 26 25 22 17 15 13 13 14 12 10 9 7 6 6 6 7 8 8 6 6 6 8 9 12 15
6 3 2 3 7 7 5 12 17 20 16 19 22 22 33 38 35 43 47 40 29 23 21 21 26 25 21 17 15 14 16 17 16 13 10 6 5 3 2 4 7 10 10 9 9 8 9 11 13
9 5 2 2 7 6 8 12 16 19 17 21 24 25 32 31 37 43 45 39 28 21 19 19 24 25 21 17 17 20 23 23 20 16 14 10 6 2 3 2 2 3 5 6 8 10 9 9 11
11 7 3 1 5 9 16 12 11 21 20 24 21 28 27 32 37 43 43 36 27 18 15 19 21 22 22 23 25 24 25 28 29 25 23 19 12 1 3 5 5 4 5 3 6 7 9 10 10
14 8 4 2 4 9 15 20 20 22 21 18 20 25 29 31 38 41 39 33 26 16 14 18 18 20 21 23 22 25 33 41 44 45 43 34 27 20 12 10 8 10 8 7 8 9 7 7 6
14 9 4 3 7 13 18 18 22 21 22 20 21 22 26 33 38 44 33 32 26 14 12 20 18 17 20 20 23 27 36 40 45 46 48 49 42 36 31 23 20 17 13 10 10 7 4 1 3
15 12 4 5 5 13 26 20 17 15 24 15 18 23 29 31 38 41 31 31 21 13 11 17 16 16 16 18 22 28 32 36 41 44 49 50 49 53 50 47 45 37 26 18 13 11 8 4 2
17 16 8 6 2 25 21 12 15 23 20 15 19 25 28 31 36 37 28 30 21 12 10 13 15 16 17 18 23 28 32 33 41 37 47 50 50 45 44 44 41 43 45 36 26 25 28 21 14
18 21 12 11 9 21 8 19 25 10 7 17 25 24 28 31 34 35 25 28 24 11 11 12 15 18 21 21 26 26 21 25 20 29 47 44 45 43 49 42 42 41 45 38 26 19 19 24 20
22 21 24 14 14 5 21 12 7 9 16 7 26 27 23 30 33 34 22 26 25 8 10 12 16 21 22 22 23 21 23 22 27 27 26 35 39 49 43 44 49 47 39 36 30 25 26 23 21
28 25 26 20 17 14 15 7 15 25 10 22 25 25 23 32 32 32 20 23 25 7 10 11 14 19 21 22 21 20 23 28 32 28 36 36 34 31 42 36 39 32 31 32 30 28 27 28 24
32 31 27 19 12 7 12 16 17 24 23 21 23 21 25 29 29 32 23 20 22 6 8 8 14 18 19 19 21 25 26 26 31 32 35 26 36 38 42 33 23 20 24 29 30 27 25 24 22
36 36 33 28 16 13 22 20 25 10 6 20 24 33 28 27 29 29 22 20 18 4 5 8 14 19 16 14 16 19 26 25 32 29 31 35 26 28 29 27 26 13 20 28 20 24 26 22 21
39 38 38 34 35 17 22 30 17 20 8 21 29 28 28 25 28 26 21 14 18 3 6 6 15 19 16 12 14 16 21 25 30 30 34 32 33 33 32 24 28 29 26 18 23 22 23 21 23
44 42 41 37 37 34 23 17 26 25 23 26 23 27 27 28 25 23 18 13 15 5 9 6 13 16 19 11 7 15 18 21 15 27 33 36 39 36 29 26 27 33 32 34 31 29 27 21 22
48 47 48 45 40 39 38 27 30 31 32 27 34 29 31 26 23 21 16 11 11 8 11 9 13 18 18 15 9 13 15 19 20 22 26 31 33 30 31 28 30 35 37 34 31 32 32 30 26
53 53 51 49 47 45 43 40 34 31 27 31 32 29 27 27 21 18 12 10 5 8 13 12 14 18 19 17 14 12 13 13 15 18 20 21 24 29 29 30 32 35 36 36 36 36 34 34 33
57 54 53 52 51 47 45 41 43 42 38 23 30 22 20 13 14 16 9 9 5 9 16 14 15 17 18 17 16 13 13 12 12 12 16 16 19 25 27 31 31 34 37 37 38 38 37 36 36
56 56 55 53 53 49 46 43 44 41 39 36 34 25 27 16 10 13 7 6 6 8 20 15 15 17 17 18 18 16 13 14 10 8 11 13 15 19 24 26 29 32 34 37 39 39 40 36 36
56 55 54 54 54 53 50 47 45 41 38 34 28 28 26 13 11 12 6 1 6 8 21 20 16 19 17 19 21 19 16 13 12 9 7 12 13 17 19 23 28 30 33 35 37 38 37 38 36
61 58 58 55 50 46 43 39 40 39 35 28 32 28 29 20 13 10 10 4 5 7 20 23 20 22 18 20 20 19 16 14 11 9 6 8 9 11 16 19 23 28 30 32 34 35 36 37 37
66 64 63 59 48 44 39 35 37 36 36 32 27 29 32 23 18 13 12 9 8 6 15 27 25 24 20 19 18 16 16 15 13 11 8 6 7 9 12 17 20 23 26 29 31 32 34 35 36
71 70 68 64 54 45 38 36 36 33 38 44 37 32 28 23 21 14 10 16 13 13 12 26 28 26 23 20 20 18 13 13 11 10 8 6 6 7 11 14 17 19 22 24 29 29 29 33 34
76 73 70 68 62 47 45 41 37 36 49 48 47 46 24 25 25 18 17 19 17 16 16 22 30 29 27 23 21 19 16 13 12 11 9 8 7 6 7 10 13 16 18 21 23 25 26 27 30
79 77 73 70 66 57 57 49 45 43 49 49 42 38 34 32 25 24 23 20 20 17 18 19 25 30 31 28 24 21 20 17 14 11 9 6 5 5 5 7 9 13 16 17 19 21 22 24 25
83 83 79 74 70 65 65 54 54 51 55 54 45 46 36 33 32 32 30 24 21 20 20 19 20 24 29 31 29 25 24 21 18 14 11 7 4 3 4 5 5 7 11 14 14 16 19 19 21
86 85 82 81 78 70 68 63 61 60 57 52 50 45 44 40 37 37 32 28 22 17 19 18 19 20 27 31 32 31 27 27 24 20 17 12 8 4 2 2 2 3 5 9 11 12 15 17 17
89 87 87 86 83 76 74 71 69 67 64 59 54 52 48 40 39 39 35 32 25 19 19 18 22 22 21 28 30 32 29 29 27 24 20 19 14 10 7 4 2 0 0 3 5 8 10 13 14
95 95 95 91 88 85 81 75 79 78 74 70 64 58 52 47 40 45 30 38 29 23 21 20 21 22 20 22 29 29 29 32 31 28 25 22 18 14 11 9 6 4 3 3 1 3 5 6 9
97 93 97 98 94 89 85 84 89 80 77 72 65 63 64 54 57 53 57 41 38 33 27 22 22 23 20 20 23 30 30 28 33 31 29 28 24 19 16 13 11 10 7 6 7 4 1 1 3

GFSSGP_250_spd_084.txt.gz
Wind_Speed
4 3 4 6 6 6 3 8 16 21 19 20 24 25 30 35 37 43 43 38 26 21 26 31 27 25 22 22 21 19 15 11 11 10 9 8 7 7 10 11 11 7 4 2 4 8 19 27 28
5 1 4 4 11 13 3 9 15 21 19 22 25 24 31 33 38 44 38 37 23 19 24 27 25 23 22 22 23 23 23 17 14 12 11 8 7 5 3 4 7 9 9 6 3 4 8 11 18
8 4 2 4 5 1 5 7 13 17 21 22 28 28 30 34 39 45 37 35 21 16 21 23 23 24 23 26 27 31 34 29 24 20 16 11 4 2 2 1 3 3 4 6 7 5 5 8 11
10 7 5 2 14 9 10 15 16 23 21 23 27 25 27 33 40 43 36 34 19 13 21 19 20 23 22 28 33 37 39 40 36 30 26 22 14 7 5 6 5 8 5 2 4 6 7 7 10
14 10 7 6 3 11 11 18 22 18 16 23 16 23 30 33 39 42 34 35 16 12 21 19 21 21 22 25 33 41 43 41 43 44 42 39 33 28 21 16 14 9 9 7 5 5 3 6 8
17 14 12 5 13 9 10 19 21 13 18 13 13 25 28 33 37 42 31 34 18 11 18 18 19 20 19 22 30 42 41 43 41 42 48 51 51 48 42 34 22 13 8 9 8 4 3 6 11
18 15 10 9 8 8 10 16 20 11 11 9 14 22 30 31 36 41 30 32 19 11 15 17 21 19 18 19 28 38 40 42 44 44 41 42 43 45 44 44 40 23 17 15 19 16 8 2 7
24 18 14 9 7 21 14 14 12 6 13 4 9 22 27 32 36 40 30 31 20 12 14 17 22 17 18 20 19 26 30 35 40 39 41 42 38 47 43 44 41 33 18 17 12 12 10 12 6
26 22 18 12 11 10 15 11 8 10 13 4 8 18 27 26 37 37 31 28 23 11 14 17 23 17 19 16 16 15 23 29 27 29 32 33 34 32 36 38 35 32 24 18 18 17 15 14 17
25 24 19 15 13 16 23 15 10 10 16 17 14 28 28 27 33 35 30 25 23 9 12 15 20 18 16 16 19 21 18 16 28 33 34 31 33 31 26 26 31 28 29 22 20 23 18 16 15
27 27 22 19 15 22 24 15 9 10 12 10 27 26 29 27 31 32 28 23 21 8 8 10 16 20 16 17 20 26 24 22 20 30 30 32 29 23 20 10 19 20 27 22 15 17 19 17 15
32 30 26 26 16 17 15 15 7 9 9 14 15 23 30 31 28 30 28 20 17 8 5 9 13 17 18 19 20 22 22 22 25 21 19 19 23 26 23 19 18 21 20 19 13 15 20 21 20
35 34 32 28 25 20 17 14 15 9 7 8 14 18 31 26 27 27 27 17 14 6 9 8 12 14 14 18 20 21 24 23 26 25 23 16 20 20 26 25 23 26 22 16 14 16 19 21 22
40 40 37 33 27 25 24 15 18 9 16 16 14 21 20 21 24 28 25 16 13 7 10 8 14 14 13 15 14 19 25 25 27 26 29 27 23 21 22 29 28 26 25 22 21 20 18 19 22
45 45 43 38 35 28 28 30 25 24 20 21 23 24 30 28 36 30 23 15 15 4 11 9 21 13 11 13 12 11 15 21 20 27 27 25 23 22 23 29 30 32 32 31 30 21 18 18 22
51 48 47 43 41 40 27 25 21 25 30 27 27 29 29 34 26 25 21 14 12 5 11 8 17 19 12 9 12 14 16 17 19 20 25 25 24 25 25 30 32 34 35 35 37 31 20 16 22
59 55 53 49 45 43 47 37 29 21 33 31 29 29 28 28 20 19 16 13 7 4 11 8 13 21 17 11 11 13 13 16 14 14 19 24 24 25 26 28 32 34 35 38 38 37 28 17 21
63 58 55 53 49 46 45 47 46 39 32 33 29 31 10 15 19 15 15 14 3 6 13 10 12 21 18 15 13 11 12 12 13 12 15 18 21 24 27 28 32 34 36 38 38 37 36 28 25
65 63 60 58 54 49 49 47 46 45 43 41 40 34 33 25 22 19 13 12 5 7 15 15 11 19 17 17 15 14 11 9 9 9 11 14 18 22 26 28 31 33 33 34 35 36 38 38 33
63 65 65 61 59 54 52 54 53 51 47 44 42 37 31 24 17 20 11 11 7 9 16 20 13 15 20 19 19 15 11 11 8 7 9 12 14 18 21 24 28 30 31 33 34 33 36 36 34
63 60 65 65 61 57 54 51 54 52 51 45 42 40 35 23 23 23 8 13 10 10 18 21 20 16 19 19 18 16 14 11 10 7 5 7 9 16 18 21 24 27 28 30 32 33 33 33 33
67 67 65 65 61 58 56 53 53 52 47 45 41 40 35 31 30 23 15 13 13 14 18 23 24 21 20 20 17 16 13 11 8 6 5 6 9 13 15 17 20 23 26 28 28 30 32 31 31
73 70 68 67 60 54 52 50 47 47 46 46 43 40 33 33 31 24 17 20 17 15 19 25 25 27 22 22 19 16 14 12 10 7 6 6 10 10 11 13 16 19 22 23 25 25 27 29 31
77 74 72 68 63 56 54 49 45 44 45 43 43 39 39 34 32 26 23 20 21 18 19 27 27 28 26 22 21 17 14 12 9 7 5 6 7 6 7 9 12 14 18 21 22 23 23 25 27
80 80 76 72 69 63 61 52 51 48 47 44 47 45 42 34 37 35 28 22 22 20 20 22 30 29 28 26 22 20 16 13 10 8 6 4 4 5 6 5 8 11 14 17 19 19 20 20 21
80 80 79 77 73 69 68 55 57 57 52 48 50 51 45 36 37 34 31 24 23 22 20 19 25 33 32 30 25 22 20 17 14 10 8 6 4 3 4 5 5 6 9 12 14 17 16 17 18
85 83 84 80 78 75 75 67 69 62 56 51 54 55 46 51 44 41 35 28 27 20 20 19 19 25 33 33 30 28 23 20 19 16 13 10 7 5 2 2 3 2 5 7 8 11 14 14 15
93 90 88 86 81 76 78 74 78 69 64 57 56 55 52 50 52 45 37 31 30 24 21 22 22 20 26 31 34 31 29 24 23 22 18 17 13 11 8 5 3 3 2 2 4 5 7 11 12
96 95 94 89 86 83 81 84 78 73 68 63 60 59 58 52 54 46 38 34 34 28 26 23 24 21 24 28 33 36 35 32 29 25 24 21 19 17 14 11 9 6 4 4 2 1 3 5 7
98 98 98 94 90 88 86 90 82 77 72 67 63 65 63 59 53 47 38 37 37 33 29 25 23 20 26 22 24 29 31 35 34 30 28 26 22 22 18 17 14 12 8 7 6 6 4 5 5

GFSSGP_250_spd_087.txt.gz
Wind_Speed
9 8 9 12 11 8 10 12 14 17 18 20 24 31 30 35 40 35 36 26 20 24 25 25 25 24 22 23 23 20 17 15 13 11 9 7 7 6 9 8 9 8 6 5 4 3 8 9 12
7 5 5 12 13 5 11 16 14 17 20 20 26 25 30 38 42 34 38 23 19 23 23 24 26 26 26 28 30 29 22 17 14 11 7 3 1 1 0 3 4 7 7 6 3 4 12 23 20
10 8 7 6 7 3 13 11 15 17 20 21 21 23 32 35 41 33 38 22 19 23 22 22 24 28 31 34 37 41 39 33 29 25 19 14 8 7 4 5 3 3 3 5 6 4 3 10 18
12 11 8 1 11 3 10 13 12 18 20 16 17 24 33 34 42 33 37 22 17 22 23 22 23 28 34 34 35 41 46 49 48 46 42 34 25 17 13 7 8 8 7 4 3 6 5 5 6
15 13 8 5 4 7 12 17 9 17 19 19 18 24 31 36 42 36 36 22 17 21 21 20 21 28 35 35 39 40 39 40 46 49 50 51 44 29 22 16 11 10 9 5 2 4 4 6 8
18 14 10 1 11 10 6 3 7 26 21 20 17 22 27 32 41 40 33 24 16 19 19 18 20 23 33 33 35 38 38 37 36 40 42 43 42 40 37 21 13 7 6 8 5 3 8 9 9
22 17 11 9 12 11 12 16 18 20 18 21 13 22 26 33 39 42 31 24 15 16 17 19 18 18 20 23 31 37 37 36 32 29 34 39 37 38 37 29 19 16 17 11 9 5 4 6 11
24 20 14 13 21 22 16 20 12 9 13 6 11 21 30 35 37 39 29 24 13 15 17 18 17 16 14 14 18 29 30 28 30 29 26 30 30 31 32 28 29 16 9 8 7 6 4 2 4
28 24 18 13 10 4 13 14 12 9 12 2 7 18 33 38 36 36 31 24 12 12 15 17 17 17 17 16 12 21 27 29 28 28 27 28 28 28 30 24 24 27 16 15 11 7 6 4 6
30 27 20 15 12 9 18 8 16 15 9 13 9 16 28 32 38 33 32 22 12 9 12 16 11 15 18 20 18 16 21 26 28 24 26 28 27 26 29 23 23 22 20 16 19 19 16 13 11
31 29 25 20 14 17 18 21 11 14 13 10 16 14 24 26 36 32 34 22 14 7 8 12 15 16 15 19 21 23 21 22 17 18 23 22 28 33 30 25 24 20 17 15 18 22 20 17 16
31 29 27 24 21 23 25 21 14 11 15 14 12 17 24 22 25 31 38 26 15 3 5 11 14 15 15 21 22 22 25 21 16 19 24 24 26 29 30 29 27 22 17 14 17 23 25 18 14
34 32 30 29 25 30 26 21 15 11 13 4 13 20 18 16 28 40 39 28 14 2 3 6 11 11 14 20 22 20 24 25 24 23 26 24 28 31 31 32 29 23 17 15 19 22 26 21 22
42 38 37 33 33 33 30 24 22 13 9 11 27 21 17 20 27 31 35 28 18 4 7 6 11 7 12 17 23 23 23 24 24 25 25 25 25 30 32 33 32 29 22 17 19 22 28 25 24
47 43 40 38 35 32 32 26 27 23 16 22 23 23 19 25 27 26 32 25 19 4 9 9 12 10 8 8 17 16 20 24 25 25 24 25 25 28 30 34 35 34 31 22 19 22 28 29 26
52 50 45 42 37 36 32 33 27 28 27 26 23 23 26 28 25 24 26 21 18 5 9 10 14 11 8 5 10 14 15 18 19 21 25 23 25 27 30 33 35 36 36 29 22 23 27 33 28
59 55 53 48 43 39 34 35 35 33 32 29 31 34 30 27 13 16 22 19 16 7 8 8 12 18 9 8 9 11 10 14 13 17 22 24 27 27 30 31 33 36 38 36 28 27 29 32 33
64 61 58 55 49 45 42 42 35 32 18 26 31 33 31 21 13 19 25 18 16 9 8 9 11 20 16 10 10 7 10 10 12 15 17 21 26 27 26 29 32 35 37 37 35 25 28 31 31
66 64 63 59 54 50 46 48 47 45 35 37 31 30 30 29 28 28 25 18 13 9 9 12 10 17 18 14 11 11 10 7 10 11 15 18 22 21 26 29 30 32 34 34 35 36 32 26 26
71 69 66 62 59 54 52 49 51 51 50 48 44 38 37 35 33 26 22 16 10 8 12 14 11 15 19 15 13 13 12 7 7 8 13 14 16 18 24 26 28 30 31 32 32 33 37 34 28
67 75 72 66 63 63 57 52 52 52 52 51 50 47 42 39 34 27 22 17 12 10 14 16 13 15 19 16 16 13 10 11 8 6 8 8 13 17 20 26 25 28 29 31 31 31 30 32 33
67 71 70 70 68 64 61 58 56 55 57 56 53 50 47 41 33 31 26 22 19 16 15 20 17 15 17 18 18 14 10 10 9 4 7 8 10 15 18 21 22 23 25 27 28 29 29 30 30
72 72 69 65 64 64 64 60 58 57 61 59 57 53 48 45 37 32 31 28 25 21 16 22 22 18 16 18 18 15 12 10 8 6 7 8 7 10 15 17 17 19 21 23 25 27 27 28 29
74 72 72 69 65 62 60 60 57 59 60 58 55 50 48 45 40 32 32 28 23 25 18 23 24 23 21 19 17 14 13 10 8 8 7 7 8 6 11 14 15 16 18 20 22 23 23 24 26
80 76 74 72 69 67 64 60 57 55 59 57 53 51 48 46 39 36 34 32 26 24 21 21 27 26 25 22 20 16 13 11 9 7 6 5 6 6 8 8 10 13 14 17 18 19 20 20 20
87 82 79 78 75 72 70 65 63 58 53 54 49 43 40 43 43 41 39 33 28 25 21 21 24 29 31 28 24 22 17 13 11 9 7 3 3 5 7 4 6 8 10 13 15 15 17 18 18
90 89 86 82 80 79 76 71 66 62 57 55 49 43 41 44 45 48 44 39 32 31 22 17 17 26 32 32 31 26 22 19 14 12 10 8 5 3 4 4 4 3 6 9 10 12 14 15 15
92 89 89 87 84 82 81 77 70 66 61 58 55 49 45 49 48 51 45 43 39 35 28 21 20 18 24 32 34 31 28 24 21 19 16 13 10 6 4 3 2 1 1 3 5 7 9 11 12
96 92 91 89 89 87 84 83 76 71 67 62 60 56 54 59 52 49 46 42 39 33 29 21 19 22 23 27 36 36 34 32 29 24 21 19 16 13 12 10 5 2 1 2 3 3 5 6 8
101 99 96 94 92 90 88 85 79 75 72 68 65 64 57 53 53 52 48 42 40 34 31 25 20 19 23 24 27 32 35 37 35 30 25 23 21 19 18 17 12 8 4 3 4 5 4 5 6

GFSSGP_250_spd_090.txt.gz
Wind_Speed
7 6 11 16 12 3 9 11 16 19 23 24 25 32 37 41 36 37 28 23 23 25 28 29 29 33 38 38 32 27 25 21 17 13 6 4 5 2 1 1 3 3 3 4 4 0 5 8 14
8 7 8 11 4 4 6 11 17 22 20 21 24 32 37 42 39 37 28 24 22 24 26 29 30 33 37 45 47 50 47 38 30 21 18 14 11 9 10 7 4 2 2 5 5 4 3 7 14
11 9 5 9 3 6 8 13 17 17 18 25 20 28 33 42 45 37 28 23 22 25 26 26 32 34 32 36 41 46 48 52 49 40 28 20 17 13 12 13 9 4 1 2 2 2 3 7 16
13 10 7 4 7 1 6 14 9 17 21 26 20 25 34 44 45 39 28 23 21 24 25 27 31 33 33 33 35 37 41 43 42 44 43 36 22 15 14 12 12 9 5 2 1 2 4 3 5
15 11 8 9 11 8 6 6 2 15 20 25 19 23 38 47 44 39 30 24 21 22 20 25 28 29 32 32 35 31 31 34 38 42 44 40 32 20 15 10 9 9 6 4 2 1 1 3 5
17 13 9 6 9 10 10 12 4 10 19 17 19 25 37 45 43 43 32 23 21 22 17 14 22 22 28 30 29 26 28 31 35 36 40 38 34 32 29 21 12 10 10 8 5 2 3 4 5
20 17 13 4 7 8 9 4 10 9 18 14 21 21 31 39 42 44 34 21 21 22 17 12 16 14 20 26 29 25 29 32 36 38 38 40 33 28 25 26 14 9 12 10 7 4 3 4 8
23 20 13 7 11 9 17 5 15 11 12 19 10 16 26 34 39 41 44 23 19 20 17 14 16 15 13 18 24 25 24 31 34 34 35 39 36 29 22 23 22 17 18 15 12 7 7 7 4
26 22 18 15 19 9 15 14 13 15 10 17 11 13 22 28 37 38 46 33 18 18 12 15 14 16 15 18 15 19 23 26 30 31 32 35 35 30 20 19 19 17 18 21 16 15 12 10 9
27 24 23 20 16 7 9 13 9 12 11 12 12 12 18 25 32 43 42 38 17 14 16 12 11 16 15 18 17 15 19 23 27 27 32 33 32 31 24 17 16 17 18 22 22 17 18 15 11
28 25 26 22 14 10 16 14 13 14 16 11 9 10 18 24 24 35 40 38 24 11 14 14 12 14 15 17 20 19 24 25 29 30 31 35 34 35 28 22 19 18 21 24 26 21 19 19 17
30 29 29 27 19 18 20 23 14 15 13 6 9 17 17 19 22 34 35 37 26 9 8 9 9 12 15 17 22 25 27 27 30 29 31 35 37 37 32 25 22 20 22 27 27 25 27 24 23
34 31 31 30 23 18 22 26 20 14 10 16 13 13 19 19 23 31 29 31 27 10 3 6 8 8 11 21 23 25 27 28 30 29 26 34 36 37 35 30 20 18 24 29 31 28 28 28 29
37 36 32 32 29 23 22 24 27 20 20 20 14 15 17 17 22 30 24 27 24 16 1 3 5 6 11 14 20 24 25 27 30 30 29 33 35 36 35 34 26 19 27 31 34 31 31 32 33
42 40 35 33 31 28 30 27 25 27 26 22 17 17 17 15 20 24 23 23 21 19 3 6 4 5 2 9 11 17 21 24 28 20 27 32 35 34 35 36 32 26 30 34 36 33 31 32 32
47 44 40 36 34 29 33 40 25 24 28 19 18 16 16 15 18 19 18 23 25 19 4 5 8 4 4 3 3 11 16 19 23 20 26 27 32 33 35 36 35 28 30 34 37 35 33 31 27
53 49 46 42 41 34 35 34 28 29 28 24 24 21 21 20 26 18 14 25 26 20 7 5 11 9 1 5 1 4 10 12 13 14 23 28 27 32 33 35 37 33 26 30 34 35 34 30 27
57 53 51 49 44 42 38 40 38 35 34 36 34 29 28 25 20 19 19 25 24 20 9 7 7 15 10 6 4 1 5 8 11 16 20 24 24 25 32 33 35 36 34 27 29 31 32 30 29
62 59 57 53 49 46 42 40 37 36 39 39 39 35 30 20 20 23 23 25 20 17 14 8 10 10 13 13 9 5 1 6 7 14 18 21 22 20 25 31 33 33 35 37 34 27 25 27 28
69 66 63 59 56 52 47 45 43 43 45 42 38 30 26 25 23 26 26 26 21 20 16 10 11 8 12 16 11 7 6 2 3 12 13 17 20 23 17 28 32 32 32 33 36 36 33 30 28
74 72 66 62 60 60 54 51 49 48 50 49 48 41 34 37 33 32 31 28 23 23 17 16 12 9 13 16 10 7 7 5 2 8 9 12 16 20 22 25 29 30 32 32 32 33 31 30 31
79 77 72 67 66 64 62 57 54 54 55 54 52 52 49 45 41 38 34 29 26 24 19 22 16 10 13 18 13 9 6 6 2 4 5 8 13 15 15 21 24 26 30 30 30 31 31 29 31
76 75 75 71 69 67 65 63 62 62 59 56 53 52 50 45 44 40 36 36 30 26 22 17 19 16 15 17 15 12 9 6 5 2 2 5 9 12 13 13 21 23 24 26 27 29 31 31 32
73 72 72 70 69 70 66 65 65 65 61 58 55 52 50 46 45 42 39 35 28 25 19 16 20 22 19 17 16 13 10 7 5 4 4 1 5 7 8 12 16 19 19 21 23 25 27 27 28
79 77 74 71 68 67 66 65 64 64 63 60 58 56 52 47 44 42 38 37 30 26 20 15 18 24 23 19 16 14 10 8 6 5 3 3 3 3 5 10 12 15 17 18 19 21 22 23 23
83 81 78 74 72 71 69 65 63 62 62 59 57 56 54 51 46 44 39 37 32 30 25 18 16 19 26 24 19 17 14 12 11 8 6 3 2 1 2 1 8 10 12 14 16 18 18 19 20
85 84 83 79 76 74 72 69 67 62 59 55 53 53 53 51 49 47 44 36 29 34 28 20 15 19 25 28 24 21 18 15 13 12 9 5 4 2 1 0 3 5 7 9 12 14 14 16 17
88 87 87 85 81 78 74 71 68 65 61 58 55 52 51 48 50 47 44 36 31 35 29 23 22 22 22 29 29 26 22 20 18 16 14 10 7 5 3 2 1 1 2 4 6 8 9 11 14
93 91 89 88 87 84 80 76 71 68 64 62 61 59 56 50 47 46 41 36 35 37 33 29 29 24 25 28 31 31 30 26 24 21 19 16 13 11 9 7 3 2 2 2 3 4 5 6 8
98 95 93 91 89 88 86 82 77 72 69 67 65 63 60 56 48 46 43 38 42 43 34 34 29 23 23 23 25 29 29 31 31 28 25 22 20 18 15 13 9 7 6 4 3 5 5 4 4

GFSSGP_250_spd_093.txt.gz
Wind_Speed
6 7 17 7 7 11 5 4 16 20 21 21 30 42 49 43 35 26 30 28 24 29 30 29 36 38 41 43 45 42 33 23 16 11 5 5 6 4 4 5 6 4 3 3 7 8 8 8 10
8 5 8 10 6 4 4 9 20 19 22 20 29 46 51 50 40 27 29 26 23 25 33 32 30 35 36 36 38 39 41 38 29 25 18 11 11 10 9 8 6 4 4 3 7 8 7 8 13
10 7 3 5 4 3 6 12 9 16 20 23 26 38 46 49 44 27 26 25 20 22 25 29 31 34 31 32 35 40 44 43 39 34 27 19 13 14 13 12 8 5 4 3 5 7 7 8 7
13 7 5 8 3 5 6 11 7 16 22 21 25 34 42 45 40 31 27 24 16 21 24 29 32 33 34 32 33 39 40 43 39 39 32 30 22 14 10 10 10 8 6 4 4 6 5 7 9
15 9 5 6 6 7 3 2 8 15 18 18 25 28 34 41 40 36 27 26 15 13 19 20 27 29 31 32 34 38 42 40 42 32 28 28 27 23 15 10 10 11 7 3 3 4 6 8 8
16 11 9 6 6 9 7 9 5 11 14 19 19 22 31 38 44 43 27 26 16 10 15 19 19 24 27 29 33 37 37 37 38 39 34 23 22 23 19 16 14 13 10 6 2 2 6 9 11
18 13 8 8 5 8 7 10 5 8 10 18 18 22 29 34 44 45 38 23 18 17 16 20 19 19 21 26 31 34 36 36 37 38 34 28 21 18 19 15 12 13 11 8 4 3 5 6 10
21 18 13 9 7 4 7 13 14 6 10 17 15 17 27 31 37 46 42 26 19 18 16 18 20 19 20 21 27 32 33 38 36 38 33 29 23 17 17 17 16 17 13 12 9 6 7 9 6
24 21 16 10 13 13 16 8 10 11 7 13 14 14 29 30 34 42 41 33 19 21 17 17 21 19 21 21 26 29 31 34 36 37 35 33 26 19 17 18 19 18 18 15 16 12 10 11 10
27 23 18 15 18 12 12 12 15 18 6 9 12 11 24 27 27 39 38 34 20 19 18 18 22 23 21 25 27 29 32 33 33 38 36 37 31 25 22 22 21 21 21 20 18 18 14 12 10
28 26 24 21 23 11 12 10 11 15 6 13 10 17 20 24 25 34 33 32 24 14 13 16 19 22 20 24 27 31 36 38 37 36 40 40 36 30 25 24 23 22 22 23 24 22 20 17 17
32 30 29 26 23 14 13 15 14 18 17 11 13 10 19 23 19 28 32 30 26 13 11 15 17 18 20 25 28 31 33 36 37 39 41 42 39 34 26 26 25 24 26 25 27 27 30 30 33
37 34 31 30 24 18 15 20 20 18 18 9 12 15 16 19 16 22 26 30 28 17 10 12 14 15 19 24 27 31 32 32 35 37 40 43 41 38 29 28 25 26 29 29 33 34 34 36 39
40 37 32 30 29 24 21 22 27 19 23 19 17 14 13 17 15 20 21 27 30 24 8 6 9 10 15 21 22 27 30 31 35 33 40 41 41 38 31 29 27 27 31 31 34 37 39 39 38
45 40 35 30 29 27 27 26 31 34 25 21 18 13 23 13 11 16 18 25 28 26 12 7 4 7 11 14 16 22 26 26 30 34 35 40 39 38 30 27 30 30 30 31 32 34 36 38 37
48 43 38 33 30 29 30 27 31 33 34 28 25 23 24 19 12 15 14 21 25 26 19 5 6 4 8 10 11 16 21 23 26 28 31 34 38 36 33 27 28 32 31 29 29 31 32 32 32
53 49 43 38 33 32 31 35 34 32 34 27 24 25 27 20 15 16 13 16 23 23 22 8 6 5 3 7 11 13 16 19 23 24 26 28 34 35 33 32 26 27 32 32 30 29 29 28 27
57 53 49 43 38 37 36 35 35 39 31 30 28 25 23 21 16 21 14 14 22 22 22 18 10 7 9 2 7 10 10 16 19 22 23 26 28 33 33 34 33 28 27 30 31 32 29 29 27
60 57 54 50 46 41 39 38 38 36 35 30 29 28 27 25 20 23 15 17 21 22 23 22 17 11 10 10 4 7 8 12 13 17 20 24 26 28 31 33 33 34 32 29 26 28 29 29 28
66 63 59 56 52 48 46 44 43 41 37 32 29 30 29 28 27 22 20 20 19 21 22 24 17 16 9 8 4 6 8 7 8 11 17 19 25 25 27 30 32 33 32 31 32 31 27 25 24
74 69 65 61 57 54 52 50 49 48 44 39 36 37 34 30 25 24 24 25 23 19 22 22 19 18 13 6 4 4 7 5 4 7 13 15 18 22 22 24 28 30 33 32 31 30 29 25 24
78 74 71 66 63 60 57 56 53 53 50 43 39 37 39 31 28 30 32 34 27 22 23 22 22 15 16 10 6 5 3 5 1 5 9 11 13 16 19 20 23 26 29 30 31 31 32 31 30
83 79 72 71 69 67 63 60 59 56 52 47 43 42 41 39 38 40 42 38 30 24 23 22 20 15 14 15 8 8 5 2 2 1 4 9 10 14 15 18 19 22 24 26 27 29 30 31 31
75 79 76 76 74 72 70 66 64 60 55 52 50 48 44 43 39 41 41 36 33 26 21 19 16 14 15 17 10 9 7 5 4 2 2 5 6 12 15 16 17 19 21 22 24 25 28 28 29
74 73 74 73 72 73 73 71 69 65 59 57 55 53 50 46 42 41 40 38 34 25 19 19 18 14 14 18 15 11 9 8 6 4 2 3 5 8 10 11 14 16 18 20 20 21 23 25 25
78 76 74 71 70 70 72 70 67 66 63 60 58 56 55 51 48 46 43 41 35 30 22 20 20 18 11 17 18 16 14 12 10 6 3 1 2 6 7 6 9 12 14 16 16 18 20 20 20
81 80 78 76 74 73 71 72 70 66 65 61 59 57 57 53 50 47 43 38 35 32 26 21 23 19 15 17 19 20 17 14 13 11 7 3 1 1 5 5 3 6 9 11 13 15 16 16 17
82 83 82 79 78 76 73 70 67 65 62 60 58 57 54 53 50 48 47 42 37 34 30 22 23 19 18 16 21 24 22 19 17 15 12 8 4 2 1 4 2 2 4 6 8 9 11 11 13
88 84 83 82 81 80 78 75 72 69 66 62 59 57 55 50 46 44 44 41 39 36 34 28 25 22 21 21 21 26 28 24 21 19 16 13 9 6 6 3 2 2 1 3 3 4 5 6 7
91 89 87 84 82 83 82 81 77 74 71 69 66 62 60 55 50 46 43 40 38 38 37 34 32 30 24 20 22 22 28 30 27 24 21 18 15 11 10 9 9 8 6 2 2 3 3 2 1

GFSSGP_250_spd_096.txt.gz
Wind_Speed
8 16 12 7 2 10 11 7 14 20 19 25 35 41 45 27 27 24 22 21 27 24 29 33 35 39 36 36 36 36 31 23 17 12 8 6 4 6 7 8 8 8 9 9 11 13 13 11 13
9 2 11 9 6 10 11 13 14 22 18 23 34 40 47 28 27 25 17 20 23 24 30 32 35 37 39 42 38 36 36 29 26 17 12 10 7 6 7 7 6 7 10 10 13 14 15 17 14
9 2 6 3 3 7 8 11 12 21 18 22 29 38 45 37 29 27 17 17 19 21 29 29 33 32 39 41 39 42 35 33 29 25 17 10 9 11 10 7 6 6 7 10 16 17 17 20 15
11 4 4 4 3 5 9 5 9 16 21 21 28 35 42 47 34 27 22 12 14 22 24 24 29 32 35 40 37 38 34 33 27 20 20 16 10 8 8 9 8 5 7 9 12 15 17 16 19
12 7 4 10 3 2 5 3 8 13 19 15 29 31 37 45 38 30 24 19 18 18 27 26 27 29 31 35 38 38 37 37 30 23 15 17 14 12 9 9 11 9 6 7 9 11 13 19 21
16 9 5 9 8 4 6 5 4 7 15 15 23 26 33 39 46 35 25 24 23 23 26 28 27 31 30 35 35 35 37 39 32 24 16 12 16 12 14 10 10 9 7 7 7 10 11 15 19
20 13 10 4 4 8 6 5 7 7 9 15 16 25 35 33 40 39 31 24 24 24 24 27 25 29 32 35 35 35 36 40 33 29 16 13 12 13 11 11 10 8 7 6 7 8 13 13 14
22 16 12 7 5 5 8 7 11 6 8 15 17 24 30 35 38 35 36 24 24 24 25 30 28 30 32 35 38 39 38 39 38 34 20 15 13 14 13 12 10 8 8 9 9 8 9 14 15
26 21 16 11 11 5 8 4 4 9 6 7 10 23 26 30 33 36 36 29 21 22 25 28 30 28 30 31 36 43 43 44 42 39 28 15 14 17 17 14 12 10 12 12 11 12 12 14 16
29 25 22 15 18 15 12 14 7 6 2 5 3 18 19 29 27 32 36 34 18 18 22 24 27 30 32 34 36 39 41 44 45 44 37 24 20 21 19 15 15 16 13 13 12 14 15 14 15
32 28 26 20 15 17 13 12 8 12 5 11 4 11 19 23 26 28 34 38 26 16 19 22 23 26 32 33 38 39 43 42 48 47 43 27 25 23 21 20 19 19 17 14 14 14 15 16 17
36 32 28 23 19 23 16 14 9 17 13 13 10 8 15 20 22 25 31 35 34 17 15 17 20 23 29 29 35 37 41 43 45 48 45 33 27 25 24 22 22 21 21 23 25 24 25 28 28
39 34 29 26 23 23 19 17 21 19 16 15 16 12 18 13 17 20 26 30 33 23 14 13 15 19 24 27 32 36 37 41 43 47 43 35 30 29 28 23 25 27 28 30 33 36 37 35 34
43 37 32 29 23 23 18 21 25 20 21 24 23 18 16 15 11 18 21 26 30 28 16 11 14 17 20 24 28 33 34 37 41 43 43 37 31 32 31 24 26 30 32 32 33 35 35 35 36
46 42 36 32 25 23 23 24 23 25 22 24 25 22 15 17 13 18 18 22 27 28 25 12 9 13 16 21 25 29 31 34 39 39 40 37 33 30 33 28 25 27 31 32 31 31 33 33 32
50 46 41 35 30 27 27 28 24 29 30 27 22 19 19 18 20 16 16 18 24 28 27 19 8 9 11 17 21 25 26 30 33 36 36 37 36 30 29 32 28 24 27 29 31 30 30 31 31
53 49 44 39 32 30 29 33 35 30 34 37 32 27 25 16 19 13 15 14 22 26 25 26 15 8 9 13 17 20 22 24 28 31 33 33 34 35 29 28 31 29 24 25 24 25 26 26 24
56 53 48 43 37 34 35 34 33 35 36 35 34 31 29 22 18 15 16 14 17 21 26 25 22 11 11 11 13 15 17 19 22 26 30 30 33 35 33 30 28 28 29 26 26 23 23 23 23
62 57 53 48 43 39 39 40 39 39 37 35 31 29 27 24 19 18 17 16 16 18 24 22 23 20 14 10 9 12 12 15 17 20 22 28 28 30 31 32 31 30 27 24 24 24 24 25 25
66 63 58 55 49 45 43 43 41 41 38 34 33 25 20 19 19 22 20 19 18 20 20 22 19 21 15 8 6 10 10 11 12 14 17 22 24 26 27 31 32 31 29 24 21 19 21 23 23
73 69 66 60 55 52 50 46 43 42 39 36 30 26 24 23 20 22 23 19 20 22 21 20 18 17 15 8 3 6 8 7 8 8 13 17 19 21 23 27 29 30 32 31 24 19 19 19 19
78 73 72 68 64 59 54 53 50 45 42 39 35 30 27 28 26 24 25 24 26 25 21 19 15 12 12 7 3 0 4 4 3 5 9 12 16 20 20 23 25 25 29 31 32 30 27 24 25
82 78 74 73 70 68 62 59 53 50 47 43 40 37 33 33 30 31 29 29 27 30 29 19 15 8 7 7 7 4 1 1 1 4 5 9 12 16 18 21 22 23 26 28 29 31 32 29 27
80 80 77 77 77 72 68 64 60 55 53 48 46 44 41 38 36 34 33 36 33 31 26 21 14 11 6 3 7 7 5 3 3 2 3 3 6 11 15 17 19 21 23 24 25 27 28 28 27
73 76 78 78 78 77 73 71 65 61 57 54 51 48 46 43 40 39 36 34 33 29 24 19 16 11 10 7 5 8 10 7 6 5 3 4 3 5 10 13 15 17 20 22 22 23 24 24 25
73 74 75 74 75 78 74 71 68 65 62 59 57 53 50 46 44 42 39 37 35 30 29 24 18 16 11 11 8 9 14 12 9 7 5 5 5 3 5 10 11 11 15 17 18 20 20 20 21
80 76 75 73 73 76 80 71 72 66 63 61 59 56 54 51 48 45 42 42 39 35 33 27 20 18 14 13 12 11 14 15 14 12 8 5 5 5 3 5 7 9 9 11 14 16 17 17 17
82 82 78 78 76 75 74 74 70 68 65 63 61 59 56 53 50 48 46 44 41 38 34 30 26 22 17 17 14 15 18 19 16 14 13 9 7 6 6 4 3 5 5 5 7 10 13 14 14
84 83 84 83 79 79 74 73 68 68 66 62 61 63 60 57 55 53 52 45 45 46 42 38 30 26 23 21 16 17 22 22 21 18 15 12 11 9 6 5 3 2 3 3 2 3 5 8 9
90 86 86 84 83 84 79 74 73 70 69 67 63 62 60 58 55 51 49 43 36 36 37 36 35 32 31 26 22 21 22 26 26 24 21 16 14 12 10 6 4 2 2 1 1 2 4 2 2

GFSSGP_250_spd_099.txt.gz
Wind_Speed
10 15 9 8 8 11 18 12 17 19 21 32 40 43 40 30 22 13 18 18 22 27 28 32 34 36 36 34 33 31 30 22 16 9 7 8 12 12 12 13 12 12 12 14 17 16 17 18 17
4 12 9 5 3 11 10 11 14 24 21 27 34 42 45 37 28 15 17 17 23 31 25 30 32 36 36 34 34 32 26 23 20 14 11 8 5 7 9 10 10 10 11 12 17 19 16 17 19
6 13 9 5 3 6 8 6 10 19 21 25 29 36 43 43 31 27 19 17 21 29 28 28 31 34 33 36 35 34 28 22 18 14 12 11 9 9 6 6 8 10 12 13 17 20 20 20 18
9 6 6 4 2 4 6 3 9 19 17 19 32 35 43 39 36 27 25 24 26 29 30 31 31 31 32 36 36 38 31 24 13 14 11 10 9 8 8 8 5 8 11 16 17 18 22 21 15
12 8 4 8 5 6 5 5 12 15 12 19 30 35 38 38 38 29 27 27 27 29 32 31 31 38 34 38 36 39 36 28 14 10 11 10 9 8 9 11 8 7 10 15 18 18 20 22 21
15 11 5 13 11 9 6 4 6 5 16 20 23 32 33 39 43 33 27 25 28 32 31 31 35 35 40 39 42 41 40 31 18 11 9 11 10 12 9 5 8 10 11 15 18 19 22 24 23
21 14 10 12 12 10 7 4 4 5 13 11 22 29 33 37 42 38 27 24 26 32 32 30 33 33 38 42 40 45 42 39 20 14 10 9 8 8 5 4 5 8 14 13 15 18 21 24 21
24 17 13 11 9 13 10 6 9 8 11 6 13 23 26 32 36 42 32 24 24 28 31 35 36 36 38 43 42 45 47 44 23 16 14 12 11 11 7 5 3 5 9 14 14 15 17 20 23
28 23 17 13 8 11 10 5 8 16 14 12 20 16 27 27 31 40 40 29 23 26 27 30 34 33 39 41 46 45 49 46 32 19 18 17 14 11 9 8 7 8 9 13 15 14 17 19 21
32 25 20 16 13 15 11 10 9 8 7 11 16 14 21 27 31 36 37 34 25 23 23 25 30 31 38 40 42 42 47 46 39 25 23 19 17 15 14 13 10 8 6 8 13 14 15 20 21
35 30 26 22 18 21 18 18 14 9 8 16 11 10 19 28 27 29 33 33 31 22 20 22 26 29 36 39 40 43 46 47 43 32 28 25 23 22 20 16 12 8 7 9 14 14 14 15 15
37 34 28 26 20 22 19 17 10 9 13 16 12 21 26 22 26 28 30 31 33 27 20 20 22 26 31 36 37 41 43 45 42 34 35 33 27 24 22 20 18 16 13 13 16 16 15 16 18
41 37 33 29 21 22 23 18 15 13 20 15 16 21 15 26 22 26 26 29 33 29 23 20 21 23 29 33 35 38 40 42 43 39 36 37 29 24 24 26 24 26 24 24 24 25 25 25 26
46 41 36 31 25 23 18 19 18 21 22 15 17 19 18 24 22 26 22 25 30 31 27 21 21 21 26 30 32 35 37 40 40 38 37 35 33 29 25 29 29 28 30 31 32 31 29 28 28
50 46 40 34 28 25 17 28 20 24 28 26 23 23 21 21 18 23 19 21 29 29 27 26 20 20 22 25 29 32 34 37 39 38 37 35 33 32 28 26 28 29 30 31 31 31 31 31 32
53 49 45 38 32 25 20 24 32 27 27 26 23 22 21 21 18 17 17 20 23 28 27 26 22 18 19 22 24 28 30 34 35 36 38 36 32 32 31 27 25 28 29 31 31 30 30 29 29
55 50 48 42 37 28 26 21 26 28 27 25 28 25 24 21 22 15 17 18 18 24 27 27 25 19 17 18 21 23 27 27 30 31 33 34 34 32 30 28 24 22 24 25 27 26 25 23 22
58 52 50 45 40 34 30 32 33 29 32 27 28 27 29 27 25 20 15 17 16 20 25 24 25 21 19 14 16 18 21 24 25 28 27 30 31 33 32 28 27 25 21 20 20 19 19 19 19
61 56 53 49 43 38 35 38 28 36 32 36 33 30 28 29 24 21 15 15 19 15 20 23 21 20 19 13 13 15 15 21 20 23 25 26 28 31 31 29 26 25 24 24 23 21 21 26 26
67 61 55 53 47 40 40 38 32 33 39 40 36 33 29 23 20 14 14 12 19 16 17 21 20 17 14 14 10 13 15 16 17 19 20 21 24 26 29 31 29 23 23 23 24 24 24 22 24
72 69 63 60 55 50 46 43 46 42 38 38 36 32 27 25 20 16 15 12 14 18 17 19 20 16 10 11 5 8 12 12 15 16 17 19 22 23 25 28 29 29 25 24 23 22 20 19 19
77 74 69 63 61 57 52 48 47 46 49 44 38 36 30 23 25 21 18 18 13 18 21 20 19 15 11 6 5 4 7 8 10 11 12 15 18 21 23 26 27 28 29 29 27 26 23 20 19
82 76 73 73 69 62 57 54 51 47 45 43 40 37 34 28 25 25 24 23 18 18 22 24 19 14 9 6 4 3 3 3 5 8 9 12 15 16 18 22 25 26 27 28 29 26 25 22 23
77 76 76 75 72 69 64 60 56 52 50 47 44 39 39 36 32 29 28 25 21 21 23 23 15 13 9 6 2 1 3 1 2 5 5 8 11 12 15 17 22 23 24 23 25 26 27 27 26
67 76 79 79 75 73 71 69 64 61 54 49 49 45 42 42 38 35 33 28 25 22 23 21 15 13 13 8 5 4 4 4 3 3 3 4 6 8 11 13 16 19 19 21 22 22 24 26 26
73 71 74 75 77 77 79 75 70 65 58 56 53 52 50 46 43 39 37 33 30 26 23 24 20 18 12 12 8 8 6 8 7 5 4 2 2 3 7 10 11 14 14 17 20 20 19 21 23
78 73 74 78 79 82 82 73 68 68 65 62 59 58 55 52 48 45 43 36 34 31 25 25 25 23 18 14 10 9 10 11 10 7 6 4 4 4 3 6 9 9 11 12 13 16 17 17 17
83 82 79 74 76 77 82 79 81 73 73 69 65 63 60 56 52 48 47 40 36 34 33 31 28 25 22 20 16 12 16 15 14 12 10 7 5 6 5 4 6 7 7 8 10 10 11 13 14
86 86 82 79 79 77 76 74 68 72 72 72 70 68 63 59 55 51 47 40 37 29 35 37 33 30 29 27 23 18 18 20 19 18 16 13 11 9 8 7 5 6 6 7 7 7 6 6 8
87 86 87 86 83 79 80 77 74 76 75 74 72 67 64 61 57 55 48 46 33 21 30 44 32 33 35 33 30 26 22 24 25 23 22 19 17 14 11 10 8 6 5 6 6 5 5 3 1

GFSSGP_250_spd_102.txt.gz
Wind_Speed
11 16 15 16 15 15 11 10 13 14 26 33 41 41 35 27 22 16 21 26 29 28 26 28 27 30 34 31 25 20 18 13 10 9 11 11 11 13 15 15 14 14 16 19 21 21 21 19 19
9 14 8 7 8 6 6 2 18 15 24 33 41 43 39 29 29 22 25 26 29 28 28 29 28 31 32 31 27 23 17 15 14 11 9 8 10 13 15 15 15 15 15 17 20 21 19 19 21
13 16 11 6 10 3 2 8 12 14 18 31 36 41 47 33 28 26 28 30 30 29 30 36 34 36 36 33 29 23 15 12 12 12 12 11 10 8 11 14 15 16 15 15 20 21 20 23 21
15 18 12 8 5 4 7 7 13 12 18 29 32 38 42 43 30 28 30 34 31 31 31 34 38 35 38 39 34 23 17 12 11 8 10 12 12 10 10 9 10 13 14 15 19 21 23 25 21
16 14 9 11 8 6 6 7 13 10 19 20 28 35 40 47 42 28 29 32 33 34 35 35 38 41 39 42 38 30 19 13 10 9 7 8 10 8 10 9 9 10 13 17 21 20 25 24 24
18 11 7 12 9 9 6 1 4 6 11 14 25 33 33 44 46 34 26 26 30 35 35 38 39 43 43 46 46 37 23 17 12 10 8 8 8 7 7 7 9 13 15 17 17 18 20 16 19
22 13 7 16 15 11 9 3 5 7 12 10 21 29 29 38 46 42 28 25 26 31 35 36 40 42 44 50 50 44 29 19 16 13 13 8 6 4 2 1 6 13 15 17 19 18 21 20 20
25 15 11 16 13 15 9 5 5 6 5 16 20 27 25 36 39 40 36 24 24 26 31 36 41 42 45 50 53 47 41 32 25 19 18 14 6 4 1 0 4 9 15 16 17 21 22 25 20
27 19 16 17 14 10 12 7 5 8 14 15 18 24 28 32 39 38 36 32 26 24 29 33 38 41 43 50 52 50 42 37 35 25 16 12 7 5 4 4 7 8 14 17 18 20 23 23 20
29 3 22 19 16 13 13 7 7 9 10 10 12 16 28 31 33 37 34 36 31 26 28 31 35 41 34 52 53 50 46 39 36 28 22 18 18 16 15 12 9 8 11 13 15 16 21 23 24
36 25 32 23 16 15 14 11 12 8 8 11 21 15 25 28 30 35 31 37 33 31 29 30 34 42 43 33 44 50 50 42 37 34 27 27 25 20 18 15 11 8 10 13 12 11 17 22 22
39 39 35 25 19 19 19 16 13 8 16 12 19 28 28 25 31 31 28 36 34 31 31 29 33 39 45 39 26 39 48 45 41 39 32 29 27 25 25 22 20 16 15 16 15 14 9 16 20
44 41 37 28 23 22 15 18 15 10 14 15 20 15 19 20 28 25 26 30 36 33 32 27 30 34 39 12 26 20 44 43 42 41 37 32 30 28 27 27 27 24 19 17 14 16 13 14 17
48 45 40 32 25 21 21 24 19 14 11 23 25 21 21 21 22 24 24 29 31 37 31 29 26 28 28 28 28 30 35 42 42 41 39 34 31 30 27 28 31 31 30 27 24 22 21 21 22
53 49 42 36 26 22 22 13 17 17 25 18 13 19 23 23 20 23 22 27 26 34 34 27 24 23 26 30 32 23 28 25 37 38 38 36 32 29 29 28 30 33 32 32 30 28 28 26 26
53 50 45 38 30 24 23 18 19 19 25 25 25 23 24 23 22 23 22 22 23 30 33 29 25 22 23 27 28 26 17 26 28 33 35 35 33 30 27 26 27 31 33 34 34 33 32 31 31
55 52 48 42 36 28 23 21 28 22 24 26 26 23 24 25 20 22 25 24 21 22 29 32 23 22 21 23 22 23 23 28 29 31 32 34 31 30 29 24 22 23 25 27 27 29 29 28 26
59 56 51 47 40 34 27 23 27 28 28 31 27 22 19 22 25 25 24 20 19 20 22 31 26 19 18 22 18 20 23 27 28 25 26 30 31 27 25 24 22 19 17 19 20 20 22 25 23
64 59 57 51 43 38 31 33 29 32 33 33 29 25 21 23 25 24 23 17 16 17 18 25 28 19 16 19 20 19 20 22 23 22 24 27 28 26 23 23 21 21 20 17 19 20 21 19 23
68 64 58 53 45 43 37 38 26 25 34 32 30 26 25 26 29 28 22 13 12 16 17 21 26 22 16 16 14 18 17 18 22 22 23 24 25 25 24 25 23 21 21 21 20 22 23 24 24
71 65 62 33 56 46 43 41 34 22 12 26 37 34 29 30 28 26 23 14 11 13 19 21 25 21 20 14 12 8 13 17 18 20 19 20 22 23 25 26 26 24 23 20 18 17 17 18 21
76 76 72 69 56 52 50 46 40 38 10 30 33 43 37 32 30 20 18 12 10 13 17 19 24 20 17 13 10 12 11 10 15 15 18 17 19 21 23 24 23 25 25 24 23 21 19 17 18
76 80 75 69 64 58 53 49 42 45 25 37 27 37 33 30 33 26 21 14 10 13 15 18 20 19 15 16 15 8 12 6 12 6 12 16 16 18 19 22 22 22 23 23 22 21 22 22 23
77 78 76 73 71 64 59 54 48 45 62 61 61 47 35 36 33 27 23 21 13 13 13 15 16 16 14 14 16 8 3 3 5 4 8 10 11 13 17 17 20 20 20 20 19 21 22 22 21
72 72 77 78 76 68 67 64 58 60 46 53 60 55 47 40 37 36 31 24 19 16 14 16 15 15 15 12 12 10 4 3 4 3 4 4 6 10 12 14 15 17 18 18 17 18 20 20 20
74 70 71 79 78 75 74 72 66 64 63 58 54 44 40 39 31 21 30 29 22 20 17 16 14 16 17 18 11 8 8 8 12 9 2 2 5 5 6 10 11 13 15 17 16 15 15 16 18
76 74 70 75 82 85 86 73 71 69 65 57 63 58 46 43 44 33 39 28 25 26 25 18 17 18 18 20 15 11 10 12 11 8 6 3 3 5 10 9 6 6 11 13 13 13 13 13 14
82 79 79 75 80 87 85 79 79 73 73 71 69 66 59 55 42 44 42 40 32 26 33 24 17 23 20 19 19 16 15 14 16 14 9 6 5 7 4 6 5 4 7 9 10 9 10 11 10
86 82 79 79 77 79 82 84 78 78 79 77 76 72 66 61 56 51 43 42 34 27 20 23 29 38 26 19 21 20 18 20 19 19 15 12 12 13 11 15 9 8 7 7 7 8 7 7 7
90 87 88 85 75 77 79 79 82 86 90 84 82 76 72 69 63 61 53 48 39 34 27 38 30 22 27 21 23 22 23 21 24 22 22 19 19 18 17 16 13 10 8 8 8 7 6 4 3

GFSSGP_250_spd_105.txt.gz
Wind_Speed
5 14 14 15 12 6 8 12 17 21 29 37 46 51 29 29 31 31 28 26 30 34 31 30 32 28 24 17 14 10 10 8 6 11 15 16 17 18 20 22 21 22 22 23 24 26 29 28 27
14 12 10 7 5 6 7 11 20 24 26 30 39 49 46 32 35 34 32 32 31 34 39 36 33 35 25 21 11 8 9 11 11 10 11 13 14 15 15 14 15 15 15 17 20 21 23 19 17
11 9 11 10 6 9 9 13 19 16 26 33 34 40 52 43 30 31 35 34 36 36 37 39 40 39 32 20 11 10 10 10 11 11 11 11 12 14 14 15 16 15 14 16 17 19 18 17 16
14 13 11 12 9 5 11 12 15 12 24 25 28 34 50 48 37 29 29 33 34 38 40 42 43 45 38 26 15 16 14 14 10 7 10 12 11 11 13 15 17 18 17 16 16 19 18 20 23
19 14 9 18 8 2 3 6 7 12 17 20 25 38 47 46 44 31 25 28 35 38 42 42 46 49 44 36 26 23 18 15 12 8 6 8 7 10 12 13 13 16 17 17 15 18 22 22 22
22 9 6 8 6 3 5 3 10 14 12 16 28 35 41 46 44 39 28 27 32 36 39 42 49 52 51 44 36 29 23 20 16 11 7 5 4 4 7 7 11 14 15 16 16 18 22 23 21
24 15 10 8 10 8 9 6 9 10 10 13 24 30 39 45 44 44 34 29 30 33 35 35 46 57 60 53 40 36 30 24 21 16 10 5 2 2 4 5 6 12 15 16 17 17 21 19 20
29 17 5 14 17 14 9 8 8 6 7 18 27 25 38 39 42 44 37 33 31 31 34 38 29 40 46 59 54 43 33 30 23 16 11 7 3 2 4 5 7 10 14 15 18 18 20 15 21
29 23 13 18 19 14 15 9 10 9 7 10 19 23 27 34 39 41 43 32 31 30 32 36 35 45 41 46 54 48 42 33 27 22 17 12 7 4 2 2 6 11 15 17 17 20 22 19 17
31 20 15 24 20 16 13 11 9 8 8 10 12 19 32 32 36 38 40 36 30 29 27 33 35 39 36 42 46 52 43 41 32 28 27 22 18 14 10 8 10 13 16 14 16 21 23 24 17
32 23 18 16 22 25 13 12 7 7 5 7 11 14 25 26 34 35 40 41 29 27 25 33 25 25 39 34 39 43 48 45 39 33 32 28 26 23 19 13 14 14 16 14 14 17 20 21 19
37 31 16 19 23 15 15 13 11 9 5 9 13 18 26 28 30 32 38 36 38 26 26 33 28 16 32 28 33 33 47 46 43 36 33 31 31 30 27 20 17 16 17 15 13 12 17 18 20
43 46 27 19 22 17 18 16 10 10 9 9 10 17 24 26 29 29 33 34 40 31 23 26 30 18 27 22 28 37 29 43 43 40 35 33 31 31 30 29 22 20 17 15 13 9 12 17 19
45 46 19 37 26 21 19 16 13 14 11 10 4 17 27 21 27 26 27 35 32 39 25 20 23 28 28 25 18 26 31 39 41 41 39 35 34 32 31 32 29 25 20 22 18 15 13 18 19
50 50 48 39 30 27 21 16 15 17 11 12 8 20 18 20 23 23 26 32 27 35 34 21 21 22 25 21 28 30 27 29 37 38 36 35 34 32 31 30 32 32 27 23 21 23 22 24 22
52 50 47 38 37 29 23 16 14 19 16 16 11 15 17 21 21 21 24 27 23 30 33 26 18 19 22 19 18 25 27 22 32 33 34 33 34 30 27 27 29 33 32 29 28 28 24 25 25
53 53 52 44 39 32 23 17 16 21 15 24 24 19 17 21 15 17 21 23 20 25 30 30 23 21 19 21 19 22 26 22 28 33 33 33 31 30 26 24 24 24 25 29 30 28 28 27 30
57 57 53 47 40 36 26 19 19 24 24 30 27 27 12 16 14 16 19 22 18 21 29 29 23 18 20 21 18 19 22 22 25 29 30 31 31 29 25 25 22 21 19 18 21 24 26 29 29
62 60 56 47 43 40 31 24 27 30 25 27 26 25 21 14 15 15 15 18 16 17 23 28 23 19 16 20 18 20 21 23 21 26 27 30 30 28 26 24 23 24 22 20 18 20 24 27 25
65 60 53 43 44 42 37 31 28 30 29 31 28 27 23 18 20 17 11 11 13 14 18 24 23 20 14 12 14 17 16 20 23 23 26 27 29 28 28 25 22 23 22 23 24 21 21 20 22
69 63 58 51 42 37 45 39 35 33 33 34 29 31 30 28 23 18 9 9 11 10 14 19 21 19 16 12 14 9 14 17 19 19 21 23 25 27 27 26 24 22 20 18 19 17 16 16 16
72 71 60 59 56 48 47 46 37 31 30 30 21 30 29 30 25 19 8 5 4 10 12 15 17 18 17 12 11 12 10 13 13 15 18 18 22 24 23 25 24 24 22 20 17 17 14 12 11
69 74 72 65 63 52 55 48 42 40 35 29 21 27 34 32 38 20 11 7 8 5 9 13 13 15 18 16 11 6 5 6 7 10 12 15 18 20 21 22 23 23 21 21 21 19 18 17 17
75 77 73 71 68 67 58 48 48 42 38 14 28 19 33 30 28 20 17 12 12 10 5 7 11 11 12 12 10 6 4 9 6 7 10 14 13 15 17 18 19 20 20 19 19 19 18 19 20
78 70 76 76 71 58 63 56 51 48 42 19 24 30 30 30 25 18 21 20 18 15 10 8 8 12 12 11 7 5 2 1 1 6 6 6 9 9 11 13 16 17 18 18 18 17 16 17 17
82 75 72 77 77 75 68 53 49 51 54 36 27 30 39 44 39 33 27 27 27 21 17 14 11 13 13 14 11 7 5 5 8 9 6 3 3 2 6 9 11 14 15 15 15 15 14 15 15
84 81 75 79 84 87 82 72 66 59 60 57 55 38 33 42 38 30 27 29 28 27 18 16 19 16 12 16 13 12 9 5 10 11 9 3 3 3 0 8 9 9 11 12 11 10 11 11 12
89 84 81 77 79 85 78 77 73 70 70 72 68 57 42 48 43 35 31 17 27 22 17 14 20 24 26 17 10 11 13 11 8 11 11 9 6 8 8 3 2 5 6 9 8 6 7 7 8
90 86 84 80 78 84 85 82 77 76 76 76 79 77 78 58 41 37 36 38 28 23 23 16 15 18 17 19 16 15 11 13 11 10 11 15 12 13 12 11 9 5 4 4 5 4 3 3 3
91 90 90 87 83 86 85 84 82 83 82 80 76 77 73 63 58 50 60 54 47 41 30 23 19 26 30 27 22 22 17 13 13 13 16 16 17 15 14 15 14 7 6 6 3 3 3 3 3

GFSSGP_250_spd_108.txt.gz
Wind_Speed
9 18 16 12 8 9 14 23 26 33 35 43 47 49 40 26 29 31 32 33 34 35 35 30 26 19 13 11 6 8 7 5 8 16 27 31 31 31 32 33 35 37 37 38 37 37 36 36 34
6 15 6 11 3 5 9 18 18 30 31 38 46 48 45 35 27 31 31 35 39 41 44 39 36 24 14 11 9 10 11 11 10 10 14 18 22 25 25 25 27 27 26 27 27 27 28 27 24
9 18 9 4 2 7 9 14 13 18 24 33 43 49 47 46 25 27 29 34 41 46 52 50 44 34 24 18 14 14 12 11 9 11 11 14 15 16 17 17 17 16 16 16 17 18 21 18 16
14 17 4 12 5 10 10 13 18 19 23 39 40 46 49 48 42 27 26 30 34 42 49 55 55 39 32 25 20 15 13 12 8 7 9 10 11 12 13 13 15 17 15 13 13 14 14 14 14
13 9 11 4 2 7 7 10 13 18 17 29 33 45 45 48 49 32 27 29 30 29 39 47 53 47 38 29 23 19 17 11 9 6 5 5 4 8 12 15 16 17 16 13 10 11 12 11 13
15 7 6 2 5 6 4 9 11 11 16 26 32 39 42 45 47 40 27 27 31 27 35 38 49 52 44 34 29 24 19 16 11 6 4 3 3 5 9 10 12 14 15 15 12 12 17 17 15
14 8 1 4 8 5 4 8 8 11 10 20 27 36 39 42 46 43 28 27 29 32 36 41 40 48 52 49 37 30 22 20 13 8 4 2 3 3 5 8 9 10 14 15 15 17 20 17 15
15 14 3 5 10 4 5 4 7 9 9 14 25 36 34 39 43 43 37 24 27 27 29 39 35 43 45 52 46 35 30 26 24 15 8 2 1 3 4 7 10 10 11 12 17 15 14 18 17
32 20 4 10 16 10 6 7 4 4 11 13 11 28 29 35 39 43 40 24 27 28 21 29 32 40 44 43 49 42 30 27 24 21 18 13 8 2 4 9 10 11 13 14 16 15 16 14 13
35 25 20 13 17 13 9 7 4 8 4 6 11 23 29 32 37 38 42 26 22 28 21 21 33 29 41 40 39 45 34 32 30 28 25 21 15 7 7 6 11 12 14 16 18 18 18 11 10
36 32 22 16 17 13 16 6 4 3 4 4 12 19 27 31 34 34 37 36 22 26 26 19 22 20 26 39 39 39 41 33 33 31 31 28 22 12 8 10 13 14 13 13 15 17 17 15 11
37 31 20 26 14 24 17 11 8 8 8 9 7 10 20 25 28 28 35 32 22 19 23 23 21 22 24 32 31 41 40 38 36 32 34 32 29 22 15 15 14 15 13 11 14 16 18 16 12
37 36 20 17 19 23 17 14 11 10 9 11 4 8 19 22 24 25 32 28 30 18 15 20 24 22 30 33 30 34 42 39 38 34 32 35 35 28 21 21 20 18 16 13 10 14 15 15 13
43 39 36 20 21 23 18 16 15 11 14 9 10 6 14 21 24 23 29 26 30 23 17 20 21 19 26 28 30 30 36 38 36 36 35 34 36 34 29 23 19 19 19 13 16 18 19 18 16
47 45 43 28 24 24 23 18 14 15 15 10 10 9 10 16 21 21 25 24 23 24 20 16 17 19 21 25 28 29 35 33 35 35 35 33 31 34 32 27 23 22 19 21 19 19 22 21 18
51 49 49 41 27 34 27 24 16 17 20 15 15 12 11 13 20 18 20 22 21 25 21 20 18 18 20 25 26 28 33 35 34 33 36 31 29 29 29 29 28 28 27 26 26 25 22 20 19
53 55 52 53 33 31 31 24 19 17 21 21 17 17 6 13 15 17 16 20 18 24 23 19 18 17 17 24 26 27 27 26 32 36 36 31 28 27 26 25 25 27 28 29 30 28 27 24 25
59 58 57 52 39 41 35 27 23 17 21 20 17 18 12 11 12 17 15 17 14 20 24 22 15 16 17 20 24 24 25 26 28 32 33 34 29 26 26 24 23 23 24 24 24 26 27 27 23
66 57 58 49 48 37 38 32 25 22 26 22 30 25 22 16 11 15 15 13 12 14 19 20 19 16 14 13 19 22 24 26 26 29 31 32 32 29 25 23 23 24 24 21 24 26 25 24 22
68 60 57 56 56 50 43 38 31 25 29 26 27 22 25 21 15 15 13 11 7 10 15 16 18 16 15 14 15 16 20 23 23 21 27 29 31 31 27 23 22 23 25 21 22 22 20 19 19
68 66 62 60 56 53 51 45 38 30 33 28 30 28 29 25 18 18 20 7 4 10 12 14 14 15 14 11 8 14 13 16 19 19 23 26 27 27 27 24 23 20 20 22 20 18 17 17 15
65 73 69 65 61 54 51 48 45 35 33 31 31 33 28 22 20 26 20 6 2 5 9 12 13 15 14 12 7 8 9 11 13 15 18 22 23 24 25 23 21 21 19 18 18 16 14 13 12
74 71 75 69 63 62 54 52 51 41 37 37 42 36 26 23 20 30 16 14 9 3 4 7 10 12 12 13 12 10 9 9 10 13 13 16 18 21 21 21 20 21 19 19 19 17 16 16 16
77 71 74 74 68 63 60 53 53 48 39 37 36 35 20 22 23 28 24 25 17 10 7 6 6 9 9 11 12 9 6 4 6 7 9 12 14 15 17 17 19 21 20 18 19 19 17 17 18
79 75 70 76 74 71 64 53 51 53 45 40 31 37 29 27 29 31 32 22 15 13 14 11 9 9 7 8 9 8 8 10 2 5 9 7 10 8 11 15 16 18 20 17 16 18 17 16 15
83 79 74 71 79 77 67 58 57 49 47 48 41 29 32 32 37 36 33 28 21 19 20 18 13 13 13 10 9 10 10 13 12 6 6 6 10 6 6 10 11 14 16 18 15 15 16 13 13
88 83 79 75 77 79 73 68 66 59 53 46 46 42 40 40 43 39 31 31 26 27 20 23 18 17 15 12 14 10 7 13 16 13 8 4 4 2 4 5 6 9 12 13 14 12 13 13 11
95 87 86 81 77 79 79 73 70 65 55 50 41 41 41 38 34 45 29 35 30 25 21 22 21 15 12 6 12 19 13 7 12 15 14 7 6 8 5 1 4 5 7 7 9 10 9 9 9
93 91 89 85 83 78 81 82 77 77 66 60 53 50 51 48 39 35 40 38 31 23 20 23 22 19 13 7 4 9 17 20 12 11 17 15 10 10 8 7 5 8 5 4 3 5 5 6 6
96 95 94 91 87 83 82 84 83 80 74 72 68 57 59 59 60 44 43 37 38 32 26 28 26 21 11 11 16 16 9 14 21 24 13 14 17 15 12 13 11 13 8 8 3 3 4 3 3

GFSSGP_250_spd_111.txt.gz
Wind_Speed
17 16 13 9 7 7 14 20 26 29 37 43 45 45 36 22 27 28 33 39 44 47 37 34 29 21 13 10 9 9 7 7 17 26 22 18 23 34 34 33 32 33 35 34 35 36 38 38 40
13 10 12 5 10 7 12 16 22 27 35 38 43 47 42 33 24 23 27 30 42 47 42 36 29 26 18 14 15 11 11 8 9 16 20 22 21 21 27 30 35 41 41 40 41 44 40 33 32
16 18 14 7 6 11 14 17 22 21 28 40 43 47 46 35 24 24 23 26 37 42 44 42 34 30 24 18 16 13 13 11 7 8 11 12 14 17 20 21 23 26 28 29 26 25 23 21 19
6 11 13 10 7 12 10 15 17 22 25 31 41 47 48 37 28 25 26 29 33 36 45 51 43 31 26 21 19 14 12 10 9 6 7 12 12 13 16 19 19 16 12 10 9 7 7 7 6
6 9 6 3 5 6 5 14 15 18 20 29 39 41 43 41 32 25 25 27 34 36 38 45 49 43 29 24 19 17 13 9 8 6 6 6 6 11 12 12 12 12 10 7 6 4 4 4 5
10 4 3 5 6 7 7 12 12 14 19 26 34 35 38 42 36 24 23 22 29 34 39 43 42 47 42 30 24 20 16 13 8 6 3 4 3 5 7 10 13 13 13 11 8 8 8 6 8
18 11 2 6 8 7 8 7 10 13 17 24 24 30 38 40 39 32 22 23 27 28 30 42 41 41 45 39 31 26 23 18 10 4 2 2 5 6 8 9 7 7 12 13 13 12 15 12 9
17 2 11 13 11 7 10 7 6 8 11 11 25 27 36 38 39 35 24 24 27 20 31 30 39 43 45 44 34 31 24 23 17 13 5 1 5 8 8 10 10 8 8 13 16 14 14 11 9
21 26 11 17 14 5 7 9 5 5 12 16 21 32 35 37 36 35 30 22 24 24 20 29 32 38 45 42 38 32 27 26 24 20 14 6 1 4 8 9 9 9 10 14 17 13 11 13 8
33 33 20 17 15 13 10 8 6 5 9 10 15 27 30 33 32 32 34 17 24 26 23 25 29 35 39 42 39 36 31 29 28 26 21 13 5 4 5 7 10 10 13 15 16 14 12 7 7
43 33 21 17 14 17 12 9 6 3 7 7 12 16 25 29 29 33 32 28 20 22 24 24 30 33 33 37 38 38 35 32 33 31 28 21 14 9 9 10 12 12 13 14 16 17 14 8 10
44 39 28 18 16 17 12 8 6 1 8 13 10 11 18 27 26 32 30 30 20 21 25 20 26 30 33 34 35 37 38 32 34 34 33 27 22 18 16 14 12 13 13 13 15 16 14 10 7
43 40 34 29 24 17 19 14 12 10 12 10 10 11 15 22 28 30 27 28 24 20 22 20 25 30 30 33 35 36 36 34 32 33 36 31 26 25 19 15 13 13 13 13 14 16 13 11 10
43 40 34 26 24 20 20 19 14 12 11 11 6 9 13 20 24 27 28 26 25 24 23 21 25 28 29 31 35 38 37 36 33 33 34 35 30 23 18 18 17 14 11 12 16 17 13 12 11
48 45 39 29 27 24 26 22 14 17 12 12 11 6 11 17 18 22 26 23 23 24 22 21 20 27 29 31 31 32 36 37 34 33 31 31 34 30 23 22 17 15 15 16 19 20 19 17 16
51 51 44 39 31 31 28 22 17 16 16 14 11 7 10 13 15 19 21 23 24 24 22 20 19 25 27 29 30 29 32 33 35 35 31 30 29 31 30 27 23 23 23 22 25 23 20 18 19
54 53 50 49 37 36 31 26 22 20 16 18 16 9 12 11 16 16 21 23 20 22 21 19 17 21 24 26 27 28 31 34 32 34 32 30 28 28 29 29 28 27 27 27 25 23 19 16 20
60 55 54 51 48 40 30 32 26 22 22 17 20 14 17 11 13 15 16 19 17 15 17 19 17 18 17 20 24 27 28 32 31 29 31 26 27 26 25 26 25 26 24 26 25 24 23 21 22
65 57 55 56 55 48 36 36 33 28 22 18 21 17 18 17 12 16 13 17 16 10 15 18 18 17 14 17 18 23 28 29 26 28 28 32 29 26 26 24 24 23 25 26 25 23 23 23 21
63 62 58 59 59 55 49 33 38 33 27 23 26 22 20 20 14 14 11 14 9 8 12 17 18 18 16 14 18 18 23 23 22 24 26 30 30 28 24 24 23 21 23 22 21 21 19 16 15
63 67 65 61 61 61 57 47 46 38 29 27 26 23 24 18 14 19 15 9 8 7 11 15 16 16 16 17 16 15 19 19 21 23 23 25 29 29 27 24 22 19 16 20 18 17 17 15 13
70 68 71 66 61 62 59 53 48 42 31 31 29 28 26 21 19 19 17 10 7 8 8 11 11 14 17 18 15 14 14 12 17 19 20 22 22 27 27 26 23 21 17 16 16 14 15 14 16
77 71 71 72 65 62 62 61 44 41 34 33 34 29 36 29 23 18 18 14 7 11 12 7 8 11 14 14 14 13 13 14 14 17 19 17 19 21 23 23 24 23 19 18 17 14 17 17 18
78 71 70 73 73 67 64 63 65 50 44 37 37 33 33 29 24 21 21 19 14 15 17 10 7 8 10 12 14 13 16 18 12 17 17 16 16 16 20 20 22 23 20 19 17 17 17 17 19
81 74 73 73 76 76 69 64 59 57 50 43 45 45 44 25 18 24 19 23 18 20 15 13 10 12 9 10 11 11 12 14 14 18 16 13 13 11 15 18 19 19 19 19 18 17 16 16 15
86 80 76 74 76 81 73 67 62 55 56 52 47 50 48 42 24 26 21 20 24 25 16 14 15 15 12 14 10 14 9 10 12 15 15 13 13 12 12 13 15 16 17 17 17 18 15 15 14
88 83 81 77 77 76 76 74 65 59 58 58 48 49 45 43 32 28 28 26 26 30 26 20 18 15 13 12 7 9 17 20 8 9 16 14 11 14 9 12 8 13 15 13 13 15 16 15 13
91 88 84 81 80 75 76 79 71 64 59 60 56 47 45 36 31 30 30 29 31 34 31 26 19 16 10 10 5 2 5 13 14 11 9 10 13 12 8 7 10 9 10 11 11 11 12 10 8
94 92 90 87 86 81 79 79 77 70 63 60 57 54 48 40 28 29 39 34 38 34 35 30 25 18 16 10 8 6 2 8 11 12 13 6 6 13 12 9 8 9 8 8 9 8 8 9 7
94 95 91 91 90 86 81 79 80 76 69 63 63 55 55 52 50 41 46 41 41 36 40 33 25 25 19 12 16 11 4 5 3 8 8 16 14 6 9 11 9 8 5 4 6 6 5 8 8

GFSSGP_250_spd_114.txt.gz
Wind_Speed
10 9 10 6 6 16 17 19 29 38 41 42 39 39 30 23 25 28 30 39 42 39 31 30 24 19 16 12 11 10 3 13 22 21 22 24 26 26 26 28 26 23 27 24 22 21 26 29 29
13 6 6 6 9 17 17 18 30 32 32 40 41 39 39 29 26 27 28 34 40 47 39 28 24 17 16 13 12 13 11 5 13 22 14 21 24 30 31 30 30 28 27 28 27 28 30 31 33
6 7 6 4 10 11 15 15 25 29 34 38 41 40 42 31 25 24 31 36 39 43 46 40 28 21 18 16 11 9 12 10 7 14 20 18 17 18 24 30 34 35 32 30 30 31 31 27 24
5 16 5 3 9 8 14 18 22 25 33 36 39 40 42 34 22 21 26 33 38 44 45 43 38 28 20 17 15 10 9 11 10 9 11 13 13 16 19 22 24 25 31 33 30 27 23 18 11
18 10 5 6 8 10 10 17 21 21 29 30 40 39 41 38 24 24 27 26 32 37 43 43 42 34 28 23 18 15 11 9 10 10 9 9 9 11 12 16 16 17 16 15 12 10 7 6 4
9 4 4 6 9 12 12 13 18 17 22 25 35 38 40 36 35 23 26 25 28 34 36 42 40 40 33 27 22 19 11 9 7 9 10 9 8 9 10 9 10 10 10 9 9 9 8 9 7
9 6 2 7 10 11 10 11 15 12 20 25 35 37 39 35 37 28 25 27 30 29 31 36 40 40 39 35 29 27 19 11 5 5 8 9 9 7 7 9 10 7 8 9 9 10 12 11 10
17 3 7 14 4 10 8 11 10 8 18 22 28 33 38 35 35 35 24 28 31 29 30 34 40 39 41 39 33 29 25 20 10 4 5 7 10 10 7 7 6 5 7 11 14 16 13 11 7
20 20 12 11 1 10 10 6 4 10 12 15 20 25 34 35 37 36 31 28 31 30 32 35 37 38 39 40 35 32 29 25 19 11 4 7 10 10 10 9 8 7 11 14 16 15 13 10 4
30 29 23 14 13 15 12 9 7 6 8 12 18 23 30 35 36 35 32 30 30 30 27 34 34 38 39 40 38 34 31 31 25 20 14 9 9 9 10 12 10 11 15 19 17 14 12 6 7
34 36 24 18 15 16 17 14 5 3 5 8 15 19 26 33 34 37 34 31 28 30 28 35 33 38 41 41 39 36 34 33 31 26 21 17 15 12 13 15 14 16 17 18 18 18 13 12 8
40 37 28 22 18 12 14 11 7 4 4 6 12 16 23 28 31 34 34 33 31 29 29 32 33 35 37 40 41 38 36 35 35 30 28 28 24 20 22 20 16 16 19 19 20 18 13 13 11
42 42 33 23 23 17 14 11 8 9 5 4 9 12 19 23 27 29 34 33 30 28 27 32 32 33 33 38 38 42 37 36 35 35 31 29 26 24 21 19 17 17 18 20 21 17 13 12 13
47 45 43 33 25 17 14 12 12 11 8 5 7 10 14 18 25 28 30 33 29 27 27 28 29 32 34 36 38 38 40 37 35 34 35 31 27 25 23 21 18 17 18 20 20 19 14 14 16
47 50 44 34 31 22 21 24 27 17 12 7 8 7 10 13 19 27 26 30 28 27 25 24 26 30 33 35 37 37 37 37 36 34 33 34 28 25 20 17 16 17 21 23 21 20 19 17 16
50 51 49 37 33 31 31 26 27 23 15 14 10 6 6 11 17 23 23 25 28 25 23 23 23 27 30 33 35 38 36 35 34 36 32 31 33 30 27 26 23 22 25 25 26 23 20 18 17
54 53 53 43 38 36 32 31 28 23 16 14 12 7 5 8 12 19 20 23 22 21 22 24 21 22 24 29 34 36 35 35 34 32 33 31 31 32 31 31 29 26 28 26 24 23 20 18 18
59 54 53 51 44 39 36 33 28 24 20 16 13 14 8 7 11 13 11 20 18 18 20 22 23 22 25 27 30 32 31 33 34 34 32 31 29 29 31 31 29 28 27 25 23 23 21 20 18
58 58 54 55 51 44 40 39 34 25 24 20 15 18 13 10 10 6 9 15 16 14 19 20 22 22 25 26 29 29 29 31 30 36 34 31 30 26 26 29 28 26 25 25 24 22 23 17 18
59 58 59 55 56 53 46 42 39 33 30 23 17 16 19 15 8 3 7 14 13 13 15 18 20 22 24 24 25 27 27 28 30 31 32 31 28 26 24 24 26 25 23 23 23 22 18 16 17
64 60 60 59 57 59 56 49 43 35 35 25 21 22 21 15 10 4 4 14 11 9 13 15 17 20 22 24 24 24 24 27 30 27 28 30 28 27 26 24 22 21 19 21 19 19 16 18 22
70 67 59 61 59 61 61 56 51 44 38 29 26 26 24 17 12 6 7 9 8 5 11 14 16 17 19 22 20 21 25 27 28 25 25 26 27 26 25 24 22 19 18 19 20 18 18 21 23
75 70 65 61 64 60 63 62 58 48 41 34 30 31 27 21 17 10 10 10 8 4 7 12 11 15 17 19 19 20 23 23 24 23 23 22 23 24 26 22 22 22 22 20 20 20 20 22 21
80 73 69 65 64 65 64 64 62 53 41 40 36 36 30 25 26 19 17 16 12 9 11 10 8 12 14 15 17 18 18 18 21 19 21 20 20 22 23 23 22 22 22 20 19 19 18 18 19
83 79 75 70 65 71 70 64 62 60 56 47 43 38 36 30 30 30 19 19 17 15 15 9 8 11 14 13 15 14 16 14 20 19 18 22 19 18 21 21 21 22 21 19 18 17 16 14 11
88 84 80 76 73 74 76 68 64 59 56 52 47 39 39 39 29 23 19 23 21 19 18 13 6 10 12 13 11 14 13 11 18 16 17 17 19 18 18 16 18 20 20 18 17 17 17 17 16
89 85 84 82 79 75 69 74 69 61 60 57 46 43 43 40 33 29 23 22 24 22 19 19 18 11 12 13 4 6 10 10 12 14 14 15 14 16 14 16 14 16 18 17 15 15 14 14 14
92 90 86 84 80 78 73 73 75 70 64 61 57 55 48 50 42 41 33 29 29 26 25 21 24 22 18 13 7 4 9 10 8 10 12 14 13 11 11 11 14 14 16 15 15 14 12 11 13
92 92 89 88 84 82 78 74 74 76 71 63 56 58 57 53 51 51 43 34 32 32 25 24 30 28 20 18 12 10 10 8 10 9 7 14 14 9 12 12 10 9 10 11 10 12 12 11 11
86 91 91 89 86 86 82 79 75 75 76 70 65 61 62 59 53 52 44 44 38 32 30 27 33 30 29 25 17 15 11 7 7 8 7 4 9 7 7 14 10 11 8 7 7 6 6 8 8

GFSSGP_250_spd_117.txt.gz
Wind_Speed
7 7 9 16 12 15 22 27 34 37 38 41 40 32 25 23 29 31 36 44 43 37 26 20 16 11 10 9 6 4 11 15 20 26 29 25 23 26 27 25 27 28 22 19 22 18 20 18 19
10 3 8 10 11 12 16 23 28 33 38 40 40 36 25 24 21 27 35 37 46 41 34 27 18 16 12 8 7 7 5 13 21 18 16 17 22 24 25 27 25 26 23 17 18 19 21 21 23
8 6 8 7 10 12 17 18 21 30 36 39 41 37 34 26 27 26 31 36 40 42 40 33 27 21 16 12 7 9 11 12 25 19 18 22 19 22 26 26 25 25 25 21 22 22 23 22 24
12 6 13 6 11 9 18 17 20 29 31 40 42 41 39 29 26 30 30 31 36 41 40 39 34 27 21 16 10 7 11 13 18 27 19 19 19 20 22 21 23 26 28 25 22 15 22 23 12
11 9 5 6 12 11 15 17 17 26 31 39 40 44 38 38 26 29 32 30 28 38 42 41 38 32 26 20 16 8 7 10 13 17 19 18 15 18 19 17 16 17 18 21 15 11 7 6 6
13 7 4 10 8 10 14 15 13 21 25 33 36 43 39 40 31 28 31 29 32 35 38 37 38 34 28 27 22 15 7 7 11 14 18 17 15 13 12 14 13 11 9 10 10 10 9 8 9
11 6 5 3 4 7 12 12 14 17 21 26 33 40 41 41 35 30 34 29 33 34 37 36 37 37 32 29 26 20 15 6 9 13 14 15 16 15 15 14 13 12 11 10 11 13 15 12 11
18 4 7 3 3 4 10 12 12 13 18 22 28 35 40 42 38 31 33 32 31 35 36 39 38 36 34 32 30 28 18 10 4 10 14 14 12 11 12 13 12 12 13 15 12 14 17 12 7
16 9 8 3 3 3 5 7 13 12 15 22 27 33 37 39 40 35 34 33 32 35 34 37 39 39 35 34 31 30 26 17 8 6 11 13 12 12 13 15 13 13 17 20 18 15 13 9 6
23 21 16 11 12 8 6 6 9 10 11 19 24 28 34 37 38 37 33 31 34 34 32 36 37 39 41 36 33 32 30 25 17 12 12 11 14 12 11 14 15 17 19 22 19 18 13 9 11
29 21 28 26 16 11 13 9 9 7 7 15 18 23 29 34 36 38 32 32 31 34 36 36 37 39 39 39 35 34 33 28 24 19 19 17 14 14 14 16 19 23 23 20 19 15 11 11 10
37 34 24 28 23 17 14 10 9 5 9 8 15 18 24 29 35 35 37 31 30 33 34 36 37 38 39 40 38 35 34 31 27 28 25 23 24 23 22 22 23 26 24 22 22 17 16 15 15
41 39 30 25 26 20 15 9 10 5 7 8 9 15 20 24 31 33 35 32 29 29 31 35 37 38 41 39 39 36 34 35 31 31 28 28 25 23 22 22 23 27 24 23 23 17 16 13 12
45 46 45 32 29 22 16 11 11 9 8 6 3 9 14 21 29 32 30 32 28 28 29 30 34 38 39 40 38 37 37 35 35 32 29 27 26 24 23 22 22 24 27 24 20 16 14 14 13
49 51 46 48 28 21 18 10 11 16 6 4 2 3 7 15 25 27 26 29 29 27 28 28 32 35 38 38 40 40 36 36 34 35 33 28 23 21 20 22 24 24 23 21 18 16 15 13 14
50 52 50 45 34 27 26 28 23 27 11 8 3 3 3 8 16 22 23 26 27 26 27 30 31 32 35 35 38 40 38 36 35 33 34 33 29 27 27 25 27 26 25 21 21 19 16 14 15
54 54 52 42 42 28 36 30 23 24 18 15 11 7 3 6 6 16 17 22 24 24 26 28 30 30 33 33 37 37 40 37 35 32 32 32 33 31 29 29 29 30 28 25 22 22 18 17 13
57 55 54 54 42 39 39 33 28 28 24 19 15 12 6 4 6 8 14 20 19 22 26 27 28 29 29 31 33 37 38 38 36 32 30 31 30 31 31 29 30 28 27 24 24 23 20 15 15
56 57 56 55 52 45 43 41 37 32 28 22 18 10 9 1 2 3 9 14 17 18 22 25 27 28 28 28 30 33 36 36 35 33 31 28 30 28 30 29 27 26 25 24 25 23 18 18 21
60 57 58 56 55 50 45 40 39 36 32 27 24 15 12 6 5 3 3 9 13 14 19 22 24 26 25 26 28 30 33 33 32 32 32 30 28 27 27 27 27 26 24 24 20 19 21 23 24
64 59 57 59 56 54 51 46 42 39 36 32 29 21 13 10 9 8 2 4 9 9 14 18 20 23 25 22 26 28 30 29 30 30 33 31 28 25 26 26 26 24 22 19 18 22 24 23 23
71 66 59 58 60 58 59 52 47 42 39 35 31 23 19 13 12 13 7 5 5 3 9 12 16 20 22 23 20 25 23 24 27 27 29 29 29 27 25 25 25 23 21 21 22 23 23 21 21
78 71 66 59 59 61 58 57 50 49 43 39 34 29 25 18 14 14 13 11 5 6 6 9 11 15 18 20 19 22 21 24 26 26 25 29 28 27 27 24 23 21 20 22 22 22 22 20 20
80 75 71 65 60 61 63 60 61 53 46 44 35 37 30 22 19 20 17 14 11 8 9 8 7 10 15 17 16 16 19 23 25 26 23 22 26 26 25 24 23 20 19 17 19 18 19 18 18
83 80 74 70 64 62 65 63 61 62 55 51 42 43 34 26 26 27 22 17 13 13 11 6 7 6 10 11 10 12 17 20 21 23 24 20 22 24 24 22 22 21 19 19 17 14 13 15 14
89 85 79 75 71 71 68 67 64 61 63 58 48 47 37 34 33 32 29 23 18 16 15 14 6 4 6 5 7 11 11 18 19 19 20 22 23 22 19 23 21 21 21 20 19 18 16 17 16
90 87 84 81 76 74 68 66 68 65 62 64 57 49 41 40 37 39 29 28 25 20 20 19 14 12 7 8 2 4 8 15 18 18 19 19 19 20 19 19 22 20 19 20 20 18 16 16 17
90 91 88 84 81 77 72 69 72 71 67 62 61 60 54 46 45 43 34 32 27 23 23 26 19 15 15 11 8 4 5 9 13 16 14 18 20 20 18 15 16 19 17 17 17 17 16 15 14
88 90 90 88 86 83 78 75 74 74 72 68 60 58 58 53 51 44 43 38 32 27 28 28 23 19 16 15 12 9 8 5 7 13 13 13 13 14 15 14 12 10 15 14 14 14 13 12 12
84 88 91 90 87 86 84 80 79 75 74 72 68 61 57 59 56 49 47 47 40 35 32 32 28 25 19 18 17 16 17 15 9 9 9 9 11 11 8 12 13 10 11 10 12 11 14 13 12